[[{"header":{"parameterUnit":"m.s-1","parameterCategory":1,"la1":30.6,"la2":29.2853,"lo1":-89.7004,"lo2":-87.6739,"dy":0.0162,"dx":0.0183,"nx":112,"ny":82,"refTime":"2023-07-03T06:00:00:Z","depth":0,"parameterNumber":2,"parameterNumberName":"U-component_of_WINDS"},"data":[0.0,0.0,0.0,0.0,0.0,0.0,0.0,0.0,0.0,0.0,0.0,0.0,0.0,0.0,0.0,0.0,0.0,0.0,0.0,0.0,0.0,0.0,0.0,0.0,0.0,0.0,0.0,0.0,0.0,0.0,0.0,0.0,0.0,0.0,0.0,0.0,0.0,0.0,0.0,0.0,0.0,0.0,0.0,0.0,0.0,0.0,0.0,0.0,0.0,0.0,0.0,0.0,0.0,0.0,0.0,0.0,0.0,0.0,0.0,0.0,0.0,0.0,0.0,0.0,0.0,0.0,0.0,0.0,0.0,0.0,0.0,0.0,0.0,0.0,0.0,0.0,0.0,0.0,0.0,0.0,0.0,0.0,0.0,0.0,0.0,0.0,0.0,0.0,0.0,0.0,-2.4221,-2.54,-2.5673,-2.5935,-2.6362,-2.468,-2.3493,-2.3135,0.0,0.0,0.0,0.0,0.0,0.0,0.0,0.0,0.0,0.0,0.0,0.0,0.0,0.0,0.0,0.0,0.0,0.0,0.0,0.0,0.0,0.0,0.0,0.0,0.0,0.0,0.0,0.0,0.0,0.0,0.0,0.0,0.0,0.0,0.0,0.0,0.0,0.0,0.0,0.0,0.0,0.0,0.0,0.0,0.0,0.0,0.0,0.0,0.0,0.0,0.0,0.0,0.0,0.0,0.0,0.0,0.0,0.0,0.0,0.0,0.0,0.0,0.0,0.0,0.0,0.0,0.0,0.0,0.0,0.0,0.0,0.0,0.0,0.0,0.0,0.0,0.0,0.0,0.0,0.0,0.0,0.0,0.0,0.0,0.0,0.0,0.0,0.0,0.0,0.0,0.0,0.0,0.0,0.0,0.0,0.0,0.0,0.0,0.0,0.0,0.0,0.0,0.0,0.0,-2.4221,-2.54,-2.5348,-2.5527,-2.5935,-2.5009,-2.3983,-2.3135,0.0,0.0,0.0,0.0,0.0,0.0,0.0,0.0,0.0,0.0,0.0,0.0,0.0,0.0,0.0,0.0,0.0,0.0,0.0,0.0,0.0,0.0,0.0,0.0,0.0,0.0,0.0,0.0,0.0,0.0,0.0,0.0,0.0,0.0,0.0,0.0,0.0,0.0,0.0,0.0,0.0,0.0,0.0,0.0,0.0,0.0,0.0,0.0,0.0,0.0,0.0,0.0,0.0,0.0,0.0,0.0,0.0,0.0,0.0,0.0,0.0,0.0,0.0,0.0,0.0,0.0,0.0,0.0,0.0,0.0,0.0,0.0,0.0,0.0,0.0,0.0,0.0,0.0,0.0,0.0,0.0,0.0,0.0,0.0,0.0,0.0,0.0,0.0,0.0,0.0,0.0,0.0,0.0,0.0,0.0,0.0,0.0,0.0,0.0,0.0,0.0,0.0,0.0,-2.4765,-2.5179,-2.5924,-2.5779,-2.5706,-2.6196,-2.5263,-2.4327,-2.3551,-2.2872,0.0,0.0,0.0,0.0,0.0,0.0,0.0,0.0,0.0,0.0,0.0,0.0,0.0,0.0,0.0,0.0,0.0,0.0,0.0,0.0,0.0,0.0,0.0,0.0,0.0,0.0,0.0,0.0,0.0,0.0,0.0,0.0,0.0,0.0,0.0,0.0,0.0,0.0,0.0,0.0,0.0,0.0,0.0,0.0,0.0,0.0,0.0,0.0,0.0,0.0,0.0,0.0,0.0,0.0,0.0,0.0,0.0,0.0,0.0,0.0,0.0,0.0,0.0,0.0,0.0,0.0,0.0,0.0,0.0,0.0,0.0,0.0,0.0,0.0,0.0,0.0,0.0,0.0,0.0,0.0,0.0,0.0,0.0,0.0,0.0,0.0,0.0,0.0,0.0,0.0,0.0,0.0,0.0,0.0,0.0,0.0,0.0,0.0,0.0,0.0,0.0,0.0,-2.5895,-2.6063,-2.629,-2.6052,-2.6063,-2.6373,-2.5622,-2.4765,-2.3887,-2.3299,0.0,0.0,0.0,0.0,0.0,0.0,0.0,0.0,0.0,0.0,0.0,0.0,0.0,0.0,0.0,0.0,0.0,0.0,0.0,0.0,0.0,0.0,0.0,0.0,0.0,0.0,0.0,0.0,0.0,0.0,0.0,0.0,0.0,0.0,0.0,0.0,0.0,0.0,0.0,0.0,0.0,0.0,0.0,0.0,0.0,0.0,0.0,0.0,0.0,0.0,0.0,0.0,0.0,0.0,0.0,0.0,0.0,0.0,0.0,0.0,0.0,0.0,0.0,0.0,0.0,0.0,0.0,0.0,0.0,0.0,0.0,0.0,0.0,0.0,0.0,0.0,0.0,0.0,0.0,0.0,0.0,0.0,0.0,0.0,0.0,0.0,0.0,0.0,0.0,0.0,0.0,0.0,0.0,0.0,0.0,0.0,0.0,0.0,0.0,0.0,0.0,0.0,-2.5895,-2.5895,-2.5895,-2.5906,-2.5895,-2.5895,-2.5895,-2.5285,-2.3887,-2.38,0.0,0.0,0.0,0.0,0.0,0.0,0.0,0.0,0.0,0.0,0.0,0.0,0.0,0.0,0.0,0.0,0.0,0.0,0.0,0.0,0.0,0.0,0.0,0.0,0.0,0.0,0.0,0.0,0.0,0.0,0.0,0.0,0.0,0.0,0.0,0.0,0.0,0.0,0.0,0.0,0.0,0.0,0.0,0.0,0.0,0.0,0.0,0.0,0.0,0.0,0.0,0.0,0.0,0.0,0.0,0.0,0.0,0.0,0.0,0.0,0.0,0.0,0.0,0.0,0.0,0.0,0.0,0.0,0.0,0.0,0.0,0.0,0.0,0.0,0.0,0.0,0.0,0.0,0.0,0.0,0.0,0.0,0.0,0.0,0.0,0.0,0.0,0.0,0.0,0.0,0.0,0.0,0.0,0.0,0.0,0.0,0.0,0.0,0.0,0.0,0.0,0.0,-2.5115,-2.4935,-2.5812,-2.5549,-2.5464,-2.5895,-2.5549,-2.485,-2.3887,0.0,0.0,0.0,0.0,0.0,0.0,0.0,0.0,0.0,0.0,0.0,0.0,0.0,0.0,0.0,0.0,0.0,0.0,0.0,0.0,0.0,0.0,0.0,0.0,0.0,0.0,0.0,0.0,0.0,0.0,0.0,0.0,0.0,0.0,0.0,0.0,0.0,0.0,0.0,0.0,0.0,0.0,0.0,0.0,0.0,0.0,0.0,0.0,0.0,0.0,0.0,0.0,0.0,0.0,0.0,0.0,0.0,0.0,0.0,0.0,0.0,0.0,0.0,0.0,0.0,0.0,0.0,0.0,0.0,0.0,0.0,0.0,0.0,0.0,0.0,0.0,0.0,0.0,0.0,0.0,0.0,0.0,0.0,0.0,0.0,0.0,0.0,0.0,0.0,0.0,0.0,0.0,0.0,0.0,0.0,0.0,0.0,0.0,0.0,0.0,0.0,0.0,-2.5464,-2.4765,-2.4413,-2.52,-2.5031,-2.5031,-2.52,-2.485,-2.4241,-2.3551,0.0,0.0,0.0,0.0,0.0,0.0,0.0,0.0,0.0,0.0,0.0,0.0,0.0,0.0,0.0,0.0,0.0,0.0,0.0,0.0,0.0,0.0,0.0,0.0,0.0,0.0,0.0,0.0,0.0,0.0,0.0,0.0,0.0,0.0,0.0,0.0,0.0,0.0,0.0,0.0,0.0,0.0,0.0,0.0,0.0,0.0,0.0,0.0,0.0,0.0,0.0,0.0,0.0,0.0,0.0,0.0,0.0,0.0,0.0,0.0,0.0,0.0,0.0,0.0,0.0,0.0,0.0,0.0,0.0,0.0,0.0,0.0,0.0,0.0,0.0,0.0,0.0,0.0,0.0,0.0,0.0,0.0,0.0,0.0,0.0,0.0,0.0,0.0,0.0,0.0,0.0,0.0,0.0,0.0,0.0,0.0,0.0,0.0,0.0,0.0,0.0,0.0,-2.4775,-2.4861,-2.4594,-2.3887,-2.4423,-2.4594,-2.3887,-2.379,-2.3551,0.0,0.0,0.0,0.0,0.0,0.0,0.0,0.0,0.0,0.0,0.0,0.0,0.0,0.0,0.0,0.0,0.0,0.0,0.0,0.0,0.0,0.0,0.0,0.0,0.0,0.0,0.0,0.0,0.0,0.0,0.0,0.0,0.0,0.0,0.0,0.0,0.0,0.0,0.0,0.0,0.0,0.0,0.0,0.0,0.0,0.0,0.0,0.0,0.0,0.0,0.0,0.0,0.0,0.0,0.0,0.0,0.0,0.0,0.0,0.0,0.0,0.0,0.0,0.0,0.0,0.0,0.0,0.0,0.0,0.0,0.0,0.0,0.0,0.0,0.0,0.0,0.0,0.0,0.0,0.0,0.0,0.0,0.0,0.0,0.0,0.0,0.0,0.0,0.0,0.0,0.0,0.0,0.0,0.0,0.0,0.0,0.0,0.0,0.0,0.0,0.0,0.0,0.0,-2.3983,-2.329,-2.295,-2.3714,-2.356,-2.3474,-2.38,-2.3387,-2.3047,-2.2794,0.0,0.0,0.0,0.0,0.0,0.0,0.0,0.0,0.0,0.0,0.0,0.0,0.0,0.0,0.0,0.0,0.0,0.0,0.0,0.0,0.0,0.0,0.0,0.0,0.0,0.0,0.0,0.0,0.0,0.0,0.0,0.0,0.0,0.0,0.0,0.0,0.0,0.0,0.0,0.0,0.0,0.0,0.0,0.0,0.0,0.0,0.0,0.0,0.0,0.0,0.0,0.0,0.0,0.0,0.0,0.0,0.0,0.0,0.0,0.0,0.0,0.0,0.0,0.0,0.0,0.0,0.0,0.0,0.0,0.0,0.0,0.0,0.0,0.0,0.0,0.0,0.0,0.0,0.0,0.0,0.0,0.0,0.0,0.0,0.0,0.0,0.0,0.0,0.0,0.0,0.0,0.0,0.0,0.0,0.0,0.0,0.0,0.0,0.0,0.0,0.0,0.0,-2.3212,-2.2696,-2.2344,-2.294,-2.2872,-2.2872,-2.294,-2.2608,-2.2353,-2.2353,0.0,0.0,0.0,0.0,0.0,0.0,0.0,0.0,0.0,0.0,0.0,0.0,0.0,0.0,0.0,0.0,0.0,0.0,0.0,0.0,0.0,0.0,0.0,0.0,0.0,0.0,0.0,0.0,0.0,0.0,0.0,0.0,0.0,0.0,0.0,0.0,0.0,0.0,0.0,0.0,0.0,0.0,0.0,0.0,0.0,0.0,0.0,0.0,0.0,0.0,0.0,0.0,0.0,0.0,0.0,0.0,0.0,0.0,0.0,0.0,0.0,0.0,0.0,0.0,0.0,0.0,0.0,0.0,0.0,0.0,0.0,0.0,0.0,0.0,0.0,0.0,0.0,0.0,0.0,0.0,0.0,0.0,0.0,0.0,0.0,0.0,0.0,0.0,0.0,0.0,0.0,0.0,0.0,0.0,0.0,0.0,0.0,0.0,0.0,0.0,0.0,0.0,-2.2618,-2.2715,-2.2451,-2.1731,-2.2264,-2.2441,-2.1741,-2.1741,-2.1741,-2.1741,0.0,0.0,0.0,0.0,0.0,0.0,0.0,0.0,0.0,0.0,0.0,0.0,0.0,0.0,0.0,0.0,0.0,0.0,0.0,0.0,0.0,0.0,0.0,0.0,0.0,0.0,0.0,0.0,0.0,0.0,0.0,0.0,0.0,0.0,0.0,0.0,0.0,0.0,0.0,0.0,0.0,0.0,0.0,0.0,0.0,0.0,0.0,0.0,0.0,0.0,0.0,0.0,0.0,0.0,0.0,0.0,0.0,0.0,0.0,0.0,-2.3367,-2.3983,0.0,0.0,0.0,0.0,0.0,0.0,0.0,0.0,0.0,0.0,0.0,0.0,0.0,0.0,0.0,0.0,0.0,0.0,0.0,0.0,0.0,0.0,0.0,0.0,0.0,0.0,0.0,0.0,0.0,0.0,0.0,0.0,0.0,0.0,0.0,0.0,0.0,0.0,0.0,0.0,-2.1909,-2.1909,-2.1909,-2.1741,-2.182,-2.183,-2.1731,-2.1741,-2.1741,-2.1741,-2.1365,0.0,0.0,0.0,0.0,0.0,0.0,0.0,0.0,0.0,0.0,0.0,0.0,0.0,0.0,0.0,0.0,0.0,0.0,0.0,0.0,0.0,0.0,0.0,0.0,0.0,0.0,0.0,0.0,0.0,0.0,0.0,0.0,0.0,0.0,0.0,0.0,0.0,0.0,0.0,0.0,0.0,0.0,0.0,0.0,0.0,0.0,0.0,0.0,0.0,0.0,0.0,0.0,0.0,0.0,0.0,0.0,0.0,0.0,0.0,-2.4059,-2.4231,0.0,0.0,0.0,0.0,0.0,0.0,0.0,0.0,0.0,0.0,0.0,0.0,0.0,0.0,0.0,0.0,0.0,0.0,0.0,0.0,0.0,0.0,0.0,0.0,0.0,0.0,0.0,0.0,0.0,0.0,0.0,0.0,0.0,0.0,0.0,0.0,0.0,0.0,0.0,0.0,-2.1741,-2.1741,-2.1741,-2.1741,-2.1741,-2.1741,-2.1741,-2.1741,-2.1642,-2.1365,-2.1087,0.0,0.0,0.0,0.0,0.0,0.0,0.0,0.0,0.0,0.0,0.0,0.0,0.0,0.0,0.0,0.0,0.0,0.0,0.0,0.0,0.0,0.0,0.0,0.0,0.0,0.0,0.0,0.0,0.0,0.0,0.0,0.0,0.0,0.0,0.0,0.0,0.0,0.0,0.0,0.0,0.0,0.0,0.0,0.0,0.0,0.0,0.0,0.0,0.0,0.0,0.0,0.0,0.0,-2.3831,-2.4262,-2.5895,-2.5295,-2.538,-2.5812,-2.4669,-2.4145,-2.4231,-2.485,0.0,0.0,0.0,0.0,0.0,0.0,0.0,0.0,0.0,0.0,0.0,0.0,0.0,0.0,0.0,0.0,0.0,0.0,0.0,0.0,0.0,0.0,-2.0637,-2.0637,-2.0727,-2.0727,-2.0727,0.0,0.0,0.0,0.0,0.0,0.0,0.0,0.0,0.0,0.0,0.0,-2.1741,-2.1741,-2.1741,-2.1741,-2.1741,-2.1642,-2.1553,-2.1553,-2.1365,-2.0907,-2.0817,-2.0645,0.0,0.0,0.0,0.0,0.0,0.0,0.0,0.0,0.0,0.0,0.0,0.0,0.0,0.0,0.0,0.0,0.0,0.0,0.0,0.0,0.0,0.0,0.0,0.0,0.0,0.0,0.0,0.0,0.0,0.0,0.0,0.0,-2.0249,-2.1186,0.0,0.0,0.0,0.0,0.0,0.0,0.0,0.0,0.0,0.0,0.0,0.0,0.0,-2.2794,-2.2969,-2.3993,-2.4605,-2.4861,-2.5295,-2.5644,-2.5895,-2.5812,-2.5812,-2.5906,-2.5717,0.0,-2.5633,-2.5728,0.0,0.0,0.0,0.0,0.0,0.0,0.0,0.0,0.0,0.0,0.0,0.0,0.0,0.0,0.0,0.0,0.0,0.0,0.0,0.0,0.0,0.0,-1.9096,-1.9096,-1.9463,-1.982,-1.982,-2.0826,-2.1741,-2.1741,-2.1365,-2.1177,0.0,0.0,0.0,0.0,0.0,0.0,-2.1741,-2.1741,-2.1741,-2.1741,-2.1741,-2.1553,-2.1087,-2.1087,-2.0907,-2.0374,-2.0011,-1.992,-2.0292,-1.9471,0.0,0.0,0.0,0.0,0.0,0.0,0.0,0.0,0.0,0.0,0.0,0.0,0.0,0.0,0.0,0.0,0.0,0.0,0.0,0.0,0.0,0.0,0.0,0.0,0.0,0.0,0.0,0.0,0.0,-1.9695,-2.0619,-2.1553,-2.1741,-2.1741,0.0,0.0,0.0,0.0,0.0,0.0,0.0,0.0,0.0,-2.2853,-2.356,-2.4176,-2.4519,-2.4337,-2.468,-2.5464,-2.538,-2.5559,-2.5895,-2.5895,-2.5895,-2.5895,-2.5895,-2.5895,-2.5895,-2.5895,-2.5895,-2.5895,0.0,0.0,0.0,0.0,-2.3212,-2.2765,-2.1713,-2.1006,-2.0645,-2.0645,0.0,0.0,0.0,0.0,0.0,0.0,0.0,-1.9828,-1.9646,-1.9463,-1.9279,-1.9279,-1.9463,-1.9646,-1.992,-2.0464,-2.0925,-2.0925,-2.1186,-2.1365,-2.1365,-2.1365,0.0,0.0,0.0,-2.1741,-2.1741,-2.1741,-2.1741,-2.1741,-2.1454,-2.1177,-2.0997,-2.0736,-2.0374,-1.992,-1.9271,-1.8896,-1.8804,-1.7978,-1.7699,0.0,0.0,0.0,0.0,0.0,0.0,0.0,0.0,0.0,0.0,0.0,0.0,0.0,0.0,0.0,0.0,0.0,0.0,0.0,0.0,0.0,0.0,0.0,0.0,0.0,0.0,0.0,0.0,-2.0628,-2.0907,-2.1642,-2.1741,-2.1741,0.0,0.0,0.0,0.0,0.0,0.0,-2.1998,-2.3115,-2.3714,-2.3551,-2.4423,-2.5031,-2.5369,-2.4669,-2.485,-2.5895,-2.538,-2.538,-2.5895,-2.5895,-2.5895,-2.5895,-2.5895,-2.5895,-2.5895,-2.5895,-2.5895,-2.5895,-2.5728,-2.5549,-2.5285,-2.3877,-2.3008,-2.2482,-2.1257,-2.0555,-2.011,-2.011,-2.0011,-1.9837,-1.9463,0.0,0.0,0.0,0.0,-1.9554,-1.9455,-1.9371,-1.9371,-1.9371,-1.9371,-1.9463,-1.9828,-2.0019,-2.0201,-2.0292,-2.0744,-2.1096,-2.0997,-2.1096,0.0,-2.1454,-2.1374,-2.1374,-2.1374,-2.1374,-2.1374,-2.1374,-2.1006,-2.0727,-2.0628,-2.0283,-1.9828,-1.918,-1.8527,-1.7963,-1.7412,-1.6864,-1.6588,-1.6588,0.0,0.0,0.0,0.0,0.0,0.0,0.0,0.0,0.0,0.0,0.0,0.0,0.0,0.0,0.0,0.0,0.0,0.0,0.0,0.0,0.0,0.0,0.0,0.0,0.0,0.0,0.0,0.0,0.0,-2.1731,-2.1741,0.0,0.0,0.0,0.0,-2.1741,-2.253,-2.2969,-2.2706,-2.3377,-2.3551,-2.2882,-2.4176,-2.4594,-2.3887,-2.52,-2.5812,-2.5895,-2.5895,-2.5895,-2.5895,-2.5895,-2.5895,-2.5895,-2.5895,-2.5895,-2.5895,-2.5895,-2.5895,-2.5812,-2.5211,-2.468,-2.4049,-2.2648,-2.1774,-2.1248,-2.0555,-2.0011,-1.9637,-1.9637,-1.9279,-1.8827,-1.8827,-1.9188,0.0,0.0,-1.9188,-1.9463,-1.9004,-1.8827,-1.8827,-1.8827,-1.8827,-1.8827,-1.8827,-1.9279,-1.9737,-2.0201,-2.0011,-2.0002,-2.0817,0.0,-2.0002,-2.0907,-2.0645,-2.0382,-2.0382,-2.0382,-2.0382,-2.0382,-2.0382,-2.0102,-1.9729,-1.9646,-1.9088,-1.7878,-1.7785,-1.7412,-1.6676,-1.6581,-1.6588,-1.6588,-1.5818,0.0,0.0,0.0,0.0,0.0,0.0,0.0,0.0,0.0,0.0,0.0,0.0,0.0,0.0,0.0,0.0,0.0,0.0,0.0,0.0,0.0,0.0,0.0,0.0,0.0,0.0,0.0,0.0,-2.1741,-2.1741,0.0,-2.1741,-2.183,-2.183,-2.1741,-2.1998,-2.2176,-2.2087,-2.3202,-2.3464,-2.2803,-2.4176,-2.4775,-2.4509,-2.5031,-2.5464,-2.5895,-2.5895,-2.5895,-2.5895,-2.5895,-2.5895,-2.5895,-2.5728,-2.5369,-2.4754,-2.4584,-2.4584,-2.4659,-2.3684,-2.3153,-2.2892,-2.1943,-2.123,-2.0782,-2.0085,-1.9554,-1.9104,-1.9104,-1.892,-1.8827,-1.8827,-1.8912,-1.9012,-1.8827,-1.892,-1.9004,-1.8827,-1.8827,-1.8827,-1.8827,-1.8827,-1.8827,-1.8827,-1.8912,-1.9096,-1.9279,-1.9737,-2.0102,-2.0093,-2.0102,-2.0192,-2.0464,-2.0382,-2.0292,-2.0292,-2.0292,-2.0292,-2.0292,-2.0011,-1.9828,-1.9637,-1.8804,-1.8156,-1.7692,-1.6749,-1.6096,-1.5818,-1.5343,-1.5153,-1.5153,-1.4867,-1.4675,0.0,0.0,0.0,0.0,0.0,0.0,0.0,0.0,0.0,0.0,0.0,0.0,0.0,0.0,0.0,0.0,0.0,0.0,0.0,0.0,0.0,0.0,0.0,0.0,0.0,-2.1195,-2.1284,-2.1463,-2.1454,-2.1553,-2.1651,-2.1741,-2.1741,-2.1741,-2.1909,-2.2087,-2.2087,-2.3202,-2.3627,-2.3125,-2.4251,-2.4861,-2.4861,-2.5126,-2.5464,-2.5895,-2.5895,-2.5812,-2.5559,-2.538,-2.5189,-2.4935,-2.4669,-2.4135,-2.3511,-2.2902,-2.2814,-2.2892,-2.2277,-2.1924,-2.1738,-2.097,-2.0439,-1.9886,-1.9455,-1.9096,-1.8827,-1.8827,-1.8827,-1.8827,-1.8827,-1.8827,-1.8827,-1.8827,-1.8827,-1.8827,-1.8827,-1.8827,-1.8827,-1.8827,-1.8827,-1.8827,-1.8827,-1.8827,-1.8827,-1.8827,-1.9379,-1.9737,-1.9637,-1.9737,-1.9837,-2.0011,-1.9928,-1.9837,-1.9837,-1.9837,-1.9837,-1.9837,-1.9554,-1.9271,-1.8988,-1.8156,-1.7505,-1.6936,-1.6001,-1.5248,-1.5057,-1.4586,-1.4298,-1.4298,-1.4298,-1.4298,-1.4298,0.0,0.0,0.0,0.0,0.0,0.0,0.0,0.0,0.0,0.0,0.0,0.0,0.0,0.0,0.0,0.0,0.0,0.0,0.0,0.0,0.0,0.0,0.0,-2.011,-2.0292,-2.0464,-2.0907,-2.0997,-2.1177,-2.1642,-2.1731,-2.1741,-2.1741,-2.2353,-2.2803,-2.2803,-2.3377,-2.38,-2.3714,-2.4423,-2.4861,-2.4861,-2.5464,-2.5812,-2.5895,-2.5812,-2.5464,-2.4861,-2.4317,-2.3694,-2.3096,-2.2629,-2.2356,-2.2268,-2.1033,-2.0593,-2.0593,-2.106,-2.0962,-2.0512,-1.9812,-1.9279,-1.8827,-1.8827,-1.8827,-1.8827,-1.8827,-1.8827,-1.8827,-1.8827,-1.8827,-1.8827,-1.8827,-1.8827,-1.8827,-1.8827,-1.8827,-1.8827,-1.8827,-1.8827,-1.8827,-1.8827,-1.8827,-1.8827,-1.8827,-1.8827,-1.9012,-1.9463,-1.9096,-1.9012,-1.9463,-1.9096,0.0,-1.8827,-1.8827,-1.8827,-1.8735,-1.8735,-1.845,-1.7692,-1.7591,-1.703,-1.5527,-1.5343,-1.5057,-1.4298,-1.4298,-1.4298,-1.4298,-1.4298,-1.4298,-1.4298,0.0,0.0,0.0,0.0,0.0,0.0,0.0,0.0,0.0,0.0,0.0,0.0,0.0,0.0,0.0,0.0,0.0,0.0,0.0,0.0,0.0,-1.6567,-1.7885,-2.0011,-2.0292,-2.0382,-2.0464,-2.0817,-2.1087,-2.1177,-2.1463,-2.1741,-2.1741,-2.1919,-2.2008,-2.2008,-2.2696,-2.2872,-2.2246,-2.296,-2.3647,-2.4059,-2.382,-2.4433,-2.5895,-2.4498,-2.4059,-2.4317,-2.3327,-2.2795,-2.2541,-2.2287,-2.1747,-2.1033,-2.0602,-1.9977,-1.9271,-1.9455,-1.9455,-1.9271,-1.9096,-1.892,-1.8827,-1.8827,-1.8827,-1.8827,-1.8827,-1.8827,-1.8827,-1.8827,-1.8827,-1.8827,-1.8827,-1.8827,-1.8827,-1.8827,-1.8827,-1.8827,-1.8827,-1.8827,-1.8827,-1.8827,-1.8827,-1.8827,-1.8827,-1.8827,-1.8827,-1.9004,-1.892,-1.8827,-1.9012,-1.892,-1.8827,-1.8827,-1.8827,-1.8635,-1.8071,-1.7971,-1.7699,-1.6958,-1.6379,-1.5812,-1.5439,-1.4867,-1.4484,-1.4298,-1.4298,-1.4298,-1.4298,-1.4298,-1.4298,0.0,0.0,0.0,0.0,0.0,0.0,0.0,0.0,0.0,0.0,0.0,0.0,0.0,0.0,0.0,0.0,0.0,0.0,0.0,0.0,0.0,0.0,-1.6103,-1.7232,-1.8988,-1.9463,-1.9737,-2.0011,-2.0275,-2.0456,-2.0736,-2.0916,-2.1105,-2.1105,-2.1105,-2.1105,-2.1105,-2.1722,-2.1989,-2.1802,-2.2441,-2.3135,-2.379,-2.3377,-2.3734,-2.4669,-2.3617,-2.2999,-2.2911,-2.2013,-2.1471,-2.1221,-2.0782,-2.0339,-1.9795,-1.9712,-1.9363,-1.8827,0.0,0.0,0.0,0.0,-1.8827,-1.8827,-1.8827,-1.8827,-1.8827,-1.8827,-1.8827,-1.8827,-1.8827,-1.8827,-1.8827,-1.8827,-1.8827,-1.8827,-1.8827,-1.8827,-1.8827,-1.8827,-1.8827,-1.8827,-1.8827,-1.8827,-1.8827,-1.8827,-1.8827,0.0,-1.8827,-1.8827,-1.8827,-1.8827,-1.8827,-1.8827,-1.8827,-1.8542,-1.8164,-1.7785,-1.7412,-1.6951,-1.6197,-1.5629,0.0,0.0,0.0,-1.4298,-1.4298,-1.4298,0.0,0.0,0.0,-1.4202,-1.4016,-1.4202,0.0,0.0,-1.4202,-1.4298,0.0,0.0,0.0,0.0,0.0,0.0,0.0,0.0,0.0,0.0,0.0,0.0,0.0,0.0,0.0,0.0,-1.6008,-1.6864,-1.7505,-1.8257,-1.9012,-1.9455,-1.9546,-1.9737,-2.0201,-2.0292,-2.0292,-2.0292,-2.0292,-2.0292,-2.0292,-2.0727,0.0,0.0,0.0,-2.2862,-2.3531,-2.3444,-2.327,-2.3008,-2.2833,-2.2208,-2.1239,-2.0692,-2.0068,-1.9463,-1.9012,-1.8827,-1.8827,-1.8827,-1.8827,-1.8827,-1.8827,-1.8827,-1.8827,-1.8827,-1.8827,-1.8827,-1.8827,0.0,0.0,-1.8827,-1.8827,-1.8827,-1.8827,-1.8827,-1.8827,-1.8827,-1.8827,-1.8827,-1.8827,-1.8827,-1.8827,-1.8827,-1.8827,-1.8827,-1.8827,-1.8827,-1.8827,-1.8827,-1.8827,-1.8827,-1.8827,-1.8827,-1.8735,-1.8735,-1.8643,-1.8643,-1.855,-1.7978,-1.7505,-1.7404,-1.6857,0.0,-1.5337,-1.5248,-1.4962,-1.4292,-1.4298,-1.4298,-1.4202,-1.4202,-1.4202,-1.4106,-1.4106,-1.3913,-1.3443,-1.3913,-1.3919,-1.3443,-1.401,-1.4298,0.0,0.0,0.0,0.0,0.0,0.0,0.0,0.0,0.0,0.0,0.0,0.0,0.0,0.0,0.0,-1.3823,-1.5439,-1.6676,-1.677,-1.7986,-1.8827,-1.892,-1.9371,-1.9637,-1.9737,-2.011,-2.0292,-2.0292,-2.0292,-2.0292,-2.0292,-2.0382,-2.0464,-2.0645,-2.0736,-2.1087,-2.1774,-2.1257,-2.1507,-2.2532,-2.0962,0.0,-2.0683,-1.9621,-1.9096,-1.892,-1.8827,-1.8827,-1.8827,-1.8827,-1.8827,-1.8827,-1.8827,-1.8827,-1.8827,-1.8827,-1.8827,-1.8827,-1.8827,-1.8827,-1.8827,-1.8827,-1.8827,-1.8827,-1.8827,-1.8827,0.0,-1.8827,-1.8827,-1.8827,-1.8827,-1.8827,-1.8827,-1.8827,-1.8827,-1.8827,-1.8827,-1.8827,-1.8827,-1.8827,-1.8827,-1.8827,-1.8827,-1.8827,-1.8635,-1.7971,-1.7878,-1.7699,-1.7145,-1.6864,-1.6574,-1.5906,-1.5717,-1.5343,-1.458,-1.4484,-1.4484,-1.4298,-1.4298,-1.4106,-1.3636,-1.363,-1.3437,-1.3147,-1.305,-1.305,-1.2958,-1.305,-1.305,-1.2958,-1.3913,-1.4298,0.0,0.0,0.0,0.0,0.0,0.0,0.0,0.0,0.0,0.0,0.0,-1.2467,-1.2764,0.0,-1.3152,-1.3152,-1.486,-1.619,-1.619,-1.7699,-1.8827,-1.8827,-1.9004,-1.9188,-1.9188,-1.9371,-1.9563,-1.9563,-1.9563,-1.9563,-1.9563,-1.9828,-1.992,-1.992,-2.0201,-2.0464,-2.0817,-2.0464,-2.0546,-2.0953,-2.0076,-1.9637,-1.9712,-1.9096,-1.8827,-1.8827,-1.8827,-1.8827,-1.8827,-1.8827,-1.8827,-1.8827,-1.8827,-1.8827,-1.8827,-1.8827,-1.8827,-1.8827,-1.8827,-1.8827,-1.8827,-1.8827,-1.8827,-1.8827,-1.8827,-1.8827,-1.8827,-1.8827,-1.8827,-1.8827,-1.8827,-1.8827,-1.8827,-1.8827,-1.8827,-1.8827,-1.8827,-1.8827,-1.8827,-1.8827,-1.8542,-1.8257,-1.8257,-1.7986,-1.7707,-1.7692,-1.7412,-1.7044,-1.6676,-1.6204,-1.5818,-1.5439,-1.5057,-1.4675,-1.4298,-1.4298,-1.4298,-1.4298,-1.401,-1.3823,-1.3539,-1.3249,-1.3055,-1.2764,-1.2764,-1.2662,-1.237,-1.2662,-1.2662,-1.2467,-1.3147,-1.3528,0.0,0.0,0.0,0.0,0.0,0.0,0.0,-0.852,-0.9813,-1.1184,-1.1585,-1.178,-1.237,-1.257,-1.2662,-1.2662,-1.4178,-1.5412,-1.5412,-1.7117,-1.8357,-1.845,-1.8643,-1.8827,-1.8827,-1.8827,-1.8827,-1.8827,-1.8827,-1.8827,-1.8827,-1.9188,-1.9463,-1.9463,-1.9828,-2.0019,-2.0019,-2.0019,-1.9828,-1.9463,-1.9463,-1.9188,-1.8827,-1.8827,-1.8827,-1.8827,-1.8827,-1.8827,-1.8827,-1.8827,-1.8827,-1.8827,-1.8827,-1.8827,-1.8827,-1.8827,-1.8827,-1.8827,-1.8827,-1.8827,-1.8827,-1.8827,-1.8827,-1.8827,-1.8827,-1.8827,-1.8827,-1.8827,-1.8827,-1.8827,-1.8827,-1.8827,-1.8827,-1.8827,-1.8827,-1.8735,-1.8643,-1.8542,-1.8542,-1.8357,-1.7885,-1.7505,-1.7505,-1.6857,-1.6574,-1.7131,-1.6763,-1.6298,-1.6204,-1.5629,-1.5153,-1.5153,-1.4675,-1.4298,-1.4106,-1.4106,-1.4106,-1.401,-1.363,-1.3346,-1.3249,-1.2861,-1.2565,-1.2467,-1.2467,-1.2273,-1.1883,-1.2273,-1.2273,-1.1883,-1.2273,-1.2565,-0.3621,-0.4227,-0.4834,-0.4834,-0.4935,-0.5233,0.0,-0.6728,-0.7621,-0.9197,-0.9903,-1.0507,-1.1194,-1.1785,-1.2078,-1.2078,-1.3216,-1.4064,-1.4064,-1.569,-1.6929,-1.7124,-1.8071,-1.8827,-1.8827,-1.8827,-1.8827,-1.8827,-1.8827,-1.8827,-1.8827,-1.8827,-1.892,-1.892,-1.892,-1.9012,-1.9012,-1.9012,-1.892,-1.892,-1.892,-1.8827,-1.8827,-1.8827,-1.8827,-1.8827,-1.8827,-1.8827,-1.8827,-1.8827,-1.8827,-1.8827,-1.8827,-1.8827,-1.8827,-1.8827,-1.8827,-1.8827,-1.8827,-1.8827,-1.8827,-1.8827,-1.8827,-1.8827,-1.8827,-1.8827,-1.8827,-1.8827,-1.8827,-1.8827,-1.8827,-1.8827,-1.8827,-1.8827,-1.8827,-1.8643,-1.7971,-1.7785,-1.7598,-1.6958,-1.677,-1.6676,-1.6676,-1.6103,-1.5527,-1.5622,-1.5622,-1.5343,-1.4675,-1.449,-1.4394,-1.4394,-1.4394,-1.4106,-1.3636,-1.3636,-1.3443,-1.2958,-1.2958,-1.2662,-1.2175,-1.2078,-1.1878,-1.1389,-1.1394,-1.1389,-1.1292,-1.1389,-1.1389,-1.1292,-1.1389,-1.1883,-0.2518,-0.3225,-0.3833,-0.3833,-0.4133,-0.4533,-0.5329,-0.6429,-0.7624,-0.8707,-0.9805,-1.0609,-1.09,-1.1292,-1.1492,-1.1492,-1.264,-1.3403,-1.3403,-1.4734,-1.5974,-1.6648,-1.7217,-1.7878,-1.8735,-1.8827,-1.8827,-1.8827,-1.8827,-1.8827,-1.8827,-1.8827,-1.8827,-1.8827,-1.8827,-1.8827,-1.8827,-1.8827,-1.8827,-1.8827,-1.8827,-1.8827,-1.8827,-1.8827,-1.8827,-1.8827,-1.8827,-1.8827,-1.8827,-1.8827,-1.8827,-1.8827,-1.8827,-1.8743,-1.8658,-1.8743,-1.8827,-1.8827,-1.8827,-1.8827,-1.8827,-1.8827,-1.8743,-1.8658,-1.8735,-1.8743,-1.8658,-1.8735,-1.8827,-1.8827,-1.8827,-1.8827,-1.8827,-1.8827,-1.845,-1.8071,-1.7785,-1.7117,-1.6459,-1.6183,-1.552,-1.5038,-1.5038,-1.4376,-1.3908,-1.3908,-1.4388,-1.4675,-1.4298,-1.4298,-1.4202,-1.3823,-1.363,-1.334,-1.3152,-1.3055,-1.3055,-1.2764,-1.2467,-1.2273,-1.198,-1.1683,-1.1389,-1.1194,-1.1194,-1.1194,-1.1194,-1.1194,-1.1194,-1.1194,-1.1194,-1.1487,-0.1712,-0.2422,-0.2927,-0.313,-0.3531,-0.3932,-0.4531,-0.5632,-0.6828,-0.7614,-0.8913,-1.001,-1.0203,-1.0699,-1.1096,-1.1096,-1.1965,-1.2543,-1.2543,-1.3872,-1.5114,-1.5981,-1.6553,-1.7318,-1.8542,-1.8651,-1.8743,-1.8743,-1.8735,-1.8827,-1.8827,-1.8827,-1.8827,-1.8827,-1.8827,-1.8827,-1.8827,-1.8827,-1.8827,-1.8827,-1.8827,-1.8827,-1.8827,-1.8827,-1.8827,-1.8827,-1.8743,-1.8743,-1.8743,-1.8643,-1.8643,-1.8643,-1.8643,-1.8558,-1.8381,-1.855,-1.8643,-1.8643,-1.8643,-1.8643,-1.8643,-1.8643,-1.8465,-1.8381,-1.855,-1.8465,-1.8381,-1.855,-1.8643,-1.8643,-1.8643,-1.8357,-1.8164,-1.8164,-1.7591,-1.6922,-1.6734,-1.5886,-1.5222,-1.5038,-1.4274,-1.3601,-1.3601,-1.3136,-1.2764,-1.2764,-1.3431,-1.3913,-1.3913,-1.3913,-1.3721,-1.3346,-1.2958,-1.2759,-1.2565,-1.257,-1.2565,-1.237,-1.198,-1.1785,-1.1785,-1.1389,-1.1194,-1.1194,-1.1194,-1.1194,-1.1194,-1.1194,-1.1194,-1.1194,-1.1194,-1.1194,-0.1606,-0.2017,-0.2219,-0.3027,-0.323,-0.323,-0.323,-0.3732,-0.4332,-0.5129,-0.6628,-0.7925,-0.8707,-0.9903,-1.0806,-1.0806,-1.1096,-1.1292,-1.1292,-1.3022,-1.4459,-1.4651,-1.6473,-1.7815,-1.8087,-1.8381,-1.8481,-1.8481,-1.8651,-1.8827,-1.8827,-1.8827,-1.8827,-1.8827,-1.8827,-1.8827,-1.8827,-1.8827,-1.8827,-1.8827,-1.8827,-1.8827,-1.8827,-1.8827,-1.8827,-1.8827,-1.8566,-1.8481,-1.8481,-1.8187,-1.8087,-1.8087,-1.8087,-1.8087,-1.8087,-1.8087,-1.8087,-1.8087,-1.8087,-1.8087,-1.8087,-1.8087,-1.8087,-1.8087,-1.8087,-1.8087,-1.8087,-1.8087,-1.8087,-1.8087,-1.8087,-1.7412,-1.6648,-1.6648,-1.5873,-1.4918,-1.416,-1.3968,-1.3788,-1.3044,-1.2861,-1.2856,-1.2856,-1.2856,-1.2764,-1.2764,-1.2861,-1.2861,-1.2861,-1.2861,-1.2861,-1.2861,-1.2764,-1.2565,-1.2078,-1.1975,-1.1785,-1.1292,-1.1194,-1.1194,-1.1194,-1.1194,-1.1194,-1.1194,-1.1194,-1.1194,-1.1194,-1.1194,-1.1194,-1.1194,-1.1194,-1.1194,-0.0394,-0.1088,-0.1787,-0.2918,-0.323,-0.323,-0.323,-0.3932,-0.4634,-0.4832,-0.6625,-0.8219,-0.8513,-0.9608,-1.0605,-1.0806,-1.09,-1.0998,-1.1194,-1.1775,-1.2732,-1.4268,-1.5032,-1.5988,-1.7419,-1.7994,-1.8187,-1.8187,-1.8465,-1.8566,-1.8566,-1.8743,-1.8827,-1.8827,-1.8827,-1.8827,-1.8827,-1.8827,-1.8827,-1.8827,-1.8827,-1.8743,-1.8566,-1.8566,-1.8566,-1.8566,-1.8373,-1.8187,-1.8187,-1.8179,-1.8087,-1.8087,-1.8087,-1.7994,-1.7815,-1.7815,-1.7714,-1.7613,-1.7994,-1.8087,-1.8087,-1.8087,-1.7994,-1.7908,-1.8087,-1.7994,-1.79,-1.8087,-1.8087,-1.8087,-1.8087,-1.7318,-1.6648,-1.6648,-1.5399,-1.416,-1.3968,-1.321,-1.2554,-1.237,-1.1975,-1.1785,-1.1785,-1.1785,-1.1785,-1.1785,-1.237,-1.2764,-1.2764,-1.2467,-1.2273,-1.2273,-1.198,-1.1683,-1.1487,-1.1487,-1.1389,-1.1194,-1.1194,-1.1194,-1.1194,-1.1194,-1.1194,-1.1194,-1.1194,-1.1194,-1.1194,-1.1194,-1.1194,-1.1194,-1.1194,-1.1194,0.0868,-0.0097,-0.0983,-0.209,-0.2611,-0.2927,-0.3029,-0.363,-0.4131,-0.4234,-0.6027,-0.7717,-0.7717,-0.9114,-1.0314,-1.0511,-1.0605,-1.0703,-1.1002,-1.1385,-1.2155,-1.3596,-1.4364,-1.5317,-1.6655,-1.7419,-1.7807,-1.7994,-1.8195,-1.8381,-1.8381,-1.8558,-1.8651,-1.8651,-1.8735,-1.8827,-1.8827,-1.8827,-1.8735,-1.8651,-1.8558,-1.8458,-1.8381,-1.8381,-1.8381,-1.8381,-1.8094,-1.7994,-1.7994,-1.7807,-1.78,-1.78,-1.78,-1.7714,-1.7535,-1.7535,-1.7426,-1.7326,-1.7707,-1.78,-1.78,-1.78,-1.7714,-1.7621,-1.78,-1.7714,-1.7527,-1.7326,-1.7318,-1.7225,-1.6842,-1.5981,-1.521,-1.521,-1.4064,-1.292,-1.292,-1.2257,-1.1683,-1.1683,-1.1487,-1.1194,-1.1194,-1.1194,-1.1194,-1.1194,-1.178,-1.2273,-1.2273,-1.1883,-1.1683,-1.1683,-1.1389,-1.1194,-1.1194,-1.1194,-1.1194,-1.1194,-1.1194,-1.1194,-1.1194,-1.1194,-1.1194,-1.1194,-1.1194,-1.1194,-1.1194,-1.1194,-1.1194,-1.1194,-1.1194,-1.1194,0.1985,0.1059,0.0195,-0.0685,-0.1589,-0.2417,-0.272,-0.2823,-0.2826,-0.313,-0.4828,-0.6323,-0.6423,-0.8319,-0.992,-1.0019,-1.0216,-1.0511,-1.0703,-1.157,-1.2339,-1.263,-1.4453,-1.5697,-1.5704,-1.656,-1.7239,-1.7535,-1.79,-1.8087,-1.8087,-1.8288,-1.8481,-1.8481,-1.8651,-1.8735,-1.8735,-1.8827,-1.8651,-1.8481,-1.828,-1.8087,-1.8087,-1.8087,-1.8087,-1.8087,-1.7815,-1.7721,-1.7628,-1.7426,-1.7326,-1.7326,-1.7326,-1.7232,-1.7232,-1.7232,-1.7232,-1.7232,-1.7232,-1.7326,-1.7326,-1.7326,-1.7232,-1.7232,-1.7232,-1.7232,-1.6943,-1.5988,-1.5704,-1.5507,-1.4555,-1.3499,-1.2727,-1.2727,-1.1965,-1.1194,-1.1194,-1.1194,-1.1194,-1.1194,-1.1194,-1.1194,-1.1194,-1.1194,-1.1194,-1.1194,-1.1194,-1.1194,-1.1194,-1.1194,-1.1194,-1.1194,-1.1194,-1.1194,-1.1194,-1.1194,-1.1194,-1.1194,-1.1194,-1.1194,-1.1194,-1.1194,-1.1194,-1.1194,-1.1194,-1.1194,-1.1194,-1.1194,-1.1194,-1.1194,-1.1194,-1.1194,0.2496,0.2052,0.141,-0.0477,-0.107,-0.1481,-0.2272,-0.2497,-0.2623,-0.2826,-0.3929,-0.5227,-0.6224,-0.7521,-0.8821,-0.9817,-1.0019,-1.0216,-1.0507,-1.09,-1.1477,-1.2339,-1.3017,-1.3782,-1.4555,-1.4937,-1.5412,-1.6183,-1.7239,-1.7815,-1.7815,-1.8094,-1.8179,-1.8179,-1.8272,-1.8373,-1.8566,-1.8743,-1.8643,-1.8179,-1.8381,-1.8195,-1.7815,-1.7815,-1.7815,-1.7815,-1.7527,-1.7426,-1.7426,-1.7326,-1.7326,-1.7326,-1.7326,-1.685,-1.6271,-1.7037,-1.685,-1.6278,-1.7044,-1.7326,-1.7326,-1.7326,-1.6756,-1.6177,-1.6177,-1.5704,-1.5032,-1.4746,-1.4651,-1.4651,-1.4364,-1.3499,-1.2727,-1.2727,-1.1965,-1.1194,-1.1194,-1.1194,-1.1194,-1.1194,-1.1194,-1.1194,-1.1194,-1.1194,-1.1194,-1.1194,-1.1194,-1.1194,-1.1194,-1.1194,-1.1194,-1.1194,-1.1194,-1.1194,-1.1194,-1.1194,-1.1194,-1.1194,-1.1194,-1.1194,-1.1194,-1.1194,-1.1194,-1.1194,-1.1194,-1.1194,-1.1194,-1.1194,-1.1194,-1.1194,-1.1194,-1.1194,0.3448,0.2656,0.1665,0.0374,-0.0572,-0.1356,-0.2034,-0.2261,-0.2491,-0.279,-0.3707,-0.483,-0.5529,-0.6924,-0.8223,-0.9019,-0.9521,-0.992,-1.0216,-1.0413,-1.0895,-1.157,-1.2727,-1.3499,-1.3596,-1.4453,-1.5222,-1.5798,-1.6466,-1.7052,-1.7527,-1.7807,-1.79,-1.79,-1.7994,-1.8179,-1.828,-1.828,-1.8187,-1.79,-1.8001,-1.7807,-1.7527,-1.7527,-1.7527,-1.7527,-1.7333,-1.7326,-1.7326,-1.7326,-1.7326,-1.7326,-1.7326,-1.6943,-1.6466,-1.656,-1.6278,-1.5798,-1.5988,-1.5988,-1.6082,-1.6466,-1.6278,-1.5704,-1.5317,-1.4746,-1.4172,-1.3692,-1.3596,-1.3499,-1.3022,-1.2441,-1.2058,-1.2058,-1.158,-1.1194,-1.1194,-1.1194,-1.1194,-1.1194,-1.1194,-1.1194,-1.1194,-1.1194,-1.1194,-1.1194,-1.1194,-1.1194,-1.1194,-1.1194,-1.1194,-1.1194,-1.1194,-1.1194,-1.1194,-1.1194,-1.1194,-1.1194,-1.1194,-1.1194,-1.1194,-1.1194,-1.1194,-1.1194,-1.1194,-1.1194,-1.1194,-1.1194,-1.1194,-1.1194,-1.1194,-1.1194,0.4119,0.2811,0.1379,0.1288,-0.0093,-0.1425,-0.1806,-0.2122,-0.2442,-0.2639,-0.366,-0.4602,-0.4914,-0.6504,-0.7902,-0.812,-0.9027,-0.9727,-0.992,-1.0216,-1.0511,-1.0806,-1.2635,-1.3596,-1.2829,-1.4358,-1.5507,-1.5798,-1.5704,-1.6082,-1.7232,-1.7527,-1.7628,-1.7628,-1.79,-1.8087,-1.8087,-1.7908,-1.7721,-1.7721,-1.752,-1.7326,-1.7326,-1.7326,-1.7326,-1.7326,-1.7326,-1.7326,-1.7326,-1.7326,-1.7232,-1.7138,-1.7138,-1.7037,-1.6756,-1.5893,-1.5609,-1.5514,-1.4555,-1.4268,-1.4459,-1.5317,-1.5507,-1.5222,-1.4364,-1.398,-1.3692,-1.2727,-1.2538,-1.2344,-1.1385,-1.1194,-1.1194,-1.1194,-1.1194,-1.1194,-1.1194,-1.1194,-1.1194,-1.1194,-1.1194,-1.1194,-1.1194,-1.1194,-1.1194,-1.1194,-1.1194,-1.1194,-1.1194,-1.1194,-1.1194,-1.1194,-1.1194,-1.1194,-1.1194,-1.1194,-1.1194,-1.1194,-1.1194,-1.1194,-1.1194,-1.1194,-1.1194,-1.1194,-1.1194,-1.1194,-1.1194,-1.1194,-1.1194,-1.1194,-1.1194,-1.1194,0.3135,0.2334,0.117,0.045,-0.0,-0.0465,-0.1396,-0.1795,-0.2109,-0.2301,-0.269,-0.3573,-0.5681,-0.6382,-0.7198,-0.9004,-0.9529,-0.9727,-0.992,-1.0216,-1.0511,-1.0806,-1.1385,-1.1965,-1.2635,-1.3017,-1.3974,-1.5697,-1.5032,-1.5317,-1.7232,-1.7333,-1.7333,-1.7333,-1.7621,-1.7908,-1.8087,-1.8087,-1.7994,-1.7994,-1.7721,-1.7527,-1.7326,-1.7326,-1.7326,-1.7326,-1.7326,-1.7326,-1.7326,-1.7326,-1.685,-1.6082,-1.6082,-1.5507,-1.4841,-1.4651,-1.4555,-1.4555,-1.4364,-1.4268,-1.4364,-1.4459,-1.3974,-1.321,-1.3017,-1.2446,-1.1678,-1.1482,-1.1482,-1.1389,-1.1292,-1.1194,-1.1194,-1.1194,-1.1194,-1.1194,-1.1194,-1.1194,-1.1194,-1.1194,-1.1194,-1.1194,-1.1194,-1.1194,-1.1194,-1.1194,-1.1194,-1.1194,-1.1194,-1.1194,-1.1194,-1.1194,-1.1194,-1.1194,-1.1194,-1.1194,-1.1194,-1.1194,-1.1194,-1.1194,-1.1194,-1.1194,-1.1194,-1.1194,-1.1194,-1.1194,-1.1194,-1.1194,-1.1194,-1.1194,-1.1194,-1.1194,0.2149,0.1433,0.0537,0.009,-0.0361,-0.0819,-0.1366,-0.1759,-0.2066,-0.2255,-0.2932,-0.3908,-0.5193,-0.6255,-0.7232,-0.8364,-0.9056,-0.9573,-0.9858,-1.0263,-1.0498,-1.0792,-1.1482,-1.2155,-1.2635,-1.321,-1.4166,-1.5704,-1.5317,-1.5507,-1.6466,-1.656,-1.685,-1.7527,-1.7628,-1.7815,-1.8087,-1.8087,-1.7994,-1.79,-1.7721,-1.7535,-1.7326,-1.7326,-1.7326,-1.7326,-1.7326,-1.7326,-1.7326,-1.7326,-1.7037,-1.656,-1.5988,-1.5514,-1.4937,-1.3884,-1.3499,-1.3403,-1.2829,-1.2732,-1.2732,-1.2732,-1.2732,-1.2635,-1.2058,-1.158,-1.1194,-1.1194,-1.1194,-1.1194,-1.1194,-1.1194,-1.1194,-1.1194,-1.1194,-1.1194,-1.1194,-1.1194,-1.1194,-1.1194,-1.1194,-1.1194,-1.1194,-1.1194,-1.1194,-1.1194,-1.1194,-1.1194,-1.1194,-1.1194,-1.1194,-1.1194,-1.1194,-1.1194,-1.1194,-1.1194,-1.1194,-1.1194,-1.1194,-1.1194,-1.1194,-1.1194,-1.1194,-1.1194,-1.1194,-1.1194,-1.1194,-1.1194,-1.1194,-1.1194,-1.1194,-1.1194,0.1074,0.0448,-0.0269,-0.0269,-0.0897,-0.1436,-0.1436,-0.1818,-0.2299,-0.2481,-0.3532,-0.4603,-0.4996,-0.6406,-0.7543,-0.7858,-0.8711,-0.9511,-0.9845,-1.0196,-1.0665,-1.1109,-1.2027,-1.2823,-1.3307,-1.3974,-1.4841,-1.5988,-1.5988,-1.5994,-1.6183,-1.6183,-1.6662,-1.7721,-1.7815,-1.7908,-1.8179,-1.8087,-1.7994,-1.7815,-1.7721,-1.7535,-1.7326,-1.7326,-1.7326,-1.7326,-1.7326,-1.7326,-1.7326,-1.7326,-1.7138,-1.685,-1.5893,-1.5514,-1.5222,-1.3113,-1.2538,-1.2538,-1.158,-1.1194,-1.1194,-1.1194,-1.177,-1.2252,-1.1482,-1.1194,-1.1194,-1.1194,-1.1194,-1.1194,-1.1194,-1.1194,-1.1194,-1.1194,-1.1194,-1.1194,-1.1194,-1.1194,-1.1194,-1.1194,-1.1194,-1.1194,-1.1194,-1.1194,-1.1194,-1.1194,-1.1194,-1.1194,-1.1194,-1.1194,-1.1194,-1.1194,-1.1194,-1.1194,-1.1194,-1.1194,-1.1194,-1.1194,-1.1194,-1.1194,-1.1194,-1.1194,-1.1194,-1.1194,-1.1194,-1.1194,-1.1194,-1.1194,-1.1194,-1.1194,-1.1194,-1.1194,0.009,-0.0538,-0.1256,-0.1256,-0.1345,-0.1436,-0.1705,-0.1977,-0.2518,-0.3502,-0.4047,-0.4885,-0.6803,-0.7282,-0.7788,-0.906,-0.9368,-0.9562,-1.0134,-1.0396,-1.0896,-1.2136,-1.2507,-1.3397,-1.5317,-1.4746,-1.5127,-1.7037,-1.6567,-1.6574,-1.7434,-1.7535,-1.7714,-1.8087,-1.8087,-1.8187,-1.8481,-1.8187,-1.8087,-1.8087,-1.7815,-1.7535,-1.7326,-1.7326,-1.7326,-1.7326,-1.7326,-1.7326,-1.7326,-1.7326,-1.6756,-1.5798,-1.4841,-1.4459,-1.4172,-1.2063,-1.1965,-1.2538,-1.158,-1.1194,-1.1194,-1.1194,-1.1292,-1.1292,-1.1194,-1.1194,-1.1194,-1.1194,-1.1194,-1.1194,-1.1194,-1.1194,-1.1194,-1.1194,-1.1194,-1.1194,-1.1194,-1.1194,-1.1194,-1.1194,-1.1194,-1.1194,-1.1194,-1.1194,-1.1194,-1.1194,-1.1194,-1.1194,-1.1194,-1.1194,-1.1194,-1.1194,-1.1194,-1.1194,-1.1194,-1.1194,-1.1194,-1.1194,-1.1194,-1.1194,-1.1194,-1.1194,-1.1194,-1.1194,-1.1194,-1.1194,-1.1194,-1.1194,-1.1194,-1.1194,-1.1194,-1.1194,-0.0897,-0.1076,-0.1436,-0.1436,-0.1525,-0.1705,-0.1794,-0.2064,-0.2691,-0.3671,-0.4563,-0.5555,-0.6946,-0.7853,-0.8504,-0.9029,-0.9306,-0.9615,-1.0013,-1.0635,-1.1513,-1.2261,-1.2931,-1.3992,-1.5684,-1.5412,-1.5725,-1.7154,-1.6865,-1.6936,-1.7484,-1.7206,-1.7426,-1.8288,-1.8381,-1.8473,-1.8651,-1.855,-1.8365,-1.8087,-1.7994,-1.7714,-1.7326,-1.7326,-1.7326,-1.7326,-1.7326,-1.6943,-1.6372,-1.6372,-1.5798,-1.4746,-1.3788,-1.3307,-1.3113,-1.1775,-1.1482,-1.177,-1.1389,-1.1194,-1.1194,-1.1194,-1.1194,-1.1194,-1.1194,-1.1194,-1.1194,-1.1194,-1.1194,-1.1194,-1.1194,-1.1194,-1.1194,-1.1194,-1.1194,-1.1194,-1.1194,-1.1194,-1.1194,-1.1194,-1.1194,-1.1194,-1.1194,-1.1194,-1.1194,-1.1194,-1.1194,-1.1194,-1.1194,-1.1194,-1.1194,-1.1194,-1.1194,-1.1194,-1.1194,-1.1194,-1.1194,-1.1194,-1.1194,-1.1194,-1.1194,-1.1194,-1.1194,-1.1194,-1.1194,-1.1194,-1.1194,-1.1194,-1.1194,-1.1194,-1.1194,-1.1194,-0.1615,-0.1615,-0.1525,-0.1615,-0.1794,-0.1973,-0.2331,-0.269,-0.3315,-0.4561,-0.5539,-0.6428,-0.7404,-0.8292,-0.8911,-0.9087,-0.9345,-0.974,-1.0243,-1.1102,-1.1969,-1.2871,-1.3614,-1.4654,-1.5989,-1.6102,-1.6296,-1.6635,-1.6951,-1.7175,-1.743,-1.7146,-1.74,-1.8261,-1.8362,-1.8501,-1.8676,-1.8772,-1.855,-1.8087,-1.8087,-1.78,-1.7326,-1.7326,-1.7326,-1.7326,-1.7326,-1.6943,-1.6177,-1.5893,-1.5412,-1.4651,-1.321,-1.2727,-1.2538,-1.158,-1.1194,-1.1194,-1.1194,-1.1194,-1.1194,-1.1194,-1.1194,-1.1194,-1.1194,-1.1194,-1.1194,-1.1194,-1.1194,-1.1194,-1.1194,-1.1194,-1.1194,-1.1194,-1.1194,-1.1194,-1.1194,-1.1194,-1.1194,-1.1194,-1.1194,-1.1194,-1.1194,-1.1194,-1.1194,-1.1194,-1.1194,-1.1194,-1.1194,-1.1194,-1.1194,-1.1194,-1.1194,-1.1194,-1.1194,-1.1194,-1.1194,-1.1194,-1.1194,-1.1194,-1.1194,-1.1194,-1.1194,-1.1194,-1.0998,-1.0806,-1.0801,-1.0605,-1.0502,-1.0502,-1.0502,-1.0605,-0.2154,-0.1974,-0.1884,-0.2154,-0.2154,-0.2512,-0.3582,-0.3848,-0.4472,-0.6605,-0.7051,-0.7492,-0.8644,-0.8911,-0.9087,-0.9515,-0.9602,-1.0038,-1.1154,-1.1433,-1.228,-1.4228,-1.4654,-1.528,-1.6558,-1.6831,-1.6558,-1.5555,-1.6712,-1.743,-1.743,-1.7692,-1.7779,-1.7787,-1.812,-1.8303,-1.8303,-1.8653,-1.855,-1.8087,-1.8087,-1.78,-1.7326,-1.7326,-1.7326,-1.7326,-1.7326,-1.7326,-1.7232,-1.6177,-1.5798,-1.5602,-1.3494,-1.2727,-1.2538,-1.158,-1.1194,-1.1194,-1.1194,-1.1194,-1.1194,-1.1194,-1.1194,-1.1194,-1.1194,-1.1194,-1.1194,-1.1194,-1.1194,-1.1194,-1.1194,-1.1194,-1.1194,-1.1194,-1.1194,-1.1194,-1.1194,-1.1194,-1.1194,-1.1194,-1.1194,-1.1194,-1.1194,-1.1194,-1.1194,-1.1194,-1.1194,-1.1194,-1.1194,-1.1194,-1.1194,-1.1194,-1.1194,-1.1194,-1.1194,-1.1194,-1.1194,-1.1194,-1.1194,-1.1194,-1.1194,-1.1194,-1.1194,-1.1194,-1.0413,-1.0019,-1.0019,-0.9221,-0.8821,-0.8821,-0.8821,-0.9221,-0.2243,-0.2154,-0.2064,-0.2154,-0.2334,-0.2691,-0.3671,-0.4028,-0.4741,-0.6959,-0.7401,-0.7757,-0.8907,-0.9257,-0.9602,-1.0467,-1.0636,-1.1149,-1.2083,-1.2839,-1.3655,-1.4642,-1.5637,-1.6455,-1.6911,-1.696,-1.6822,-1.6462,-1.6769,-1.6896,-1.6896,-1.698,-1.7278,-1.7755,-1.7882,-1.7938,-1.7938,-1.8116,-1.8016,-1.7743,-1.7795,-1.7621,-1.7326,-1.7326,-1.6943,-1.6278,-1.7037,-1.6082,-1.4166,-1.4644,-1.398,-1.2635,-1.1965,-1.1673,-1.1673,-1.1292,-1.1194,-1.1194,-1.1194,-1.1194,-1.1194,-1.1194,-1.1194,-1.1194,-1.1194,-1.1194,-1.1194,-1.1194,-1.1194,-1.1194,-1.1194,-1.1194,-1.1194,-1.1194,-1.1194,-1.1194,-1.1194,-1.1194,-1.1194,-1.1194,-1.1194,-1.1194,-1.1194,-1.1194,-1.1194,-1.1194,-1.1194,-1.1194,-1.1194,-1.1194,-1.1194,-1.1194,-1.1194,-1.1194,-1.1194,-1.1194,-1.1194,-1.1194,-1.0703,-1.0413,-1.0413,-0.9813,-0.9513,-0.9513,-0.932,-0.9225,-0.9225,-0.8924,-0.8825,-0.8825,-0.8825,-0.8924,0.0,-0.2424,-0.2334,-0.2424,-0.2781,-0.3406,-0.4385,-0.5095,-0.5983,-0.7669,-0.8109,-0.846,-0.9257,-0.9519,-0.9946,-1.0982,-1.1241,-1.1752,-1.3021,-1.3795,-1.4467,-1.5255,-1.6227,-1.6791,-1.6791,-1.6761,-1.6805,-1.6805,-1.6775,-1.673,-1.673,-1.673,-1.6929,-1.7366,-1.7517,-1.758,-1.758,-1.7674,-1.7668,-1.7392,-1.7462,-1.7342,-1.7157,-1.7274,-1.6756,-1.5798,-1.6466,-1.5412,0.0,-1.3596,-1.292,-1.177,-1.1389,-1.1194,-1.1194,-1.1194,-1.1194,-1.1194,-1.1194,-1.1194,-1.1194,-1.1194,-1.1194,-1.1194,-1.1194,-1.1194,-1.1194,-1.1194,-1.1194,-1.1194,-1.1194,-1.1194,-1.1194,-1.1194,-1.1194,-1.1194,-1.1194,-1.1194,-1.1194,-1.1194,-1.1194,-1.1194,-1.1194,-1.1194,-1.1194,-1.1194,-1.1194,-1.1194,-1.1194,-1.1194,-1.1194,-1.1194,-1.1194,-1.1194,-1.1194,-1.09,-1.0703,-1.0703,-1.0015,-0.9521,-0.9521,-0.9023,-0.8825,-0.8825,-0.8524,-0.8326,-0.8326,-0.8028,-0.7928,-0.7928,-0.8226,-0.8326,0.0,-0.2784,-0.2693,-0.2962,-0.3765,-0.4654,-0.563,0.0,0.0,0.0,0.0,-0.9345,-0.9607,-0.9602,-1.0033,-1.1235,-1.1408,-1.2089,-1.3964,-1.4391,-1.4901,-1.6004,-1.6319,-1.6394,-1.6394,-1.6566,-1.673,-1.673,-1.673,-1.673,-1.673,-1.673,-1.673,-1.673,-1.7064,-1.7239,-1.7239,-1.7416,-1.7311,-1.7041,-1.7116,-1.7017,-1.6865,-1.7157,-1.6734,-1.5798,-1.5798,-1.5222,-1.4076,-1.3113,-1.263,-1.2538,-1.158,-1.1194,-1.1194,-1.1194,-1.1194,-1.1194,-1.1194,-1.1194,-1.1194,-1.1194,-1.1194,-1.1194,-1.1194,-1.1194,-1.1194,-1.1194,-1.1194,-1.1194,-1.1194,-1.1194,-1.1194,-1.1194,-1.1194,-1.1194,-1.1194,-1.1194,-1.1194,-1.1194,-1.1194,-1.1194,-1.1194,-1.1194,-1.1194,-1.1194,-1.1194,-1.1194,-1.1194,-1.1194,-1.1194,-1.1194,-1.1194,-1.1194,-1.1194,-1.0511,-1.0019,-1.0019,-0.9225,-0.8821,-0.8722,-0.8623,-0.8627,-0.8627,-0.7928,-0.7531,-0.7531,-0.6734,-0.6437,-0.6437,-0.7132,-0.7531,-0.4032,0.0,-0.403,-0.4652,-0.5006,-0.5536,0.0,0.0,0.0,0.0,0.0,0.0,0.0,-0.9864,-1.0463,-1.2083,-1.2339,-1.3099,-1.5061,-1.5643,-1.6064,-1.6319,-1.6484,-1.6648,-1.6648,-1.6648,-1.673,-1.673,-1.673,-1.673,-1.673,-1.673,-1.673,-1.673,-1.6818,-1.6857,-1.6857,-1.68,-1.6799,-1.6713,-1.6602,-1.6705,-1.6857,-1.6938,-1.6529,-1.5798,-1.5798,-1.4746,-1.3017,-1.2823,-1.2252,-1.1482,-1.1292,-1.1194,-1.1194,-1.1194,-1.1194,-1.1194,-1.1194,-1.1194,-1.1194,-1.1194,-1.1194,-1.1194,-1.1194,-1.1194,-1.1194,-1.1194,-1.1194,-1.1194,-1.1194,-1.1194,-1.1194,-1.1194,-1.1194,-1.1194,-1.1194,-1.1194,-1.1194,-1.1194,-1.1194,-1.1194,-1.1194,-1.1194,-1.1194,-1.1194,-1.1194,-1.1194,-1.1194,-1.1194,-1.1194,-1.1194,-1.1194,-1.1194,-1.1194,-1.0998,-1.0708,-1.0019,-0.9225,-0.8528,-0.7928,-0.7332,-0.6933,-0.6933,-0.6734,-0.6634,-0.6634,-0.6534,-0.6437,-0.6437,-0.6637,-0.6634,-0.5891,-0.5359,-0.4917,-0.527,-0.5977,-0.6773,-0.7566,0.0,0.0,0.0,0.0,0.0,0.0,-1.0038,-1.0636,-1.2504,-1.2845,-1.3607,-1.5726,-1.6229,-1.6394,-1.6566,-1.6648,-1.673,-1.673,-1.673,-1.673,-1.673,-1.673,-1.673,-1.673,-1.673,-1.673,-1.673,-1.673,-1.673,-1.673,-1.6513,-1.6362,-1.6369,-1.6268,-1.625,-1.6433,-1.6572,-1.6246,-1.5591,-1.5591,-1.4432,-1.2727,-1.2727,-1.2155,-1.1194,-1.1194,-1.1194,-1.1194,-1.1194,-1.1194,-1.1194,-1.1194,-1.1194,-1.1194,-1.1194,-1.1194,-1.1194,-1.1194,-1.1194,-1.1194,-1.1194,-1.1194,-1.1194,-1.1194,-1.1194,-1.1194,-1.1194,-1.1194,-1.1194,-1.1194,-1.1194,-1.1194,-1.1194,-1.1194,-1.1096,-1.0703,-1.0609,-1.0507,-1.0109,-1.0109,-1.0109,-1.0109,-1.0109,-1.0109,-1.0109,-1.0109,-1.0109,-1.0109,-1.0109,-0.9912,-0.9521,-0.8326,-0.7531,-0.7033,-0.6634,-0.6437,-0.6437,-0.6437,-0.6437,-0.6437,-0.6437,-0.6437,-0.6437,-0.6437,-0.6437,-0.7834,-0.6861,-0.5977,-0.5977,-0.6949,-0.8009,-0.8097,0.0,0.0,0.0,0.0,0.0,0.0,-1.0207,-1.089,-1.276,-1.3353,-1.4196,-1.6139,-1.6394,-1.6476,-1.6656,-1.673,-1.673,-1.673,-1.673,-1.673,-1.673,-1.673,-1.673,-1.673,-1.673,-1.673,-1.673,-1.673,-1.6648,-1.6648,-1.6327,-1.6087,-1.6012,-1.5878,-1.587,-1.5921,-1.6184,-1.6017,-1.5474,-1.5147,-1.4278,-1.2871,-1.2619,-1.196,-1.1194,-1.1194,-1.1194,-1.1194,-1.1194,-1.1194,-1.1194,-1.1194,-1.1194,-1.1194,-1.1194,-1.1194,-1.1194,-1.1194,-1.1194,-1.1194,-1.1194,-1.1194,-1.1194,-1.1194,-1.1194,-1.1194,-1.1194,-1.1194,-1.1194,-1.1194,-1.1194,-1.1194,-1.1194,-1.1096,-1.0801,-1.0117,-0.992,-0.962,-0.8924,-0.8825,-0.8825,-0.8825,-0.8825,-0.8825,-0.8825,-0.8825,-0.8825,-0.8825,-0.8726,-0.8623,-0.8623,-0.7332,-0.6537,-0.6437,-0.6437,-0.6437,-0.6437,-0.6437,-0.6437,-0.6437,-0.6437,-0.6437,-0.6437,-0.6437,-0.6437,-0.7834,-0.8097,-0.836,-0.836,-0.8536,-0.889,-0.951,0.0,0.0,0.0,0.0,0.0,0.0,-1.1058,-1.1906,-1.336,-1.4873,-1.5966,-1.6312,-1.6566,-1.6648,-1.673,-1.673,-1.673,-1.673,-1.673,-1.673,-1.673,-1.673,-1.673,-1.673,-1.673,-1.673,-1.673,-1.673,-1.6648,-1.6476,-1.6245,-1.6004,-1.5741,-1.5558,-1.565,-1.5913,-1.5965,-1.606,-1.6181,-1.4694,-1.3888,-1.3479,-1.2078,-1.1389,-1.1194,-1.1194,-1.1194,-1.1194,-1.1194,-1.1194,-1.1194,-1.1194,-1.1194,-1.1194,-1.1194,-1.1194,-1.1194,-1.1194,-1.1194,-1.1194,-1.1194,-1.1194,-1.1194,-1.1194,-1.1194,-1.1194,-1.1194,-1.1194,-1.1194,-1.1194,-1.1194,-1.1194,-1.1194,-1.0609,-1.0117,-1.0019,-0.9422,-0.8924,-0.8825,-0.8825,-0.8825,-0.8825,-0.8825,-0.8825,-0.8825,-0.8825,-0.8825,-0.8825,-0.8127,-0.7829,-0.7829,-0.7531,-0.7132,-0.6437,-0.6437,-0.6437,-0.6437,-0.6437,-0.6437,-0.6437,-0.6437,-0.6437,-0.6437,-0.6437,-0.6437,-0.8978,-0.9244,-0.9506,-0.9506,-0.9506,-0.9598,-0.9951,0.0,0.0,0.0,0.0,0.0,0.0,-1.1655,-1.251,-1.4119,-1.5636,-1.6566,-1.6566,-1.6648,-1.673,-1.673,-1.673,-1.673,-1.673,-1.673,-1.673,-1.673,-1.673,-1.673,-1.673,-1.673,-1.673,-1.673,-1.6566,-1.6402,-1.6245,-1.5997,-1.5824,-1.5733,-1.5506,-1.5504,-1.5565,-1.5128,-1.5119,-1.5318,-1.4014,-1.3247,-1.2847,-1.2168,-1.1505,-1.1042,-1.1151,-1.1194,-1.1194,-1.1194,-1.1194,-1.1194,-1.1194,-1.1194,-1.1194,-1.1194,-1.1194,-1.1194,-1.1194,-1.1194,-1.1194,-1.1194,-1.1194,-1.1194,-1.1194,-1.1194,-1.1194,-1.1194,-1.1194,-1.1194,-1.1194,-1.1194,-1.1096,-1.0609,-1.0216,-0.9723,-0.8825,-0.8425,-0.8028,-0.7531,-0.7531,-0.7531,-0.7531,-0.7531,-0.7531,-0.7531,-0.7531,-0.7531,-0.7531,-0.7132,-0.6933,-0.6933,-0.6933,-0.6836,-0.6437,-0.6437,-0.6437,-0.6437,-0.6437,-0.6437,-0.6437,-0.6437,-0.6437,-0.6437,-0.6437,-0.6437,-1.0038,-1.0038,-1.0038,-1.0038,0.0,-1.0038,-1.0125,-1.012,0.0,0.0,0.0,0.0,0.0,-1.2595,-1.362,-1.513,-1.6139,-1.673,-1.673,-1.673,-1.673,-1.673,-1.673,-1.673,-1.673,-1.673,-1.673,-1.673,-1.673,-1.673,-1.673,-1.673,-1.6656,-1.6648,-1.6476,-1.6237,-1.5997,-1.5824,-1.5658,-1.5658,-1.5506,-1.5431,-1.5347,-1.4741,-1.4436,-1.4389,-1.3492,-1.275,-1.1957,-1.2019,-1.1561,-1.0834,-1.099,-1.108,-1.1132,-1.1179,-1.1194,-1.1194,-1.1194,-1.1194,-1.1194,-1.1194,-1.1194,-1.1194,-1.1194,-1.1194,-1.1194,-1.1194,-1.1096,-1.0998,-1.1194,-1.1194,-1.1194,-1.1194,-1.11,-1.09,-1.09,-1.0801,-1.0502,-0.9817,-0.9521,-0.9023,-0.7829,-0.7431,-0.7132,-0.6534,-0.6437,-0.6437,-0.6437,-0.6437,-0.6437,-0.6437,-0.6437,-0.6437,-0.6437,-0.6437,-0.6437,-0.6437,-0.6437,-0.6437,-0.6437,-0.6437,-0.6437,-0.6437,-0.6437,-0.6437,-0.6437,-0.6437,-0.6437,-0.6437,-0.6437,-0.6437,-1.0038,-1.0038,-1.0038,-1.0038,-1.0038,0.0,-1.0463,-1.0549,0.0,-1.1149,0.0,0.0,-1.2784,-1.43,-1.5733,-1.6484,-1.6648,-1.673,-1.673,-1.673,-1.673,-1.673,-1.673,-1.673,-1.673,-1.673,-1.673,-1.673,-1.673,-1.673,-1.673,-1.673,-1.6648,-1.6394,-1.6394,-1.6147,-1.5733,-1.5733,-1.5575,-1.5431,-1.5431,-1.5431,-1.5431,-1.5347,-1.4846,-1.4102,-1.333,-1.2474,-1.162,-1.0963,-1.0686,-1.0598,-1.0612,-1.074,-1.0938,-1.1127,-1.1194,-1.1194,-1.1194,-1.1194,-1.1194,-1.1194,-1.1194,-1.1194,-1.1194,-1.1194,-1.1194,-1.1194,-1.0703,-1.0216,-1.0998,-1.1194,-1.1194,-1.1194,-1.0605,-1.0117,-1.0117,-0.9521,-0.8924,-0.8924,-0.8326,-0.773,-0.763,-0.6933,-0.6437,-0.6437,-0.6437,-0.6437,-0.6437,-0.6437,-0.6437,-0.6437,-0.6437,-0.6437,-0.6437,-0.6437,-0.6437,-0.6437,-0.6437,-0.6437,-0.6437,-0.6437,-0.6437,-0.6437,-0.6437,-0.6437,-0.6437,-0.6437,-0.6437,-0.6437,-0.6437,-0.6437,-1.0038,-1.0207,-1.0294,-1.0038,-1.0381,0.0,0.0,-1.0809,-1.1241,-1.1837,-1.2357,-1.3124,-1.4468,-1.556,-1.6402,-1.6656,-1.673,-1.673,-1.673,-1.673,-1.6651,-1.6428,-1.6404,-1.6317,-1.6103,-1.6079,-1.6079,-1.6079,-1.6277,-1.6404,-1.6404,-1.6448,-1.6476,-1.6394,-1.6147,-1.5899,-1.5733,-1.5582,-1.5506,-1.5431,-1.5431,-1.5431,-1.5347,-1.4824,-1.4398,-1.4062,-1.2537,-1.1717,-1.1385,-1.0651,-1.0386,-1.04,-1.0523,-1.0622,-1.0707,-1.0778,-1.0811,-1.0811,-1.0811,-1.0801,-1.0817,-1.0913,-1.0997,-1.0998,-1.1194,-1.0806,-1.0413,-1.0413,-0.9616,-0.9019,-1.0113,-1.0113,-0.9715,-0.9715,-0.9517,-0.9221,-0.9221,-0.9023,-0.8623,-0.8127,-0.7829,-0.7431,-0.6933,-0.6637,-0.6437,-0.6437,-0.6437,-0.6437,-0.6437,-0.6437,-0.6437,-0.6437,-0.6437,-0.6437,-0.6437,-0.6437,-0.6437,-0.6437,-0.6437,-0.6437,-0.6437,-0.6437,-0.6437,-0.6437,-0.6437,-0.6437,-0.6437,-0.6437,-0.6437,-0.6437,-0.6437,-0.6437,-1.0641,-1.0722,-1.0722,0.0,0.0,0.0,-1.1408,-1.1585,-1.2015,-1.2613,-1.3294,-1.4307,-1.5733,-1.6402,-1.673,-1.673,-1.673,-1.673,-1.673,-1.6635,-1.6476,-1.6238,-1.6111,-1.5944,-1.5697,-1.5674,-1.5674,-1.5674,-1.5904,-1.6087,-1.6126,-1.6194,-1.6203,-1.6147,-1.5899,-1.565,-1.5575,-1.5506,-1.5431,-1.5431,-1.5431,-1.5431,-1.5347,-1.4482,-1.3971,-1.3542,-1.2003,-1.1154,-1.0824,-1.0372,-1.0173,-1.0192,-1.04,-1.0475,-1.0393,-1.0459,-1.0389,-1.0389,-1.0389,-1.0393,-1.0324,-1.0513,-1.051,-1.0518,-1.0711,-1.0171,-0.9535,-0.9535,-0.8481,-0.7624,-0.852,-0.8623,-0.8623,-0.8726,-0.8623,-0.8425,-0.8425,-0.8226,-0.7928,-0.7332,-0.7232,-0.7033,-0.6534,-0.6437,-0.6437,-0.6437,-0.6437,-0.6437,-0.6437,-0.6437,-0.6437,-0.6437,-0.6437,-0.6437,-0.6437,-0.6437,-0.6437,-0.6437,-0.6437,-0.6437,-0.6437,-0.6437,-0.6437,-0.6437,-0.6437,-0.6437,-0.6437,-0.6437,-0.6437,-0.6437,-0.6437,-0.6437,-1.2015,-1.1666,-1.1327,0.0,0.0,0.0,-1.296,-1.3045,-1.313,-1.3646,-1.4817,-1.5899,-1.6566,-1.673,-1.673,-1.673,-1.673,-1.673,-1.673,-1.6428,-1.6206,-1.6198,-1.5888,-1.5674,-1.5666,-1.5666,-1.5666,-1.5666,-1.5674,-1.5755,-1.588,-1.5903,-1.5817,-1.5718,-1.5733,-1.5575,-1.5431,-1.5431,-1.5431,-1.5431,-1.5431,-1.5431,-1.5347,-1.4482,-1.362,-1.2674,-1.1746,-1.0809,-1.0038,-1.0038,-1.0038,-1.0062,-1.0187,-1.0092,-0.9935,-1.0127,-1.0107,-0.9926,-0.9926,-0.9926,-0.993,-0.993,-0.9837,-0.9837,-0.9837,-0.9206,-0.8472,-0.8472,-0.7315,-0.6027,-0.6029,-0.6924,-0.8124,-0.8623,-0.8127,-0.7531,-0.7531,-0.6933,-0.6437,-0.6437,-0.6437,-0.6437,-0.6437,-0.6437,-0.6437,-0.6437,-0.6437,-0.6437,-0.6437,-0.6437,-0.6437,-0.6437,-0.6437,-0.6437,-0.6437,-0.6437,-0.6437,-0.6437,-0.6437,-0.6437,-0.6437,-0.6437,-0.6437,-0.6437,-0.6437,-0.6437,-0.6437,-0.6437,-0.6437,-0.6437,-0.6437,-0.6437,-1.2936,-1.2693,0.0,-1.21,0.0,0.0,0.0,-1.3633,0.0,0.0,-1.5816,-1.6484,-1.6648,-1.673,-1.673,-1.673,-1.673,-1.673,-1.673,-1.6428,-1.6111,-1.5864,-1.5539,-1.5229,-1.4975,-1.4951,-1.4951,-1.4951,-1.5032,-1.5145,-1.5179,-1.5403,-1.5461,-1.539,-1.5464,-1.5423,-1.5431,-1.5431,-1.5431,-1.5431,-1.5431,-1.5082,-1.4482,-1.4223,-1.362,-1.2674,-1.1746,-1.1154,-1.0809,-1.0033,-0.9689,-0.9694,-0.9587,-0.9522,-0.9442,-0.9584,-0.9518,-0.9522,-0.9522,-0.9427,-0.9353,-0.8794,-0.8602,-0.852,-0.8041,-0.7224,-0.6611,-0.6705,-0.5591,-0.4654,-0.5016,-0.5131,-0.5331,-0.5832,-0.5832,-0.5634,-0.5634,-0.5734,-0.5834,-0.5834,-0.6134,-0.6437,-0.6437,-0.6437,-0.6437,-0.6437,-0.6437,-0.6437,-0.6437,-0.6437,-0.6437,-0.6437,-0.6437,-0.6437,-0.6437,-0.6437,-0.6437,-0.6437,-0.6437,-0.6437,-0.6437,-0.6437,-0.6437,-0.6437,-0.6437,-0.6437,-0.6437,-0.6437,-0.6437,-0.6437,-0.6437,-0.6437,-1.4119,-1.388,0.0,-1.3288,-1.3886,-1.4482,-1.4468,0.0,0.0,-1.5989,-1.6402,-1.673,-1.673,-1.673,-1.673,-1.673,-1.673,-1.6683,-1.6547,-1.6222,-1.5864,-1.5523,-1.5181,-1.4879,-1.4593,-1.4569,-1.4569,-1.4497,-1.4621,-1.4661,-1.4651,-1.4811,-1.4986,-1.5167,-1.5212,-1.5299,-1.5431,-1.5431,-1.5431,-1.5431,-1.5082,-1.4398,-1.3535,-1.3535,-1.3021,-1.2083,-1.1063,-1.0636,-1.0549,-0.9777,-0.9519,-0.9432,-0.9345,-0.9262,-0.9174,-0.9174,-0.9087,-0.8999,-0.8999,-0.8714,-0.8259,-0.7803,-0.7416,-0.7034,-0.6661,-0.5866,-0.5263,-0.5329,-0.4448,-0.3636,-0.4076,-0.391,-0.3833,-0.4634,-0.4834,-0.4834,-0.4834,-0.5035,-0.5236,-0.5236,-0.5536,-0.5834,-0.6034,-0.5934,-0.5934,-0.6337,-0.6437,-0.6437,-0.6437,-0.6437,-0.6437,-0.6437,-0.6437,-0.6437,-0.6437,-0.6437,-0.6437,-0.6437,-0.6437,-0.6437,-0.6437,-0.6437,-0.6437,-0.6437,-0.6437,-0.6437,-0.6437,-0.6437,-0.6437,-0.6437,-0.6437,-0.6437,-1.556,-1.5151,-1.4817,-1.4817,-1.5235,-1.5899,-1.6566,-1.6237,-1.5982,-1.6566,-1.673,-1.673,-1.673,-1.673,-1.673,-1.673,-1.673,-1.6611,-1.6254,-1.5904,-1.5554,-1.5229,-1.4863,-1.4569,-1.4569,-1.4569,-1.4497,-1.4353,-1.4361,-1.4356,-1.4231,-1.4276,-1.4406,-1.4838,-1.4911,-1.5087,-1.5379,-1.5416,-1.5431,-1.5431,-1.4573,-1.3711,-1.2674,-1.2589,-1.2083,-1.1068,-1.0033,-0.9602,-0.9515,-0.9345,-0.9262,-0.9262,-0.9262,-0.9087,-0.8911,-0.8911,-0.874,-0.8568,-0.8476,-0.7852,-0.7051,-0.6874,-0.6251,-0.5542,-0.5453,-0.4892,-0.4231,-0.424,-0.3698,-0.3125,-0.3136,-0.3181,-0.3423,-0.4433,-0.4634,-0.4634,-0.4634,-0.4734,-0.4734,-0.4734,-0.4734,-0.4935,-0.5436,-0.5135,-0.5135,-0.6137,-0.6337,-0.6337,-0.6337,-0.6337,-0.6437,-0.6437,-0.6437,-0.6437,-0.6437,-0.6437,-0.6437,-0.6437,-0.6437,-0.6437,-0.6437,-0.6437,-0.6437,-0.6437,-0.6437,-0.6437,-0.6437,-0.6437,-0.6437,-0.6437,-0.6437,-0.6437,-1.6402,-1.5982,0.0,-1.5484,-1.5567,-1.5899,-1.6566,-1.6566,-1.6566,-1.6648,-1.673,-1.673,-1.673,-1.673,-1.673,-1.673,-1.673,-1.6611,-1.6254,-1.5904,-1.5554,-1.5229,-1.4863,-1.4569,-1.4425,-1.4425,-1.4353,-1.4201,-1.4,-1.3893,-1.3902,-1.4,-1.4124,-1.4179,-1.4677,-1.4896,-1.505,-1.5299,-1.5431,-1.5431,-1.5173,-1.4307,-1.2674,-1.1918,-1.0977,-0.9946,-0.9689,-0.9519,-0.9345,-0.9087,-0.8999,-0.8999,-0.8828,-0.8744,-0.8656,-0.8656,-0.8656,-0.848,-0.7676,-0.7319,-0.6874,-0.5366,-0.4743,-0.4476,-0.3765,-0.3329,-0.3262,-0.3312,-0.3163,-0.3019,-0.3115,-0.315,-0.317,-0.3519,-0.3531,-0.3531,-0.3531,-0.3833,-0.4133,-0.4133,-0.4535,-0.4834,-0.4935,-0.4834,-0.4834,-0.5135,-0.5534,-0.5737,-0.5737,-0.6134,-0.6437,-0.6437,-0.6437,-0.6437,-0.6437,-0.6437,-0.6437,-0.6437,-0.6437,-0.6437,-0.6437,-0.6437,-0.6437,-0.6437,-0.6437,-0.6437,-0.6437,-0.6437,-0.6437,-0.6437,-0.6437,-0.6437,-1.673,0.0,0.0,-1.6154,0.0,-1.6237,-1.6648,-1.673,-1.673,-1.673,-1.673,-1.673,-1.673,-1.673,-1.673,-1.673,-1.673,-1.6611,-1.6254,-1.6215,-1.6086,-1.5799,-1.5283,-1.4982,-1.4911,-1.4489,-1.4137,-1.4,-1.3863,-1.379,-1.3645,-1.3734,-1.3821,-1.3975,-1.4304,-1.456,-1.4714,-1.5035,-1.5196,-1.5196,-1.4928,-1.3795,-1.1832,-1.089,-1.012,-0.9602,-0.9345,-0.9174,-0.9087,-0.8828,-0.874,-0.874,-0.8656,-0.8568,-0.8568,-0.8568,-0.8568,-0.8568,-0.8032,-0.7231,-0.6251,-0.5275,-0.4387,-0.3499,-0.3053,-0.2875,-0.288,-0.291,-0.2937,-0.2973,-0.3037,-0.3095,-0.3147,-0.318,-0.321,-0.323,-0.323,-0.343,-0.3632,-0.3632,-0.3833,-0.4133,-0.4332,-0.4634,-0.4834,-0.4834,-0.5233,-0.5737,-0.5937,-0.6237,-0.6437,-0.6437,-0.6437,-0.6437,-0.6437,-0.6437,-0.6437,-0.6437,-0.6437,-0.6437,-0.6437,-0.6437,-0.6437,-0.6437,-0.6437,-0.6437,-0.6437,-0.6437,-0.6437,-0.6437,-0.6437,-0.6437,-1.673,0.0,-1.673,-1.673,-1.673,0.0,-1.673,-1.673,-1.673,-1.673,-1.673,-1.673,-1.673,-1.673,-1.673,-1.673,-1.673,-1.6611,-1.6254,-1.6448,-1.6455,-1.6085,-1.5627,-1.5259,-1.5188,-1.4482,-1.3928,-1.379,-1.3725,-1.3645,-1.3499,-1.3492,-1.3623,-1.3887,-1.3953,-1.4114,-1.4384,-1.4619,-1.4809,-1.4867,-1.4088,-1.2857,-1.1149,-1.0033,-0.9515,-0.9428,-0.9082,-0.8911,-0.8823,-0.8656,-0.8568,-0.8568,-0.8568,-0.8568,-0.8568,-0.8568,-0.8568,-0.8568,-0.8208,-0.7051,-0.563,-0.5364,-0.421,-0.2875,-0.2875,-0.2875,-0.2875,-0.2875,-0.2907,-0.2946,-0.2955,-0.3033,-0.311,-0.3121,-0.3162,-0.3204,-0.3226,-0.323,-0.323,-0.323,-0.323,-0.3331,-0.3833,-0.4234,-0.4533,-0.4533,-0.4935,-0.5536,-0.6034,-0.6234,-0.6337,-0.6437,-0.6437,-0.6437,-0.6437,-0.6437,-0.6437,-0.6437,-0.6437,-0.6437,-0.6437,-0.6437,-0.6437,-0.6437,-0.6437,-0.6437,-0.6437,-0.6437,-0.6437,-0.6437,-0.6437,-0.6437,-1.673,0.0,-1.673,0.0,-1.673,-1.673,0.0,0.0,-1.673,-1.673,-1.673,-1.673,-1.673,-1.673,-1.673,-1.673,-1.673,-1.6611,-1.6254,-1.5982,-1.5631,-1.5138,-1.4783,-1.4425,-1.4072,-1.3935,-1.379,-1.3572,-1.3572,-1.3499,-1.3492,-1.3492,-1.3514,-1.3558,-1.3836,-1.4004,-1.4048,-1.4214,-1.4424,-1.4617,-1.3077,-1.226,-1.2072,-0.9941,-0.8999,-0.8999,-0.8911,-0.8823,-0.8656,-0.8568,-0.8568,-0.8568,-0.8568,-0.8568,-0.8568,-0.8568,-0.8568,-0.8388,-0.6697,-0.5897,-0.5453,-0.3765,-0.3142,-0.2875,-0.2875,-0.2875,-0.2875,-0.2875,-0.288,-0.2897,-0.2946,-0.297,-0.2996,-0.3048,-0.3067,-0.3102,-0.3207,-0.323,-0.323,-0.323,-0.323,-0.323,-0.3331,-0.3331,-0.343,-0.343,-0.3833,-0.4435,-0.4935,-0.5434,-0.5934,-0.6337,-0.6437,-0.6437,-0.6437,-0.6437,-0.6437,-0.6437,-0.6437,-0.6437,-0.6437,-0.6437,-0.6437,-0.6437,-0.6437,-0.6437,-0.6437,-0.6437,-0.6437,-0.6437,-0.6437,-0.6437,-1.6894,-1.673,-1.673,0.0,-1.673,-1.673,-1.673,-1.673,-1.673,-1.673,-1.673,-1.673,-1.673,-1.673,-1.673,-1.673,-1.673,-1.6683,-1.6524,-1.6258,-1.6076,-1.5845,-1.5113,-1.4633,-1.4418,-1.3928,-1.3572,-1.3499,-1.3492,-1.3492,-1.3492,-1.3492,-1.3492,-1.3492,-1.3631,-1.3711,-1.3711,-1.3874,-1.3797,-1.3527,-1.2757,-1.1898,-1.1022,-0.9933,-0.9325,-0.8911,-0.874,-0.8652,-0.8568,-0.8568,-0.8568,-0.8568,-0.8568,-0.8568,-0.8568,-0.8568,-0.8212,-0.7676,-0.6786,-0.5808,-0.4743,-0.3942,-0.332,-0.2875,-0.2875,-0.2875,-0.2875,-0.2875,-0.2875,-0.288,-0.2905,-0.2935,-0.2965,-0.2992,-0.3118,-0.3064,-0.3117,-0.3155,-0.3189,-0.3224,-0.323,-0.323,-0.323,-0.323,-0.3331,-0.3632,-0.3833,-0.4334,-0.5135,-0.5436,-0.5834,-0.6337,-0.6437,-0.6437,-0.6437,-0.6437,-0.6437,-0.6437,-0.6437,-0.6437,-0.6437,-0.6437,-0.6437,-0.6437,-0.6437,-0.6437,-0.6437,-0.6437,-0.6437,-0.6437,-0.6437,-0.6437,0.0,0.0,-1.682,-1.6738,-1.673,-1.673,0.0,0.0,-1.673,-1.673,-1.673,-1.673,-1.673,-1.673,-1.673,-1.673,-1.673,-1.6656,-1.6648,-1.6436,-1.6308,-1.6057,-1.5282,-1.472,-1.4561,-1.392,-1.3492,-1.3492,-1.3492,-1.3492,-1.3492,-1.3492,-1.3492,-1.3492,-1.3492,-1.3499,-1.3419,-1.3283,-1.3,-1.2497,-1.2086,-1.1173,-0.9873,-0.9628,-0.9217,-0.8685,-0.8615,-0.8568,-0.8568,-0.8568,-0.8568,-0.8568,-0.8568,-0.8568,-0.8564,-0.83,-0.7764,-0.7051,-0.652,-0.5453,-0.43,-0.4032,-0.3499,-0.2875,-0.2875,-0.2875,-0.2875,-0.2875,-0.2875,-0.2875,-0.2875,-0.2906,-0.2937,-0.2937,-0.2971,-0.3012,-0.3137,-0.3085,-0.3129,-0.3176,-0.3184,-0.3184,-0.3184,-0.3198,-0.3307,-0.3706,-0.382,-0.4234,-0.5233,-0.5436,-0.5634,-0.6337,-0.6437,-0.6437,-0.6437,-0.6437,-0.6437,-0.6437,-0.6439,-0.6442,-0.6437,-0.6439,-0.6439,-0.6437,-0.6437,-0.6437,-0.6437,-0.6437,-0.6437,-0.6437,-0.6437,-0.6437,0.0,-1.7392,0.0,-1.6812,-1.673,-1.673,0.0,0.0,-1.673,-1.673,-1.673,-1.673,-1.673,-1.673,-1.673,-1.673,-1.673,-1.6648,-1.6476,-1.6098,-1.5676,-1.4947,-1.4539,-1.4134,-1.3594,-1.3499,-1.3492,-1.3492,-1.3492,-1.3492,-1.3492,-1.3492,-1.3492,-1.3492,-1.3492,-1.3419,-1.3193,-1.2359,-1.1895,-1.192,-1.0333,-0.9634,-0.9644,-0.8595,-0.8115,-0.8061,-0.8414,-0.8568,-0.8568,-0.8568,-0.8568,-0.8568,-0.8568,-0.8568,-0.848,-0.7496,-0.7139,-0.6874,-0.5097,-0.4389,-0.4121,-0.323,-0.2963,-0.2875,-0.2875,-0.2875,-0.2875,-0.2875,-0.2875,-0.2875,-0.2875,-0.2876,-0.2879,-0.2879,-0.2882,-0.2914,-0.3119,-0.3147,-0.3055,-0.3059,-0.3059,-0.3059,-0.3059,-0.3106,-0.3144,-0.3144,-0.3194,-0.3632,-0.4734,-0.4834,-0.5233,-0.6334,-0.6437,-0.6437,-0.6437,-0.6437,-0.6437,-0.6437,-0.6353,-0.6353,-0.6437,-0.6353,-0.6353,-0.6437,-0.6437,-0.6437,-0.6437,-0.6437,-0.6437,-0.6437,-0.6437,-0.6437,0.0,0.0,0.0,-1.682,-1.673,-1.673,-1.673,-1.673,-1.673,-1.673,-1.673,-1.673,-1.673,-1.673,-1.673,-1.673,-1.6566,-1.6476,-1.6394,-1.5863,-1.5374,-1.4869,-1.4401,-1.3932,-1.3528,-1.3492,-1.3492,-1.3492,-1.3492,-1.3492,-1.3492,-1.3492,-1.3492,-1.3492,-1.3492,-1.3346,-1.3046,-1.256,-1.1771,-1.0633,-1.0028,-0.9296,-0.8484,-0.8091,-0.791,-0.802,-0.8154,-0.828,-0.8398,-0.8519,-0.8568,-0.8568,-0.8568,-0.8208,-0.7584,-0.7228,-0.634,-0.5186,-0.4565,-0.3944,-0.332,-0.3053,-0.2875,-0.2875,-0.2875,-0.2875,-0.2875,-0.2875,-0.2875,-0.2875,-0.2875,-0.2875,-0.2875,-0.2875,-0.2875,-0.2886,-0.2928,-0.2996,-0.3144,-0.3144,-0.3144,-0.2953,-0.2476,-0.2395,-0.2214,-0.1734,-0.1959,-0.238,-0.2771,-0.4005,-0.4742,-0.4734,-0.5749,-0.6361,-0.6361,-0.6361,-0.6361,-0.6361,-0.6369,-0.5756,-0.4427,-0.5653,-0.6369,-0.6361,-0.6361,-0.6353,-0.6437,-0.6437,-0.6437,-0.6437,-0.6437,-0.6437,-1.7635,0.0,0.0,0.0,-1.673,-1.673,-1.673,-1.673,-1.673,-1.673,-1.673,-1.673,-1.673,-1.673,-1.673,-1.673,-1.6566,-1.6394,-1.6319,-1.5799,-1.5248,-1.4736,-1.4344,-1.3975,-1.3536,-1.3492,-1.3492,-1.3492,-1.3492,-1.3492,-1.3492,-1.3492,-1.3492,-1.3419,-1.3346,-1.3119,-1.282,-1.207,-1.1093,-0.9895,-0.9367,-0.8611,-0.7667,-0.7667,-0.7728,-0.7837,-0.7902,-0.8032,-0.8207,-0.8329,-0.8381,-0.8385,-0.8099,-0.7592,-0.6981,-0.6413,-0.5364,-0.43,-0.3942,-0.3409,-0.2875,-0.2875,-0.2875,-0.2875,-0.2875,-0.2875,-0.2875,-0.2875,-0.2875,-0.2875,-0.2875,-0.2875,-0.2875,-0.2875,-0.2875,-0.2875,-0.2875,-0.2935,-0.2991,-0.2709,-0.2709,-0.2428,-0.168,-0.1595,-0.1415,-0.0944,-0.1152,-0.1555,-0.1942,-0.3261,-0.4002,-0.3595,-0.4626,-0.5354,-0.5354,-0.5354,-0.5354,-0.5354,-0.5969,-0.5459,-0.3324,-0.3833,-0.4543,-0.5354,-0.5354,-0.5345,-0.5331,-0.6039,-0.6445,-0.6445,-0.6445,-0.6448,0.0,0.0,0.0,-1.6894,-1.673,-1.673,-1.673,0.0,-1.673,-1.673,-1.673,-1.673,-1.673,-1.673,-1.673,-1.6648,-1.6484,-1.6319,-1.617,-1.5824,-1.542,-1.4638,-1.4472,-1.4216,-1.3572,-1.3499,-1.3492,-1.3492,-1.3492,-1.3492,-1.3492,-1.3492,-1.3419,-1.3193,-1.2973,-1.2746,-1.2599,-1.0795,-0.9895,-0.982,-0.8313,-0.7557,-0.7484,-0.7484,-0.7484,-0.7492,-0.7671,-0.7845,-0.8,-0.8008,-0.8012,-0.7946,-0.7186,-0.6905,-0.6665,-0.4963,-0.4291,-0.4113,-0.3226,-0.2869,-0.2871,-0.2871,-0.2873,-0.2875,-0.2875,-0.2875,-0.2875,-0.2875,-0.2875,-0.2875,-0.2875,-0.2875,-0.2875,-0.2875,-0.2875,-0.2875,-0.2873,-0.2873,-0.2694,-0.1974,-0.1794,-0.1525,-0.0807,-0.0729,-0.0739,-0.0739,-0.0752,-0.1238,-0.2379,-0.2615,-0.2744,-0.3036,-0.3086,-0.3122,-0.3123,-0.3123,-0.3123,-0.3123,-0.5056,-0.526,-0.3224,-0.1108,-0.1007,-0.3022,-0.3123,-0.3225,-0.3225,-0.5247,-0.6361,-0.6364,-0.6361,-0.6266,-1.7635,0.0,0.0,0.0,0.0,0.0,-1.673,0.0,-1.673,-1.673,-1.673,-1.673,-1.673,-1.673,-1.6648,-1.6476,-1.6319,-1.617,-1.6087,-1.5756,-1.527,-1.486,-1.4611,-1.4304,-1.3887,-1.3631,-1.3492,-1.3492,-1.3492,-1.3492,-1.3492,-1.3492,-1.3492,-1.3419,-1.2526,-1.2003,-1.1929,-1.0571,-0.9599,-0.8998,-0.8546,-0.8093,-0.7484,-0.7484,-0.7484,-0.7484,-0.7537,-0.7586,-0.765,-0.7906,-0.8012,-0.802,-0.7733,-0.725,-0.6582,-0.5526,-0.461,-0.3931,-0.3083,-0.2771,-0.2808,-0.2808,-0.2838,-0.2875,-0.2875,-0.2875,-0.2875,-0.2875,-0.2875,-0.2875,-0.2875,-0.2875,-0.2875,-0.2875,-0.2875,-0.2784,-0.2243,-0.2064,-0.2064,-0.1884,-0.1345,-0.0807,-0.0,0.009,0.0271,0.0724,0.0737,0.0653,0.0373,-0.0285,-0.0483,0.0196,-0.0394,-0.0895,-0.0907,-0.0908,-0.0908,-0.0908,-0.1414,-0.1515,-0.0908,-0.0303,-0.0303,-0.0908,-0.2424,-0.3233,-0.3233,-0.3833,-0.4843,-0.6372,-0.4843,-0.4133,-1.731,-1.7229,-1.731,-1.682,0.0,0.0,-1.673,-1.673,-1.673,-1.673,-1.673,-1.673,-1.673,-1.673,-1.6648,-1.6394,-1.6245,-1.6087,-1.5914,-1.559,-1.5306,-1.4903,-1.4662,-1.434,-1.4011,-1.3689,-1.3492,-1.3492,-1.3492,-1.3492,-1.3492,-1.3492,-1.3273,-1.2753,-1.2077,-1.1477,-1.095,-0.9895,-0.915,-0.8703,-0.8322,-0.794,-0.7484,-0.7484,-0.7484,-0.7484,-0.7484,-0.7484,-0.75,-0.7707,-0.7793,-0.7717,-0.706,-0.643,-0.5864,-0.4675,-0.3942,-0.3359,-0.2859,-0.2715,-0.2749,-0.2775,-0.2807,-0.2841,-0.2867,-0.2875,-0.2875,-0.2875,-0.2875,-0.2875,-0.2875,-0.2875,-0.2875,-0.2875,-0.2875,-0.2694,-0.1974,-0.1525,-0.1256,-0.0987,-0.0538,-0.0,0.0718,0.0807,0.0987,0.1345,0.136,0.137,0.1187,0.0651,0.0473,0.0861,0.0389,-0.0,-0.0,-0.0,-0.0,-0.0,-0.0,-0.0,-0.0,-0.0,-0.0,-0.0,-0.1212,-0.1819,-0.1819,-0.1815,-0.3429,-0.6382,-0.5155,-0.3531,-1.6894,-1.6984,-1.7229,-1.682,-1.673,0.0,-1.673,-1.673,-1.673,-1.673,-1.673,-1.673,-1.673,-1.673,-1.6648,-1.6394,-1.6245,-1.5997,-1.5733,-1.5499,-1.5321,-1.4947,-1.4684,-1.4355,-1.4062,-1.3704,-1.3492,-1.3492,-1.3492,-1.3492,-1.3346,-1.3346,-1.282,-1.1626,-1.1477,-1.0875,-0.982,-0.8998,-0.8546,-0.8551,-0.7863,-0.7484,-0.7484,-0.7484,-0.7484,-0.7484,-0.7484,-0.7484,-0.7484,-0.7407,-0.7326,-0.7188,-0.5756,-0.5165,-0.4934,-0.3393,-0.2838,-0.2838,-0.2672,-0.2676,-0.2691,-0.2745,-0.2773,-0.2793,-0.2847,-0.2868,-0.2875,-0.2875,-0.2875,-0.2875,-0.2875,-0.2875,-0.2875,-0.2875,-0.2875,-0.2694,-0.1884,-0.1166,-0.0448,0.0359,0.0538,0.0718,0.1256,0.1436,0.1436,0.1436,0.1436,0.1256,0.0807,0.0729,0.0461,-0.0,-0.0,-0.0,-0.0,-0.0,-0.0,-0.0,-0.0,-0.0,-0.0,-0.0,-0.0,-0.0,-0.0,-0.0,-0.0,-0.0,-0.1917,-0.5675,-0.5675,-0.3639,-1.6812,-1.6738,-1.6812,-1.673,-1.673,0.0,-1.673,-1.673,-1.673,-1.673,-1.673,-1.673,-1.673,-1.673,-1.6648,-1.6394,-1.6245,-1.5997,-1.5733,-1.5499,-1.5409,-1.5343,-1.4823,-1.4443,-1.4377,-1.3843,-1.3492,-1.3492,-1.3492,-1.3193,-1.2599,-1.2526,-1.207,-1.1013,-1.0196,-0.9599,-0.915,-0.8241,-0.771,-0.771,-0.7557,-0.7484,-0.7484,-0.7484,-0.7484,-0.7484,-0.7484,-0.7484,-0.7484,-0.6707,-0.6472,-0.6398,-0.6119,-0.5584,-0.4886,-0.3959,-0.357,-0.3491,-0.2783,-0.2578,-0.2621,-0.2632,-0.2703,-0.2785,-0.2797,-0.2835,-0.2875,-0.2875,-0.2875,-0.2875,-0.2875,-0.2875,-0.2875,-0.2875,-0.2875,-0.2513,-0.1166,-0.0807,-0.0359,0.0987,0.1166,0.1256,0.1346,0.1436,0.1436,0.1436,0.1436,0.1345,0.1256,0.0631,0.0091,-0.0,-0.0,-0.0,-0.0,-0.0,-0.0,-0.0,-0.0,-0.0,-0.0,-0.0,-0.0,-0.0,-0.0,-0.0,-0.0,-0.0,-0.0404,-0.1212,-0.1212,-0.0808,-1.682,-1.673,-1.673,-1.673,-1.673,0.0,0.0,-1.673,-1.673,-1.673,-1.673,-1.673,-1.673,-1.673,-1.6566,-1.6327,-1.617,-1.6004,-1.5582,-1.5423,-1.5431,-1.5431,-1.486,-1.4472,-1.4472,-1.3879,-1.3492,-1.3492,-1.3119,-1.2753,-1.2298,-1.1929,-1.1174,-1.0115,-0.9593,-0.8998,-0.8241,-0.7787,-0.7484,-0.7484,-0.7484,-0.7484,-0.7484,-0.7484,-0.7484,-0.7484,-0.7484,-0.7484,-0.7403,-0.6549,-0.5931,-0.5544,-0.5154,-0.4763,-0.43,-0.3443,-0.3132,-0.3054,-0.2666,-0.253,-0.2561,-0.2591,-0.2643,-0.2704,-0.2764,-0.2826,-0.2875,-0.2875,-0.2875,-0.2875,-0.2875,-0.2875,-0.2784,-0.2424,-0.2334,-0.1974,-0.0448,-0.0179,0.0179,0.1166,0.1436,0.1436,0.1436,0.1436,0.1436,0.1436,0.1436,0.1436,0.1436,0.0987,0.0541,0.0091,-0.0,-0.0,-0.0,-0.0,-0.0,-0.0,-0.0,-0.0,-0.0,-0.0,-0.0,-0.0,-0.0,-0.0,-0.0,-0.0,-0.0,-0.0,-0.0,-0.0,-1.682,-1.673,-1.673,-1.673,-1.673,-1.673,0.0,0.0,0.0,-1.673,-1.673,-1.673,-1.673,-1.673,-1.655,-1.616,-1.6041,-1.5899,-1.5426,-1.5387,-1.5431,-1.5431,-1.486,-1.4472,-1.4472,-1.3879,-1.3492,-1.3492,-1.2746,-1.2224,-1.2077,-1.1335,-1.0357,-0.915,-0.9074,-0.8546,-0.7561,-0.7484,-0.7484,-0.7484,-0.7484,-0.7484,-0.7484,-0.7484,-0.7484,-0.7484,-0.7484,-0.7484,-0.7403,-0.6395,-0.5622,-0.4927,-0.4142,-0.3677,-0.3443,-0.2743,-0.2511,-0.2511,-0.2511,-0.2511,-0.2519,-0.2568,-0.2591,-0.2624,-0.2747,-0.2818,-0.2858,-0.2871,-0.2875,-0.2875,-0.2875,-0.2784,-0.2513,-0.1974,-0.1705,-0.1256,0.009,0.0359,0.0628,0.1256,0.1436,0.1436,0.1436,0.1436,0.1436,0.1436,0.1436,0.1436,0.1436,0.1256,0.0808,0.009,-0.0,-0.0,-0.0,-0.0,-0.0,-0.0,-0.0,-0.0,-0.0,-0.0,-0.0,-0.0,-0.0,-0.0,-0.0,-0.0,-0.0,-0.0,-0.0,-0.0,-1.673,-1.673,-1.673,-1.673,-1.673,-1.673,-1.673,0.0,-1.673,-1.673,0.0,-1.673,-1.673,0.0,0.0,-1.5989,-1.6044,-1.5898,-1.5352,-1.5323,-1.5431,-1.5431,-1.486,-1.4472,-1.4472,-1.3879,-1.3492,-1.3492,-1.2746,-1.2003,-1.126,-1.0443,-0.9539,-0.8556,-0.8327,-0.8102,-0.7804,-0.7565,-0.7484,-0.7484,-0.7484,-0.7484,-0.7484,-0.7484,-0.7484,-0.7484,-0.7484,-0.7484,-0.7403,-0.5777,-0.5082,-0.4927,-0.4142,-0.3365,-0.2666,-0.251,-0.2511,-0.2511,-0.2511,-0.2511,-0.2512,-0.2519,-0.2557,-0.2624,-0.2747,-0.2788,-0.2805,-0.2858,-0.2875,-0.2875,-0.2875,-0.2424,-0.1885,-0.1794,-0.1345,-0.0628,0.0179,0.0359,0.0628,0.1256,0.1436,0.1436,0.1436,0.1436,0.1436,0.1436,0.1436,0.1436,0.1436,0.0718,0.009,-0.0,-0.0,-0.0,-0.0,-0.0,-0.0,-0.0,-0.0,-0.0,-0.0,-0.0,-0.0,-0.0,-0.0,-0.0,-0.0,-0.0,-0.0,-0.0,-0.0,-0.0,-1.6738,-1.673,-1.673,-1.673,-1.673,-1.673,-1.673,-1.673,-1.673,-1.673,0.0,0.0,0.0,0.0,0.0,0.0,-1.607,-1.5959,-1.5405,-1.5343,-1.5357,-1.5167,-1.475,-1.4318,-1.3945,-1.366,-1.3492,-1.3492,-1.2298,-1.1484,-1.1111,-0.976,-0.8784,-0.8255,-0.803,-0.7799,-0.7642,-0.7561,-0.7484,-0.7484,-0.7484,-0.7484,-0.7484,-0.7484,-0.7484,-0.748,-0.6938,-0.6784,-0.6626,-0.4996,-0.43,-0.4222,-0.3366,-0.2821,-0.2511,-0.2511,-0.2511,-0.2511,-0.2511,-0.2511,-0.2511,-0.2511,-0.2552,-0.261,-0.2662,-0.2702,-0.2744,-0.2804,-0.2822,-0.274,-0.2326,-0.2064,-0.1615,-0.0718,-0.0269,0.009,0.0807,0.0987,0.1076,0.1345,0.1436,0.1436,0.1436,0.1436,0.1345,0.1076,0.0987,0.0897,0.0628,0.0269,-0.0,-0.0,-0.0,-0.0,-0.0,-0.0,-0.0,-0.0,-0.0,-0.0,-0.0,-0.0,-0.0,-0.0,-0.0,-0.0,-0.0,-0.0,-0.0,-0.0,-0.0,-0.0,-1.6812,-1.673,-1.673,-1.673,-1.673,-1.673,-1.673,-1.673,-1.673,-1.673,-1.673,0.0,0.0,0.0,-1.6542,-1.6047,0.0,-1.5891,-1.5306,-1.5292,-1.5204,-1.4889,-1.4582,-1.4037,-1.325,-1.3193,-1.3046,-1.2893,-1.1558,-1.0738,-1.0738,-0.9306,-0.8403,-0.8178,-0.7953,-0.7799,-0.7565,-0.7561,-0.7484,-0.7484,-0.7484,-0.7484,-0.7484,-0.7484,-0.7403,-0.7096,-0.6475,-0.6086,-0.5777,-0.4375,-0.383,-0.3675,-0.2821,-0.2511,-0.2511,-0.2511,-0.2511,-0.2511,-0.2511,-0.2511,-0.2511,-0.2511,-0.2541,-0.2579,-0.2597,-0.2632,-0.268,-0.2741,-0.2672,-0.2424,-0.1858,-0.1511,-0.098,0.0179,0.0538,0.0807,0.1256,0.1436,0.1436,0.1436,0.1436,0.1436,0.1436,0.1436,0.1256,0.0987,0.0718,0.0448,0.0359,0.018,-0.0,-0.0,-0.0,-0.0,-0.0,-0.0,-0.0,-0.0,-0.0,-0.0,-0.0,-0.0,-0.0,-0.0,-0.0,-0.0,-0.0,-0.0,-0.0,-0.0,-0.0,-0.0,-1.673,-1.673,-1.673,-1.673,-1.673,-1.673,-1.673,-1.673,-1.673,-1.673,-1.673,-1.673,-1.673,-1.673,-1.6464,-1.5725,-1.5873,0.0,0.0,-1.4962,-1.4874,-1.486,-1.4384,-1.3558,-1.2479,-1.2305,-1.2003,-1.126,-1.0443,-0.9922,-0.9922,-0.916,-0.8627,-0.8403,-0.8178,-0.803,-0.7804,-0.7565,-0.7484,-0.7484,-0.7484,-0.7484,-0.7484,-0.7484,-0.7015,-0.624,-0.624,-0.5777,-0.5002,-0.4144,-0.383,-0.3675,-0.2821,-0.2511,-0.2511,-0.2511,-0.2511,-0.2511,-0.2511,-0.2511,-0.2511,-0.2511,-0.2512,-0.2525,-0.2583,-0.2602,-0.2617,-0.2679,-0.2273,-0.1691,-0.1729,-0.0782,0.0262,0.0357,0.0897,0.1345,0.1436,0.1436,0.1436,0.1436,0.1436,0.1436,0.1436,0.1436,0.1436,0.1346,0.0628,0.0359,0.1256,0.0539,-0.0,-0.0,-0.0,-0.0,-0.0,-0.0,-0.0,-0.0,-0.0,-0.0,-0.0,-0.0,-0.0,-0.0,-0.0,-0.0,-0.0,-0.0,-0.0,-0.0,-0.0,-0.0,-1.673,-1.673,-1.673,-1.673,-1.673,-1.673,-1.673,-1.673,-1.673,-1.673,-1.673,-1.673,-1.673,-1.6566,-1.6363,-1.6016,-1.5838,-1.5711,0.0,-1.4896,-1.4388,-1.362,-1.3615,-1.3314,-1.2385,-1.2305,-1.2003,-1.1186,-1.0368,-0.9922,-0.9922,-0.8856,-0.825,-0.8178,-0.7868,-0.7642,-0.7565,-0.7561,-0.7484,-0.7484,-0.7484,-0.7484,-0.7484,-0.7484,-0.7015,-0.6163,-0.5622,-0.4921,-0.4144,-0.3288,-0.2978,-0.2899,-0.2588,-0.2511,-0.2511,-0.2511,-0.2511,-0.2511,-0.2511,-0.2511,-0.2511,-0.2511,-0.2511,-0.2515,-0.2535,-0.2223,-0.1914,-0.2041,-0.1561,-0.0908,-0.0507,-0.0,0.0435,0.0964,0.1243,0.1436,0.1436,0.1436,0.1436,0.1436,0.1436,0.1436,0.1436,0.1436,0.1436,0.1436,0.1166,0.0807,0.0538,0.0718,0.0718,0.009,-0.0,-0.0,-0.0,-0.0,-0.0,-0.0,-0.0,-0.0,-0.0,-0.0,-0.0,-0.0,-0.0,-0.0,-0.0,-0.0,-0.0,-0.0,-0.0,-0.0,-1.673,-1.673,-1.673,-1.673,-1.673,-1.673,-1.673,-1.673,-1.673,-1.673,-1.6648,-1.6566,-1.6566,-1.6402,-1.6237,-1.5997,-1.5824,-1.5576,0.0,-1.4633,-1.3935,-1.2777,-1.3174,-1.2973,-1.1558,-1.1706,-1.1403,-1.0357,-0.976,-0.9463,-0.9463,-0.8632,-0.8178,-0.8102,-0.7795,-0.7561,-0.7484,-0.7484,-0.7484,-0.7484,-0.7484,-0.7484,-0.7484,-0.7173,-0.6549,-0.5699,-0.4924,-0.4066,-0.3288,-0.2743,-0.2511,-0.2511,-0.2511,-0.2511,-0.2511,-0.2511,-0.2511,-0.2511,-0.2511,-0.2511,-0.2511,-0.2511,-0.2511,-0.2511,-0.2511,-0.2117,-0.1654,-0.1936,-0.1211,-0.0242,0.0083,0.0425,0.0775,0.13,0.1413,0.1436,0.1436,0.1436,0.1436,0.1436,0.1436,0.1436,0.1436,0.1436,0.1436,0.1436,0.1436,0.1166,0.0538,0.0718,0.0628,0.009,-0.0,-0.0,-0.0,-0.0,-0.0,-0.0,-0.0,-0.0,-0.0,-0.0,-0.0,-0.0,-0.0,-0.0,-0.0,-0.0,-0.0,-0.0,-0.0,-0.0]},{"header":{"parameterUnit":"m.s-1","parameterCategory":1,"la1":30.6,"la2":29.2853,"lo1":-89.7004,"lo2":-87.6739,"dy":0.0162,"dx":0.0183,"nx":112,"ny":82,"refTime":"2023-07-03T06:00:00:Z","depth":0,"parameterNumber":3,"parameterNumberName":"V-component_of_WINDS"},"data":[0.0,0.0,0.0,0.0,0.0,0.0,0.0,0.0,0.0,0.0,0.0,0.0,0.0,0.0,0.0,0.0,0.0,0.0,0.0,0.0,0.0,0.0,0.0,0.0,0.0,0.0,0.0,0.0,0.0,0.0,0.0,0.0,0.0,0.0,0.0,0.0,0.0,0.0,0.0,0.0,0.0,0.0,0.0,0.0,0.0,0.0,0.0,0.0,0.0,0.0,0.0,0.0,0.0,0.0,0.0,0.0,0.0,0.0,0.0,0.0,0.0,0.0,0.0,0.0,0.0,0.0,0.0,0.0,0.0,0.0,0.0,0.0,0.0,0.0,0.0,0.0,0.0,0.0,0.0,0.0,0.0,0.0,0.0,0.0,0.0,0.0,0.0,0.0,0.0,0.0,-3.9332,-3.8557,-3.8423,-3.827,-3.8001,-3.9115,-3.9884,-4.007,0.0,0.0,0.0,0.0,0.0,0.0,0.0,0.0,0.0,0.0,0.0,0.0,0.0,0.0,0.0,0.0,0.0,0.0,0.0,0.0,0.0,0.0,0.0,0.0,0.0,0.0,0.0,0.0,0.0,0.0,0.0,0.0,0.0,0.0,0.0,0.0,0.0,0.0,0.0,0.0,0.0,0.0,0.0,0.0,0.0,0.0,0.0,0.0,0.0,0.0,0.0,0.0,0.0,0.0,0.0,0.0,0.0,0.0,0.0,0.0,0.0,0.0,0.0,0.0,0.0,0.0,0.0,0.0,0.0,0.0,0.0,0.0,0.0,0.0,0.0,0.0,0.0,0.0,0.0,0.0,0.0,0.0,0.0,0.0,0.0,0.0,0.0,0.0,0.0,0.0,0.0,0.0,0.0,0.0,0.0,0.0,0.0,0.0,0.0,0.0,0.0,0.0,0.0,0.0,-3.9332,-3.8557,-3.8662,-3.8567,-3.827,-3.8882,-3.9523,-4.007,0.0,0.0,0.0,0.0,0.0,0.0,0.0,0.0,0.0,0.0,0.0,0.0,0.0,0.0,0.0,0.0,0.0,0.0,0.0,0.0,0.0,0.0,0.0,0.0,0.0,0.0,0.0,0.0,0.0,0.0,0.0,0.0,0.0,0.0,0.0,0.0,0.0,0.0,0.0,0.0,0.0,0.0,0.0,0.0,0.0,0.0,0.0,0.0,0.0,0.0,0.0,0.0,0.0,0.0,0.0,0.0,0.0,0.0,0.0,0.0,0.0,0.0,0.0,0.0,0.0,0.0,0.0,0.0,0.0,0.0,0.0,0.0,0.0,0.0,0.0,0.0,0.0,0.0,0.0,0.0,0.0,0.0,0.0,0.0,0.0,0.0,0.0,0.0,0.0,0.0,0.0,0.0,0.0,0.0,0.0,0.0,0.0,0.0,0.0,0.0,0.0,0.0,0.0,-3.9061,-3.8772,-3.8254,-3.8399,-3.8472,-3.8116,-3.8717,-3.9312,-3.9782,-4.0221,0.0,0.0,0.0,0.0,0.0,0.0,0.0,0.0,0.0,0.0,0.0,0.0,0.0,0.0,0.0,0.0,0.0,0.0,0.0,0.0,0.0,0.0,0.0,0.0,0.0,0.0,0.0,0.0,0.0,0.0,0.0,0.0,0.0,0.0,0.0,0.0,0.0,0.0,0.0,0.0,0.0,0.0,0.0,0.0,0.0,0.0,0.0,0.0,0.0,0.0,0.0,0.0,0.0,0.0,0.0,0.0,0.0,0.0,0.0,0.0,0.0,0.0,0.0,0.0,0.0,0.0,0.0,0.0,0.0,0.0,0.0,0.0,0.0,0.0,0.0,0.0,0.0,0.0,0.0,0.0,0.0,0.0,0.0,0.0,0.0,0.0,0.0,0.0,0.0,0.0,0.0,0.0,0.0,0.0,0.0,0.0,0.0,0.0,0.0,0.0,0.0,0.0,-3.8391,-3.8278,-3.8075,-3.8262,-3.8278,-3.8017,-3.8528,-3.9061,-3.9558,-3.9952,0.0,0.0,0.0,0.0,0.0,0.0,0.0,0.0,0.0,0.0,0.0,0.0,0.0,0.0,0.0,0.0,0.0,0.0,0.0,0.0,0.0,0.0,0.0,0.0,0.0,0.0,0.0,0.0,0.0,0.0,0.0,0.0,0.0,0.0,0.0,0.0,0.0,0.0,0.0,0.0,0.0,0.0,0.0,0.0,0.0,0.0,0.0,0.0,0.0,0.0,0.0,0.0,0.0,0.0,0.0,0.0,0.0,0.0,0.0,0.0,0.0,0.0,0.0,0.0,0.0,0.0,0.0,0.0,0.0,0.0,0.0,0.0,0.0,0.0,0.0,0.0,0.0,0.0,0.0,0.0,0.0,0.0,0.0,0.0,0.0,0.0,0.0,0.0,0.0,0.0,0.0,0.0,0.0,0.0,0.0,0.0,0.0,0.0,0.0,0.0,0.0,0.0,-3.8391,-3.8391,-3.8391,-3.8408,-3.8391,-3.8391,-3.8391,-3.875,-3.9558,-3.961,0.0,0.0,0.0,0.0,0.0,0.0,0.0,0.0,0.0,0.0,0.0,0.0,0.0,0.0,0.0,0.0,0.0,0.0,0.0,0.0,0.0,0.0,0.0,0.0,0.0,0.0,0.0,0.0,0.0,0.0,0.0,0.0,0.0,0.0,0.0,0.0,0.0,0.0,0.0,0.0,0.0,0.0,0.0,0.0,0.0,0.0,0.0,0.0,0.0,0.0,0.0,0.0,0.0,0.0,0.0,0.0,0.0,0.0,0.0,0.0,0.0,0.0,0.0,0.0,0.0,0.0,0.0,0.0,0.0,0.0,0.0,0.0,0.0,0.0,0.0,0.0,0.0,0.0,0.0,0.0,0.0,0.0,0.0,0.0,0.0,0.0,0.0,0.0,0.0,0.0,0.0,0.0,0.0,0.0,0.0,0.0,0.0,0.0,0.0,0.0,0.0,0.0,-3.886,-3.8952,-3.8448,-3.86,-3.8655,-3.8391,-3.86,-3.9007,-3.9558,0.0,0.0,0.0,0.0,0.0,0.0,0.0,0.0,0.0,0.0,0.0,0.0,0.0,0.0,0.0,0.0,0.0,0.0,0.0,0.0,0.0,0.0,0.0,0.0,0.0,0.0,0.0,0.0,0.0,0.0,0.0,0.0,0.0,0.0,0.0,0.0,0.0,0.0,0.0,0.0,0.0,0.0,0.0,0.0,0.0,0.0,0.0,0.0,0.0,0.0,0.0,0.0,0.0,0.0,0.0,0.0,0.0,0.0,0.0,0.0,0.0,0.0,0.0,0.0,0.0,0.0,0.0,0.0,0.0,0.0,0.0,0.0,0.0,0.0,0.0,0.0,0.0,0.0,0.0,0.0,0.0,0.0,0.0,0.0,0.0,0.0,0.0,0.0,0.0,0.0,0.0,0.0,0.0,0.0,0.0,0.0,0.0,0.0,0.0,0.0,0.0,0.0,-3.8655,-3.9061,-3.9259,-3.8805,-3.8914,-3.8914,-3.8805,-3.9007,-3.9365,-3.9782,0.0,0.0,0.0,0.0,0.0,0.0,0.0,0.0,0.0,0.0,0.0,0.0,0.0,0.0,0.0,0.0,0.0,0.0,0.0,0.0,0.0,0.0,0.0,0.0,0.0,0.0,0.0,0.0,0.0,0.0,0.0,0.0,0.0,0.0,0.0,0.0,0.0,0.0,0.0,0.0,0.0,0.0,0.0,0.0,0.0,0.0,0.0,0.0,0.0,0.0,0.0,0.0,0.0,0.0,0.0,0.0,0.0,0.0,0.0,0.0,0.0,0.0,0.0,0.0,0.0,0.0,0.0,0.0,0.0,0.0,0.0,0.0,0.0,0.0,0.0,0.0,0.0,0.0,0.0,0.0,0.0,0.0,0.0,0.0,0.0,0.0,0.0,0.0,0.0,0.0,0.0,0.0,0.0,0.0,0.0,0.0,0.0,0.0,0.0,0.0,0.0,0.0,-3.9077,-3.9023,-3.9169,-3.9558,-3.9276,-3.9169,-3.9558,-3.9594,-3.9782,0.0,0.0,0.0,0.0,0.0,0.0,0.0,0.0,0.0,0.0,0.0,0.0,0.0,0.0,0.0,0.0,0.0,0.0,0.0,0.0,0.0,0.0,0.0,0.0,0.0,0.0,0.0,0.0,0.0,0.0,0.0,0.0,0.0,0.0,0.0,0.0,0.0,0.0,0.0,0.0,0.0,0.0,0.0,0.0,0.0,0.0,0.0,0.0,0.0,0.0,0.0,0.0,0.0,0.0,0.0,0.0,0.0,0.0,0.0,0.0,0.0,0.0,0.0,0.0,0.0,0.0,0.0,0.0,0.0,0.0,0.0,0.0,0.0,0.0,0.0,0.0,0.0,0.0,0.0,0.0,0.0,0.0,0.0,0.0,0.0,0.0,0.0,0.0,0.0,0.0,0.0,0.0,0.0,0.0,0.0,0.0,0.0,0.0,0.0,0.0,0.0,0.0,0.0,-3.9523,-3.9935,-4.0154,-3.9662,-3.9799,-3.985,-3.961,-3.9901,-4.0121,-4.0288,0.0,0.0,0.0,0.0,0.0,0.0,0.0,0.0,0.0,0.0,0.0,0.0,0.0,0.0,0.0,0.0,0.0,0.0,0.0,0.0,0.0,0.0,0.0,0.0,0.0,0.0,0.0,0.0,0.0,0.0,0.0,0.0,0.0,0.0,0.0,0.0,0.0,0.0,0.0,0.0,0.0,0.0,0.0,0.0,0.0,0.0,0.0,0.0,0.0,0.0,0.0,0.0,0.0,0.0,0.0,0.0,0.0,0.0,0.0,0.0,0.0,0.0,0.0,0.0,0.0,0.0,0.0,0.0,0.0,0.0,0.0,0.0,0.0,0.0,0.0,0.0,0.0,0.0,0.0,0.0,0.0,0.0,0.0,0.0,0.0,0.0,0.0,0.0,0.0,0.0,0.0,0.0,0.0,0.0,0.0,0.0,0.0,0.0,0.0,0.0,0.0,0.0,-4.0003,-4.032,-4.0517,-4.0137,-4.0221,-4.0221,-4.0137,-4.037,-4.0534,-4.0534,0.0,0.0,0.0,0.0,0.0,0.0,0.0,0.0,0.0,0.0,0.0,0.0,0.0,0.0,0.0,0.0,0.0,0.0,0.0,0.0,0.0,0.0,0.0,0.0,0.0,0.0,0.0,0.0,0.0,0.0,0.0,0.0,0.0,0.0,0.0,0.0,0.0,0.0,0.0,0.0,0.0,0.0,0.0,0.0,0.0,0.0,0.0,0.0,0.0,0.0,0.0,0.0,0.0,0.0,0.0,0.0,0.0,0.0,0.0,0.0,0.0,0.0,0.0,0.0,0.0,0.0,0.0,0.0,0.0,0.0,0.0,0.0,0.0,0.0,0.0,0.0,0.0,0.0,0.0,0.0,0.0,0.0,0.0,0.0,0.0,0.0,0.0,0.0,0.0,0.0,0.0,0.0,0.0,0.0,0.0,0.0,0.0,0.0,0.0,0.0,0.0,0.0,-4.0387,-4.0355,-4.0502,-4.0871,-4.0583,-4.0485,-4.0888,-4.0888,-4.0888,-4.0888,0.0,0.0,0.0,0.0,0.0,0.0,0.0,0.0,0.0,0.0,0.0,0.0,0.0,0.0,0.0,0.0,0.0,0.0,0.0,0.0,0.0,0.0,0.0,0.0,0.0,0.0,0.0,0.0,0.0,0.0,0.0,0.0,0.0,0.0,0.0,0.0,0.0,0.0,0.0,0.0,0.0,0.0,0.0,0.0,0.0,0.0,0.0,0.0,0.0,0.0,0.0,0.0,0.0,0.0,0.0,0.0,0.0,0.0,0.0,0.0,-3.9868,-3.9523,0.0,0.0,0.0,0.0,0.0,0.0,0.0,0.0,0.0,0.0,0.0,0.0,0.0,0.0,0.0,0.0,0.0,0.0,0.0,0.0,0.0,0.0,0.0,0.0,0.0,0.0,0.0,0.0,0.0,0.0,0.0,0.0,0.0,0.0,0.0,0.0,0.0,0.0,0.0,0.0,-4.0776,-4.0776,-4.0776,-4.0888,-4.0823,-4.084,-4.0871,-4.0888,-4.0888,-4.0888,-4.1041,0.0,0.0,0.0,0.0,0.0,0.0,0.0,0.0,0.0,0.0,0.0,0.0,0.0,0.0,0.0,0.0,0.0,0.0,0.0,0.0,0.0,0.0,0.0,0.0,0.0,0.0,0.0,0.0,0.0,0.0,0.0,0.0,0.0,0.0,0.0,0.0,0.0,0.0,0.0,0.0,0.0,0.0,0.0,0.0,0.0,0.0,0.0,0.0,0.0,0.0,0.0,0.0,0.0,0.0,0.0,0.0,0.0,0.0,0.0,-3.9454,-3.9348,0.0,0.0,0.0,0.0,0.0,0.0,0.0,0.0,0.0,0.0,0.0,0.0,0.0,0.0,0.0,0.0,0.0,0.0,0.0,0.0,0.0,0.0,0.0,0.0,0.0,0.0,0.0,0.0,0.0,0.0,0.0,0.0,0.0,0.0,0.0,0.0,0.0,0.0,0.0,0.0,-4.0888,-4.0888,-4.0888,-4.0888,-4.0888,-4.0888,-4.0888,-4.0888,-4.0918,-4.1041,-4.1163,0.0,0.0,0.0,0.0,0.0,0.0,0.0,0.0,0.0,0.0,0.0,0.0,0.0,0.0,0.0,0.0,0.0,0.0,0.0,0.0,0.0,0.0,0.0,0.0,0.0,0.0,0.0,0.0,0.0,0.0,0.0,0.0,0.0,0.0,0.0,0.0,0.0,0.0,0.0,0.0,0.0,0.0,0.0,0.0,0.0,0.0,0.0,0.0,0.0,0.0,0.0,0.0,0.0,-3.9661,-3.9398,-3.8391,-3.8766,-3.8711,-3.8448,-3.9098,-3.9401,-3.9348,-3.9007,0.0,0.0,0.0,0.0,0.0,0.0,0.0,0.0,0.0,0.0,0.0,0.0,0.0,0.0,0.0,0.0,0.0,0.0,0.0,0.0,0.0,0.0,-4.1391,-4.1391,-4.1346,-4.1346,-4.1346,0.0,0.0,0.0,0.0,0.0,0.0,0.0,0.0,0.0,0.0,0.0,-4.0888,-4.0888,-4.0888,-4.0888,-4.0888,-4.0918,-4.0965,-4.0965,-4.1041,-4.1255,-4.13,-4.1408,0.0,0.0,0.0,0.0,0.0,0.0,0.0,0.0,0.0,0.0,0.0,0.0,0.0,0.0,0.0,0.0,0.0,0.0,0.0,0.0,0.0,0.0,0.0,0.0,0.0,0.0,0.0,0.0,0.0,0.0,0.0,0.0,-4.1516,-4.1134,0.0,0.0,0.0,0.0,0.0,0.0,0.0,0.0,0.0,0.0,0.0,0.0,0.0,-4.0288,-4.0188,-3.954,-3.9185,-3.9023,-3.8766,-3.856,-3.8391,-3.8448,-3.8448,-3.8408,-3.8488,0.0,-3.8544,-3.8504,0.0,0.0,0.0,0.0,0.0,0.0,0.0,0.0,0.0,0.0,0.0,0.0,0.0,0.0,0.0,0.0,0.0,0.0,0.0,0.0,0.0,0.0,-4.2145,-4.2145,-4.1977,-4.1788,-4.1788,-4.1318,-4.0888,-4.0888,-4.1041,-4.1117,0.0,0.0,0.0,0.0,0.0,0.0,-4.0888,-4.0888,-4.0888,-4.0888,-4.0888,-4.0965,-4.1163,-4.1163,-4.1255,-4.1542,-4.1719,-4.1762,-4.1604,-4.1995,0.0,0.0,0.0,0.0,0.0,0.0,0.0,0.0,0.0,0.0,0.0,0.0,0.0,0.0,0.0,0.0,0.0,0.0,0.0,0.0,0.0,0.0,0.0,0.0,0.0,0.0,0.0,0.0,0.0,-4.176,-4.1356,-4.0965,-4.0888,-4.0888,0.0,0.0,0.0,0.0,0.0,0.0,0.0,0.0,0.0,-4.0187,-3.9799,-3.9451,-3.9239,-3.9329,-3.9115,-3.8655,-3.8711,-3.8616,-3.8391,-3.8391,-3.8391,-3.8391,-3.8391,-3.8391,-3.8391,-3.8391,-3.8391,-3.8391,0.0,0.0,0.0,0.0,-4.0003,-4.0237,-4.0836,-4.1226,-4.1408,-4.1408,0.0,0.0,0.0,0.0,0.0,0.0,0.0,-4.1805,-4.1892,-4.1977,-4.2061,-4.2061,-4.1977,-4.1892,-4.1762,-4.1498,-4.129,-4.129,-4.1134,-4.1041,-4.1041,-4.1041,0.0,0.0,0.0,-4.0888,-4.0888,-4.0888,-4.0888,-4.0888,-4.0995,-4.1117,-4.1209,-4.1363,-4.1542,-4.1762,-4.2044,-4.2192,-4.2234,-4.2613,-4.2729,0.0,0.0,0.0,0.0,0.0,0.0,0.0,0.0,0.0,0.0,0.0,0.0,0.0,0.0,0.0,0.0,0.0,0.0,0.0,0.0,0.0,0.0,0.0,0.0,0.0,0.0,0.0,0.0,-4.1373,-4.1255,-4.0918,-4.0888,-4.0888,0.0,0.0,0.0,0.0,0.0,0.0,-4.0728,-4.0037,-3.9662,-3.9782,-3.9276,-3.8914,-3.8694,-3.9098,-3.9007,-3.8391,-3.8711,-3.8711,-3.8391,-3.8391,-3.8391,-3.8391,-3.8391,-3.8391,-3.8391,-3.8391,-3.8391,-3.8391,-3.8504,-3.86,-3.875,-3.9542,-4.0053,-4.0351,-4.1053,-4.1453,-4.1692,-4.1692,-4.1719,-4.1823,-4.1977,0.0,0.0,0.0,0.0,-4.1934,-4.1959,-4.2019,-4.2019,-4.2019,-4.2019,-4.1977,-4.1805,-4.1736,-4.1648,-4.1604,-4.138,-4.118,-4.1209,-4.118,0.0,-4.0995,-4.1059,-4.1059,-4.1059,-4.1059,-4.1059,-4.1059,-4.1226,-4.1346,-4.1373,-4.1587,-4.1805,-4.2086,-4.2356,-4.2577,-4.2826,-4.3087,-4.3214,-4.3214,0.0,0.0,0.0,0.0,0.0,0.0,0.0,0.0,0.0,0.0,0.0,0.0,0.0,0.0,0.0,0.0,0.0,0.0,0.0,0.0,0.0,0.0,0.0,0.0,0.0,0.0,0.0,0.0,0.0,-4.0871,-4.0888,0.0,0.0,0.0,0.0,-4.0888,-4.0436,-4.0188,-4.0337,-3.9885,-3.9782,-4.0238,-3.9451,-3.9169,-3.9558,-3.8805,-3.8448,-3.8391,-3.8391,-3.8391,-3.8391,-3.8391,-3.8391,-3.8391,-3.8391,-3.8391,-3.8391,-3.8391,-3.8391,-3.8448,-3.8821,-3.9115,-3.9437,-4.0235,-4.0737,-4.1036,-4.1453,-4.1719,-4.1874,-4.1874,-4.2061,-4.2287,-4.2287,-4.2103,0.0,0.0,-4.2103,-4.1977,-4.2187,-4.2287,-4.2287,-4.2287,-4.2287,-4.2287,-4.2287,-4.2061,-4.1849,-4.1648,-4.1719,-4.1701,-4.13,0.0,-4.1701,-4.1255,-4.1408,-4.156,-4.156,-4.156,-4.156,-4.156,-4.156,-4.1675,-4.1831,-4.1892,-4.2127,-4.2634,-4.2673,-4.2826,-4.316,-4.3196,-4.3214,-4.3214,-4.3461,0.0,0.0,0.0,0.0,0.0,0.0,0.0,0.0,0.0,0.0,0.0,0.0,0.0,0.0,0.0,0.0,0.0,0.0,0.0,0.0,0.0,0.0,0.0,0.0,0.0,0.0,0.0,0.0,-4.0888,-4.0888,0.0,-4.0888,-4.084,-4.084,-4.0888,-4.0728,-4.0631,-4.068,-3.9986,-3.9833,-4.0305,-3.9451,-3.9077,-3.9222,-3.8914,-3.8655,-3.8391,-3.8391,-3.8391,-3.8391,-3.8391,-3.8391,-3.8391,-3.8504,-3.8694,-3.9044,-3.9152,-3.9152,-3.9082,-3.9612,-3.9902,-4.0052,-4.0625,-4.1001,-4.123,-4.164,-4.1934,-4.2163,-4.2163,-4.2246,-4.2287,-4.2287,-4.2228,-4.2205,-4.2287,-4.2246,-4.2187,-4.2287,-4.2287,-4.2287,-4.2287,-4.2287,-4.2287,-4.2287,-4.2228,-4.2145,-4.2061,-4.1849,-4.1675,-4.1657,-4.1675,-4.1631,-4.1498,-4.156,-4.1604,-4.1604,-4.1604,-4.1604,-4.1604,-4.1719,-4.1805,-4.1874,-4.2234,-4.2516,-4.2711,-4.3069,-4.3338,-4.3461,-4.3631,-4.3697,-4.3697,-4.3795,-4.386,0.0,0.0,0.0,0.0,0.0,0.0,0.0,0.0,0.0,0.0,0.0,0.0,0.0,0.0,0.0,0.0,0.0,0.0,0.0,0.0,0.0,0.0,0.0,0.0,0.0,-4.1152,-4.1105,-4.1012,-4.0995,-4.0965,-4.0935,-4.0888,-4.0888,-4.0888,-4.0776,-4.068,-4.068,-3.9986,-3.9714,-4.0054,-3.9382,-3.9023,-3.9023,-3.8876,-3.8655,-3.8391,-3.8391,-3.8448,-3.8616,-3.8711,-3.8788,-3.8952,-3.9098,-3.9385,-3.9715,-4.0069,-4.0119,-4.0052,-4.0397,-4.059,-4.0668,-4.1157,-4.1445,-4.1692,-4.1959,-4.2145,-4.2287,-4.2287,-4.2287,-4.2287,-4.2287,-4.2287,-4.2287,-4.2287,-4.2287,-4.2287,-4.2287,-4.2287,-4.2287,-4.2287,-4.2287,-4.2287,-4.2287,-4.2287,-4.2287,-4.2287,-4.2037,-4.1849,-4.1874,-4.1849,-4.1823,-4.1719,-4.178,-4.1823,-4.1823,-4.1823,-4.1823,-4.1823,-4.1934,-4.2044,-4.2151,-4.2516,-4.2788,-4.2995,-4.3373,-4.3664,-4.373,-4.391,-4.4005,-4.4005,-4.4005,-4.4005,-4.4005,0.0,0.0,0.0,0.0,0.0,0.0,0.0,0.0,0.0,0.0,0.0,0.0,0.0,0.0,0.0,0.0,0.0,0.0,0.0,0.0,0.0,0.0,0.0,-4.1692,-4.1604,-4.1498,-4.1255,-4.1209,-4.1117,-4.0918,-4.0871,-4.0888,-4.0888,-4.0534,-4.0305,-4.0305,-3.9885,-3.961,-3.9662,-3.9276,-3.9023,-3.9023,-3.8655,-3.8448,-3.8391,-3.8448,-3.8655,-3.9023,-3.9295,-3.9629,-4.0003,-4.0201,-4.0331,-4.038,-4.1059,-4.1303,-4.1303,-4.1111,-4.1139,-4.1366,-4.177,-4.2061,-4.2287,-4.2287,-4.2287,-4.2287,-4.2287,-4.2287,-4.2287,-4.2287,-4.2287,-4.2287,-4.2287,-4.2287,-4.2287,-4.2287,-4.2287,-4.2287,-4.2287,-4.2287,-4.2287,-4.2287,-4.2287,-4.2287,-4.2287,-4.2287,-4.2205,-4.1977,-4.2145,-4.2205,-4.1977,-4.2145,0.0,-4.2287,-4.2287,-4.2287,-4.2328,-4.2328,-4.2432,-4.2711,-4.2732,-4.2958,-4.3545,-4.3631,-4.373,-4.4005,-4.4005,-4.4005,-4.4005,-4.4005,-4.4005,-4.4005,0.0,0.0,0.0,0.0,0.0,0.0,0.0,0.0,0.0,0.0,0.0,0.0,0.0,0.0,0.0,0.0,0.0,0.0,0.0,0.0,0.0,-4.316,-4.2652,-4.1719,-4.1604,-4.156,-4.1498,-4.13,-4.1163,-4.1117,-4.1012,-4.0888,-4.0888,-4.0793,-4.0745,-4.0745,-4.032,-4.0221,-4.0549,-4.0171,-3.9747,-3.9454,-3.9644,-3.9292,-3.8391,-3.9206,-3.9454,-3.9295,-3.98,-4.0085,-4.0251,-4.0414,-4.0685,-4.1059,-4.1321,-4.1648,-4.2044,-4.1959,-4.1959,-4.2044,-4.2145,-4.2246,-4.2287,-4.2287,-4.2287,-4.2287,-4.2287,-4.2287,-4.2287,-4.2287,-4.2287,-4.2287,-4.2287,-4.2287,-4.2287,-4.2287,-4.2287,-4.2287,-4.2287,-4.2287,-4.2287,-4.2287,-4.2287,-4.2287,-4.2287,-4.2287,-4.2287,-4.2187,-4.2246,-4.2287,-4.2205,-4.2246,-4.2287,-4.2287,-4.2287,-4.2351,-4.2573,-4.2595,-4.2729,-4.305,-4.3232,-4.3442,-4.3597,-4.3795,-4.3923,-4.4005,-4.4005,-4.4005,-4.4005,-4.4005,-4.4005,0.0,0.0,0.0,0.0,0.0,0.0,0.0,0.0,0.0,0.0,0.0,0.0,0.0,0.0,0.0,0.0,0.0,0.0,0.0,0.0,0.0,0.0,-4.3356,-4.292,-4.2151,-4.1977,-4.1849,-4.1719,-4.1569,-4.148,-4.1363,-4.1272,-4.1198,-4.1198,-4.1198,-4.1198,-4.1198,-4.0853,-4.071,-4.0789,-4.0485,-4.007,-3.9594,-3.9885,-3.9696,-3.9098,-3.9697,-4.0036,-4.0086,-4.0542,-4.081,-4.0984,-4.123,-4.1472,-4.1735,-4.1796,-4.2002,-4.2287,0.0,0.0,0.0,0.0,-4.2287,-4.2287,-4.2287,-4.2287,-4.2287,-4.2287,-4.2287,-4.2287,-4.2287,-4.2287,-4.2287,-4.2287,-4.2287,-4.2287,-4.2287,-4.2287,-4.2287,-4.2287,-4.2287,-4.2287,-4.2287,-4.2287,-4.2287,-4.2287,-4.2287,0.0,-4.2287,-4.2287,-4.2287,-4.2287,-4.2287,-4.2287,-4.2287,-4.2391,-4.2534,-4.2673,-4.2826,-4.3032,-4.3321,-4.3529,0.0,0.0,0.0,-4.4005,-4.4005,-4.4005,0.0,0.0,0.0,-4.4036,-4.4116,-4.4036,0.0,0.0,-4.4036,-4.4005,0.0,0.0,0.0,0.0,0.0,0.0,0.0,0.0,0.0,0.0,0.0,0.0,0.0,0.0,0.0,0.0,-4.3391,-4.3087,-4.2788,-4.2494,-4.2205,-4.1959,-4.1917,-4.1849,-4.1648,-4.1604,-4.1604,-4.1604,-4.1604,-4.1604,-4.1604,-4.1346,0.0,0.0,0.0,-4.0204,-3.9749,-3.98,-3.9902,-4.0053,-4.0153,-4.048,-4.1019,-4.1276,-4.1604,-4.1977,-4.2205,-4.2287,-4.2287,-4.2287,-4.2287,-4.2287,-4.2287,-4.2287,-4.2287,-4.2287,-4.2287,-4.2287,-4.2287,0.0,0.0,-4.2287,-4.2287,-4.2287,-4.2287,-4.2287,-4.2287,-4.2287,-4.2287,-4.2287,-4.2287,-4.2287,-4.2287,-4.2287,-4.2287,-4.2287,-4.2287,-4.2287,-4.2287,-4.2287,-4.2287,-4.2287,-4.2287,-4.2287,-4.2328,-4.2328,-4.2369,-4.2369,-4.2409,-4.2613,-4.2788,-4.2808,-4.3069,0.0,-4.3612,-4.3664,-4.3763,-4.3986,-4.4005,-4.4005,-4.4036,-4.4036,-4.4036,-4.4067,-4.4067,-4.4128,-4.4314,-4.4128,-4.4147,-4.4314,-4.4097,-4.4005,0.0,0.0,0.0,0.0,0.0,0.0,0.0,0.0,0.0,0.0,0.0,0.0,0.0,0.0,0.0,-4.4177,-4.3597,-4.316,-4.3123,-4.2631,-4.2287,-4.2246,-4.2019,-4.1874,-4.1849,-4.1692,-4.1604,-4.1604,-4.1604,-4.1604,-4.1604,-4.156,-4.1498,-4.1408,-4.1363,-4.1163,-4.0737,-4.1053,-4.0879,-4.0234,-4.1139,0.0,-4.1258,-4.1839,-4.2145,-4.2246,-4.2287,-4.2287,-4.2287,-4.2287,-4.2287,-4.2287,-4.2287,-4.2287,-4.2287,-4.2287,-4.2287,-4.2287,-4.2287,-4.2287,-4.2287,-4.2287,-4.2287,-4.2287,-4.2287,-4.2287,0.0,-4.2287,-4.2287,-4.2287,-4.2287,-4.2287,-4.2287,-4.2287,-4.2287,-4.2287,-4.2287,-4.2287,-4.2287,-4.2287,-4.2287,-4.2287,-4.2287,-4.2287,-4.2351,-4.2595,-4.2634,-4.2729,-4.2975,-4.3087,-4.3178,-4.3408,-4.3477,-4.3631,-4.3892,-4.3923,-4.3923,-4.4005,-4.4005,-4.4067,-4.4255,-4.4237,-4.4296,-4.4383,-4.4411,-4.4411,-4.4458,-4.4411,-4.4411,-4.4458,-4.4128,-4.4005,0.0,0.0,0.0,0.0,0.0,0.0,0.0,0.0,0.0,0.0,0.0,-4.4578,-4.4515,0.0,-4.4401,-4.4401,-4.3777,-4.3303,-4.3303,-4.2729,-4.2287,-4.2287,-4.2187,-4.2103,-4.2103,-4.2019,-4.1952,-4.1952,-4.1952,-4.1952,-4.1952,-4.1805,-4.1762,-4.1762,-4.1648,-4.1498,-4.13,-4.1498,-4.1436,-4.1122,-4.1622,-4.1874,-4.1796,-4.2145,-4.2287,-4.2287,-4.2287,-4.2287,-4.2287,-4.2287,-4.2287,-4.2287,-4.2287,-4.2287,-4.2287,-4.2287,-4.2287,-4.2287,-4.2287,-4.2287,-4.2287,-4.2287,-4.2287,-4.2287,-4.2287,-4.2287,-4.2287,-4.2287,-4.2287,-4.2287,-4.2287,-4.2287,-4.2287,-4.2287,-4.2287,-4.2287,-4.2287,-4.2287,-4.2287,-4.2287,-4.2391,-4.2494,-4.2494,-4.2631,-4.2747,-4.2711,-4.2826,-4.2995,-4.316,-4.3339,-4.3461,-4.3597,-4.373,-4.386,-4.4005,-4.4005,-4.4005,-4.4005,-4.4097,-4.4177,-4.4285,-4.4373,-4.443,-4.4515,-4.4515,-4.4524,-4.4605,-4.4524,-4.4524,-4.4578,-4.4383,-4.4248,0.0,0.0,0.0,0.0,0.0,0.0,0.0,-4.5419,-4.5197,-4.4857,-4.4796,-4.4745,-4.4605,-4.457,-4.4524,-4.4524,-4.3962,-4.3523,-4.3523,-4.2903,-4.2472,-4.2432,-4.2369,-4.2287,-4.2287,-4.2287,-4.2287,-4.2287,-4.2287,-4.2287,-4.2287,-4.2103,-4.1977,-4.1977,-4.1805,-4.1736,-4.1736,-4.1736,-4.1805,-4.1977,-4.1977,-4.2103,-4.2287,-4.2287,-4.2287,-4.2287,-4.2287,-4.2287,-4.2287,-4.2287,-4.2287,-4.2287,-4.2287,-4.2287,-4.2287,-4.2287,-4.2287,-4.2287,-4.2287,-4.2287,-4.2287,-4.2287,-4.2287,-4.2287,-4.2287,-4.2287,-4.2287,-4.2287,-4.2287,-4.2287,-4.2287,-4.2287,-4.2287,-4.2287,-4.2287,-4.2328,-4.2369,-4.2391,-4.2391,-4.2472,-4.2652,-4.2788,-4.2788,-4.3069,-4.3178,-4.2939,-4.3105,-4.3304,-4.3339,-4.3529,-4.3697,-4.3697,-4.386,-4.4005,-4.4067,-4.4067,-4.4067,-4.4097,-4.4237,-4.4344,-4.4373,-4.4487,-4.4551,-4.4578,-4.4578,-4.4632,-4.4738,-4.4632,-4.4632,-4.4738,-4.4632,-4.4551,-4.601,-4.5998,-4.5997,-4.5997,-4.5986,-4.5933,0.0,-4.5699,-4.5539,-4.5207,-4.5137,-4.5061,-4.4895,-4.4764,-4.4685,-4.4685,-4.426,-4.3937,-4.3937,-4.3403,-4.2977,-4.2921,-4.2573,-4.2287,-4.2287,-4.2287,-4.2287,-4.2287,-4.2287,-4.2287,-4.2287,-4.2287,-4.2246,-4.2246,-4.2246,-4.2205,-4.2205,-4.2205,-4.2246,-4.2246,-4.2246,-4.2287,-4.2287,-4.2287,-4.2287,-4.2287,-4.2287,-4.2287,-4.2287,-4.2287,-4.2287,-4.2287,-4.2287,-4.2287,-4.2287,-4.2287,-4.2287,-4.2287,-4.2287,-4.2287,-4.2287,-4.2287,-4.2287,-4.2287,-4.2287,-4.2287,-4.2287,-4.2287,-4.2287,-4.2287,-4.2287,-4.2287,-4.2287,-4.2287,-4.2287,-4.2369,-4.2595,-4.2673,-4.275,-4.305,-4.3123,-4.316,-4.316,-4.3356,-4.3545,-4.3511,-4.3511,-4.3631,-4.386,-4.3942,-4.3974,-4.3974,-4.3974,-4.4067,-4.4255,-4.4255,-4.4314,-4.4458,-4.4458,-4.4524,-4.4659,-4.4685,-4.4719,-4.4846,-4.4865,-4.4846,-4.487,-4.4846,-4.4846,-4.487,-4.4846,-4.4738,-4.6123,-4.6118,-4.613,-4.613,-4.6084,-4.6027,-4.5883,-4.5742,-4.5558,-4.5323,-4.5159,-4.5057,-4.4967,-4.487,-4.484,-4.484,-4.4448,-4.4184,-4.4184,-4.3717,-4.33,-4.3087,-4.2884,-4.2634,-4.2328,-4.2287,-4.2287,-4.2287,-4.2287,-4.2287,-4.2287,-4.2287,-4.2287,-4.2287,-4.2287,-4.2287,-4.2287,-4.2287,-4.2287,-4.2287,-4.2287,-4.2287,-4.2287,-4.2287,-4.2287,-4.2287,-4.2287,-4.2287,-4.2287,-4.2287,-4.2287,-4.2287,-4.2287,-4.2346,-4.2405,-4.2346,-4.2287,-4.2287,-4.2287,-4.2287,-4.2287,-4.2287,-4.2346,-4.2405,-4.2328,-4.2346,-4.2405,-4.2328,-4.2287,-4.2287,-4.2287,-4.2287,-4.2287,-4.2287,-4.2432,-4.2573,-4.2673,-4.2903,-4.3159,-4.3284,-4.3526,-4.3675,-4.3675,-4.3918,-4.4109,-4.4109,-4.3955,-4.386,-4.4005,-4.4005,-4.4036,-4.4177,-4.4237,-4.4325,-4.4401,-4.443,-4.443,-4.4515,-4.4578,-4.4632,-4.4712,-4.477,-4.4846,-4.4895,-4.4895,-4.4895,-4.4895,-4.4895,-4.4895,-4.4895,-4.4895,-4.4821,-4.614,-4.6206,-4.6196,-4.6203,-4.6154,-4.6102,-4.6008,-4.5866,-4.5684,-4.55,-4.5323,-4.5154,-4.509,-4.4995,-4.4919,-4.4919,-4.4655,-4.4476,-4.4476,-4.3998,-4.3586,-4.3318,-4.3123,-4.2864,-4.2391,-4.2387,-4.2346,-4.2346,-4.2328,-4.2287,-4.2287,-4.2287,-4.2287,-4.2287,-4.2287,-4.2287,-4.2287,-4.2287,-4.2287,-4.2287,-4.2287,-4.2287,-4.2287,-4.2287,-4.2287,-4.2287,-4.2346,-4.2346,-4.2346,-4.2369,-4.2369,-4.2369,-4.2369,-4.2427,-4.2526,-4.2409,-4.2369,-4.2369,-4.2369,-4.2369,-4.2369,-4.2369,-4.2468,-4.2526,-4.2409,-4.2468,-4.2526,-4.2409,-4.2369,-4.2369,-4.2369,-4.2472,-4.2534,-4.2534,-4.2732,-4.2959,-4.3032,-4.3353,-4.359,-4.3675,-4.3931,-4.4143,-4.4143,-4.4345,-4.4515,-4.4515,-4.4277,-4.4128,-4.4128,-4.4128,-4.4188,-4.4344,-4.4458,-4.4496,-4.4551,-4.457,-4.4551,-4.4605,-4.4712,-4.4764,-4.4764,-4.4846,-4.4895,-4.4895,-4.4895,-4.4895,-4.4895,-4.4895,-4.4895,-4.4895,-4.4895,-4.4895,-4.5987,-4.6206,-4.6197,-4.619,-4.6196,-4.6196,-4.6196,-4.6138,-4.6047,-4.5906,-4.5713,-4.5526,-4.5323,-4.5137,-4.501,-4.501,-4.4919,-4.487,-4.487,-4.4318,-4.3849,-4.3786,-4.3196,-4.2745,-4.2609,-4.2526,-4.2503,-4.2503,-4.2387,-4.2287,-4.2287,-4.2287,-4.2287,-4.2287,-4.2287,-4.2287,-4.2287,-4.2287,-4.2287,-4.2287,-4.2287,-4.2287,-4.2287,-4.2287,-4.2287,-4.2287,-4.2445,-4.2503,-4.2503,-4.2588,-4.2609,-4.2609,-4.2609,-4.2609,-4.2609,-4.2609,-4.2609,-4.2609,-4.2609,-4.2609,-4.2609,-4.2609,-4.2609,-4.2609,-4.2609,-4.2609,-4.2609,-4.2609,-4.2609,-4.2609,-4.2609,-4.2826,-4.3087,-4.3087,-4.3316,-4.3634,-4.3906,-4.3967,-4.4065,-4.4393,-4.4487,-4.4468,-4.4468,-4.4468,-4.4515,-4.4515,-4.4487,-4.4487,-4.4487,-4.4487,-4.4487,-4.4487,-4.4515,-4.4551,-4.4685,-4.4693,-4.4764,-4.487,-4.4895,-4.4895,-4.4895,-4.4895,-4.4895,-4.4895,-4.4895,-4.4895,-4.4895,-4.4895,-4.4895,-4.4895,-4.4895,-4.4895,-4.5115,-4.5338,-4.5473,-4.606,-4.6196,-4.6196,-4.6196,-4.6102,-4.6017,-4.5977,-4.5694,-4.5454,-4.538,-4.5201,-4.5038,-4.501,-4.4967,-4.4943,-4.4895,-4.4726,-4.4402,-4.3912,-4.3656,-4.3336,-4.2844,-4.2649,-4.2588,-4.2588,-4.2468,-4.2445,-4.2445,-4.2346,-4.2287,-4.2287,-4.2287,-4.2287,-4.2287,-4.2287,-4.2287,-4.2287,-4.2287,-4.2346,-4.2445,-4.2445,-4.2445,-4.2445,-4.2508,-4.2588,-4.2588,-4.257,-4.2609,-4.2609,-4.2609,-4.2649,-4.2745,-4.2745,-4.2765,-4.2786,-4.2649,-4.2609,-4.2609,-4.2609,-4.2649,-4.2706,-4.2609,-4.2649,-4.2688,-4.2609,-4.2609,-4.2609,-4.2609,-4.2864,-4.3087,-4.3087,-4.3487,-4.3906,-4.3967,-4.4242,-4.4513,-4.4605,-4.4693,-4.4764,-4.4764,-4.4764,-4.4764,-4.4764,-4.4605,-4.4515,-4.4515,-4.4578,-4.4632,-4.4632,-4.4712,-4.477,-4.4821,-4.4821,-4.4846,-4.4895,-4.4895,-4.4895,-4.4895,-4.4895,-4.4895,-4.4895,-4.4895,-4.4895,-4.4895,-4.4895,-4.4895,-4.4895,-4.4895,-4.4895,-4.4191,-4.4668,-4.5028,-4.5597,-4.5981,-4.6196,-4.6209,-4.6127,-4.6065,-4.6075,-4.5777,-4.5503,-4.5503,-4.5303,-4.5125,-4.508,-4.5038,-4.5014,-4.4962,-4.4827,-4.4584,-4.4125,-4.3881,-4.3557,-4.3105,-4.2844,-4.2727,-4.2649,-4.2606,-4.2526,-4.2526,-4.2427,-4.2387,-4.2387,-4.2328,-4.2287,-4.2287,-4.2287,-4.2328,-4.2387,-4.2427,-4.245,-4.2526,-4.2526,-4.2526,-4.2526,-4.2627,-4.2649,-4.2649,-4.2727,-4.2709,-4.2709,-4.2709,-4.2765,-4.286,-4.286,-4.2862,-4.2882,-4.2747,-4.2709,-4.2709,-4.2709,-4.2765,-4.2804,-4.2709,-4.2765,-4.2842,-4.2882,-4.2864,-4.2902,-4.3032,-4.3318,-4.3553,-4.3553,-4.3937,-4.4327,-4.4327,-4.4576,-4.477,-4.477,-4.4821,-4.4895,-4.4895,-4.4895,-4.4895,-4.4895,-4.4745,-4.4632,-4.4632,-4.4738,-4.477,-4.477,-4.4846,-4.4895,-4.4895,-4.4895,-4.4895,-4.4895,-4.4895,-4.4895,-4.4895,-4.4895,-4.4895,-4.4895,-4.4895,-4.4895,-4.4895,-4.4895,-4.4895,-4.4895,-4.4895,-4.4895,-4.3294,-4.4128,-4.4765,-4.4819,-4.55,-4.6128,-4.6131,-4.6164,-4.6203,-4.6203,-4.5938,-4.5717,-4.5703,-4.5436,-4.5213,-4.5192,-4.5148,-4.508,-4.5014,-4.4739,-4.4493,-4.4411,-4.3831,-4.3422,-4.344,-4.3142,-4.2938,-4.286,-4.2688,-4.2609,-4.2609,-4.2566,-4.2503,-4.2503,-4.2387,-4.2328,-4.2328,-4.2287,-4.2387,-4.2503,-4.2548,-4.2609,-4.2609,-4.2609,-4.2609,-4.2609,-4.2745,-4.2783,-4.2822,-4.2862,-4.2882,-4.2882,-4.2882,-4.292,-4.292,-4.292,-4.292,-4.292,-4.292,-4.2882,-4.2882,-4.2882,-4.292,-4.292,-4.292,-4.292,-4.3014,-4.3336,-4.344,-4.349,-4.3818,-4.4154,-4.4383,-4.4383,-4.4655,-4.4895,-4.4895,-4.4895,-4.4895,-4.4895,-4.4895,-4.4895,-4.4895,-4.4895,-4.4895,-4.4895,-4.4895,-4.4895,-4.4895,-4.4895,-4.4895,-4.4895,-4.4895,-4.4895,-4.4895,-4.4895,-4.4895,-4.4895,-4.4895,-4.4895,-4.4895,-4.4895,-4.4895,-4.4895,-4.4895,-4.4895,-4.4895,-4.4895,-4.4895,-4.4895,-4.4895,-4.4895,-4.2329,-4.2724,-4.3063,-4.3767,-4.4596,-4.523,-4.5236,-4.5733,-4.6195,-4.6203,-4.6063,-4.5875,-4.5731,-4.5555,-4.5381,-4.5216,-4.5192,-4.5148,-4.5061,-4.4967,-4.4783,-4.4493,-4.4299,-4.4046,-4.3818,-4.3689,-4.3523,-4.3284,-4.2938,-4.2745,-4.2745,-4.2627,-4.257,-4.257,-4.253,-4.2508,-4.2445,-4.2346,-4.2369,-4.257,-4.2526,-4.2606,-4.2745,-4.2745,-4.2745,-4.2745,-4.2842,-4.2862,-4.2862,-4.2882,-4.2882,-4.2882,-4.2882,-4.305,-4.3231,-4.2976,-4.305,-4.3249,-4.2995,-4.2882,-4.2882,-4.2882,-4.3087,-4.3266,-4.3266,-4.344,-4.3656,-4.3754,-4.3786,-4.3786,-4.3881,-4.4154,-4.4383,-4.4383,-4.4655,-4.4895,-4.4895,-4.4895,-4.4895,-4.4895,-4.4895,-4.4895,-4.4895,-4.4895,-4.4895,-4.4895,-4.4895,-4.4895,-4.4895,-4.4895,-4.4895,-4.4895,-4.4895,-4.4895,-4.4895,-4.4895,-4.4895,-4.4895,-4.4895,-4.4895,-4.4895,-4.4895,-4.4895,-4.4895,-4.4895,-4.4895,-4.4895,-4.4895,-4.4895,-4.4895,-4.4895,-4.4895,-4.1498,-4.1928,-4.237,-4.2908,-4.3707,-4.4374,-4.4367,-4.5021,-4.5635,-4.5618,-4.5827,-4.5958,-4.5859,-4.565,-4.5473,-4.5342,-4.5279,-4.5213,-4.5148,-4.5103,-4.4948,-4.4739,-4.4383,-4.4154,-4.4125,-4.3831,-4.359,-4.3406,-4.3178,-4.3013,-4.2842,-4.2727,-4.2688,-4.2688,-4.2649,-4.257,-4.2548,-4.2548,-4.2588,-4.2688,-4.2667,-4.2727,-4.2842,-4.2842,-4.2842,-4.2842,-4.29,-4.2882,-4.2882,-4.2882,-4.2882,-4.2882,-4.2882,-4.3014,-4.3178,-4.3142,-4.3249,-4.3406,-4.3336,-4.3336,-4.3301,-4.3178,-4.3249,-4.344,-4.3557,-4.3754,-4.3943,-4.4095,-4.4125,-4.4154,-4.4318,-4.4484,-4.461,-4.461,-4.4777,-4.4895,-4.4895,-4.4895,-4.4895,-4.4895,-4.4895,-4.4895,-4.4895,-4.4895,-4.4895,-4.4895,-4.4895,-4.4895,-4.4895,-4.4895,-4.4895,-4.4895,-4.4895,-4.4895,-4.4895,-4.4895,-4.4895,-4.4895,-4.4895,-4.4895,-4.4895,-4.4895,-4.4895,-4.4895,-4.4895,-4.4895,-4.4895,-4.4895,-4.4895,-4.4895,-4.4895,-4.4895,-4.0906,-4.1506,-4.2126,-4.2148,-4.2832,-4.3531,-4.3537,-4.4168,-4.4738,-4.4746,-4.5243,-4.5706,-4.5792,-4.5554,-4.5391,-4.5472,-4.538,-4.5275,-4.5213,-4.5148,-4.508,-4.501,-4.443,-4.4125,-4.4374,-4.3862,-4.349,-4.3406,-4.344,-4.3301,-4.292,-4.2842,-4.2822,-4.2822,-4.2688,-4.2609,-4.2609,-4.2706,-4.2783,-4.2783,-4.2824,-4.2882,-4.2882,-4.2882,-4.2882,-4.2882,-4.2882,-4.2882,-4.2882,-4.2882,-4.292,-4.2957,-4.2957,-4.2976,-4.3087,-4.3371,-4.3474,-4.3508,-4.3818,-4.3912,-4.3849,-4.3557,-4.349,-4.359,-4.3881,-4.4004,-4.4095,-4.4383,-4.4457,-4.4511,-4.4827,-4.4895,-4.4895,-4.4895,-4.4895,-4.4895,-4.4895,-4.4895,-4.4895,-4.4895,-4.4895,-4.4895,-4.4895,-4.4895,-4.4895,-4.4895,-4.4895,-4.4895,-4.4895,-4.4895,-4.4895,-4.4895,-4.4895,-4.4895,-4.4895,-4.4895,-4.4895,-4.4895,-4.4895,-4.4895,-4.4895,-4.4895,-4.4895,-4.4895,-4.4895,-4.4895,-4.4895,-4.4895,-4.4895,-4.4895,-4.4895,-4.4895,-4.0974,-4.1106,-4.1233,-4.1287,-4.1973,-4.2634,-4.2633,-4.3283,-4.3914,-4.3904,-4.398,-4.4172,-4.4659,-4.4703,-4.4816,-4.5265,-4.5317,-4.5275,-4.5213,-4.5148,-4.508,-4.501,-4.4827,-4.4655,-4.443,-4.4299,-4.3986,-4.3422,-4.3656,-4.3557,-4.292,-4.29,-4.29,-4.29,-4.2804,-4.2706,-4.2609,-4.2609,-4.2649,-4.2649,-4.2783,-4.2842,-4.2882,-4.2882,-4.2882,-4.2882,-4.2882,-4.2882,-4.2882,-4.2882,-4.305,-4.3301,-4.3301,-4.349,-4.3721,-4.3786,-4.3818,-4.3818,-4.3881,-4.3912,-4.3881,-4.3849,-4.3986,-4.4242,-4.4299,-4.4503,-4.4751,-4.4802,-4.4802,-4.4846,-4.487,-4.4895,-4.4895,-4.4895,-4.4895,-4.4895,-4.4895,-4.4895,-4.4895,-4.4895,-4.4895,-4.4895,-4.4895,-4.4895,-4.4895,-4.4895,-4.4895,-4.4895,-4.4895,-4.4895,-4.4895,-4.4895,-4.4895,-4.4895,-4.4895,-4.4895,-4.4895,-4.4895,-4.4895,-4.4895,-4.4895,-4.4895,-4.4895,-4.4895,-4.4895,-4.4895,-4.4895,-4.4895,-4.4895,-4.4895,-4.4895,-4.4895,-4.0998,-4.103,-4.1051,-4.1094,-4.1405,-4.173,-4.1716,-4.2405,-4.3017,-4.3027,-4.328,-4.3575,-4.3873,-4.3813,-4.3801,-4.4057,-4.4019,-4.409,-4.4467,-4.4456,-4.4581,-4.4953,-4.4802,-4.4584,-4.443,-4.4242,-4.3924,-4.344,-4.3557,-4.349,-4.3178,-4.3142,-4.305,-4.2842,-4.2822,-4.2745,-4.2609,-4.2609,-4.2649,-4.2688,-4.2783,-4.286,-4.2882,-4.2882,-4.2882,-4.2882,-4.2882,-4.2882,-4.2882,-4.2882,-4.2976,-4.3142,-4.3336,-4.3508,-4.3689,-4.4035,-4.4154,-4.4184,-4.4374,-4.4402,-4.4402,-4.4402,-4.4402,-4.443,-4.461,-4.4777,-4.4895,-4.4895,-4.4895,-4.4895,-4.4895,-4.4895,-4.4895,-4.4895,-4.4895,-4.4895,-4.4895,-4.4895,-4.4895,-4.4895,-4.4895,-4.4895,-4.4895,-4.4895,-4.4895,-4.4895,-4.4895,-4.4895,-4.4895,-4.4895,-4.4895,-4.4895,-4.4895,-4.4895,-4.4895,-4.4895,-4.4895,-4.4895,-4.4895,-4.4895,-4.4895,-4.4895,-4.4895,-4.4895,-4.4895,-4.4895,-4.4895,-4.4895,-4.4895,-4.4895,-4.4895,-4.4895,-4.1021,-4.1052,-4.1093,-4.1093,-4.1103,-4.1108,-4.1108,-4.164,-4.2105,-4.2075,-4.251,-4.2898,-4.3012,-4.2864,-4.2777,-4.2919,-4.2814,-4.2904,-4.3509,-4.3729,-4.3999,-4.4554,-4.4497,-4.4355,-4.4213,-4.3986,-4.3721,-4.3336,-4.3336,-4.3355,-4.3284,-4.3284,-4.3124,-4.2783,-4.2745,-4.2706,-4.257,-4.2609,-4.2649,-4.2745,-4.2783,-4.286,-4.2882,-4.2882,-4.2882,-4.2882,-4.2882,-4.2882,-4.2882,-4.2882,-4.2957,-4.305,-4.3371,-4.3508,-4.359,-4.427,-4.4457,-4.4457,-4.4777,-4.4895,-4.4895,-4.4895,-4.4707,-4.4557,-4.4802,-4.4895,-4.4895,-4.4895,-4.4895,-4.4895,-4.4895,-4.4895,-4.4895,-4.4895,-4.4895,-4.4895,-4.4895,-4.4895,-4.4895,-4.4895,-4.4895,-4.4895,-4.4895,-4.4895,-4.4895,-4.4895,-4.4895,-4.4895,-4.4895,-4.4895,-4.4895,-4.4895,-4.4895,-4.4895,-4.4895,-4.4895,-4.4895,-4.4895,-4.4895,-4.4895,-4.4895,-4.4895,-4.4895,-4.4895,-4.4895,-4.4895,-4.4895,-4.4895,-4.4895,-4.4895,-4.4895,-4.4895,-4.1094,-4.111,-4.1094,-4.1094,-4.1091,-4.1108,-4.1097,-4.1163,-4.1173,-4.1062,-4.109,-4.1274,-4.1774,-4.1832,-4.2019,-4.2622,-4.2695,-4.2692,-4.262,-4.3301,-4.3701,-4.3393,-4.3979,-4.4165,-4.3557,-4.3754,-4.3623,-4.2976,-4.316,-4.3178,-4.288,-4.286,-4.2765,-4.2609,-4.2609,-4.2588,-4.2503,-4.2588,-4.2609,-4.2609,-4.2745,-4.286,-4.2882,-4.2882,-4.2882,-4.2882,-4.2882,-4.2882,-4.2882,-4.2882,-4.3087,-4.3406,-4.3721,-4.3849,-4.3943,-4.4629,-4.4655,-4.4457,-4.4777,-4.4895,-4.4895,-4.4895,-4.487,-4.487,-4.4895,-4.4895,-4.4895,-4.4895,-4.4895,-4.4895,-4.4895,-4.4895,-4.4895,-4.4895,-4.4895,-4.4895,-4.4895,-4.4895,-4.4895,-4.4895,-4.4895,-4.4895,-4.4895,-4.4895,-4.4895,-4.4895,-4.4895,-4.4895,-4.4895,-4.4895,-4.4895,-4.4895,-4.4895,-4.4895,-4.4895,-4.4895,-4.4895,-4.4895,-4.4895,-4.4895,-4.4895,-4.4895,-4.4895,-4.4895,-4.4895,-4.4895,-4.4895,-4.4895,-4.4895,-4.4895,-4.4895,-4.4895,-4.1103,-4.1099,-4.1108,-4.1108,-4.1104,-4.1097,-4.1094,-4.11,-4.1064,-4.0929,-4.084,-4.0815,-4.0958,-4.0874,-4.0883,-4.115,-4.1128,-4.1238,-4.1705,-4.1874,-4.2228,-4.3115,-4.3306,-4.3385,-4.3385,-4.3523,-4.3204,-4.2193,-4.1741,-4.1396,-4.1189,-4.232,-4.2862,-4.2566,-4.2526,-4.2486,-4.2387,-4.2409,-4.249,-4.2609,-4.2649,-4.2765,-4.2882,-4.2882,-4.2882,-4.2882,-4.2882,-4.3014,-4.3213,-4.3213,-4.3406,-4.3754,-4.4065,-4.4213,-4.427,-4.4726,-4.4802,-4.4707,-4.4846,-4.4895,-4.4895,-4.4895,-4.4895,-4.4895,-4.4895,-4.4895,-4.4895,-4.4895,-4.4895,-4.4895,-4.4895,-4.4895,-4.4895,-4.4895,-4.4895,-4.4895,-4.4895,-4.4895,-4.4895,-4.4895,-4.4895,-4.4895,-4.4895,-4.4895,-4.4895,-4.4895,-4.4895,-4.4895,-4.4895,-4.4895,-4.4895,-4.4895,-4.4895,-4.4895,-4.4895,-4.4895,-4.4895,-4.4895,-4.4895,-4.4895,-4.4895,-4.4895,-4.4895,-4.4895,-4.4895,-4.4895,-4.4895,-4.4895,-4.4895,-4.4895,-4.4895,-4.4895,-4.1101,-4.1101,-4.1104,-4.1101,-4.1094,-4.1085,-4.1047,-4.1045,-4.0979,-4.082,-4.0699,-4.0588,-4.0441,-4.0308,-4.0196,-4.0157,-4.0077,-4.0184,-4.0704,-4.0721,-4.1065,-4.21,-4.2214,-4.2258,-4.2481,-4.2501,-4.2176,-4.1434,-4.0671,-4.0217,-4.0085,-4.1394,-4.2008,-4.1747,-4.198,-4.2047,-4.1948,-4.2162,-4.2409,-4.2609,-4.2609,-4.2709,-4.2882,-4.2882,-4.2882,-4.2882,-4.2882,-4.3014,-4.3266,-4.3371,-4.3523,-4.3786,-4.4242,-4.4383,-4.4457,-4.4777,-4.4895,-4.4895,-4.4895,-4.4895,-4.4895,-4.4895,-4.4895,-4.4895,-4.4895,-4.4895,-4.4895,-4.4895,-4.4895,-4.4895,-4.4895,-4.4895,-4.4895,-4.4895,-4.4895,-4.4895,-4.4895,-4.4895,-4.4895,-4.4895,-4.4895,-4.4895,-4.4895,-4.4895,-4.4895,-4.4895,-4.4895,-4.4895,-4.4895,-4.4895,-4.4895,-4.4895,-4.4895,-4.4895,-4.4895,-4.4895,-4.4895,-4.4895,-4.4895,-4.4895,-4.4895,-4.4895,-4.4895,-4.4895,-4.4943,-4.501,-4.4991,-4.5038,-4.5042,-4.5042,-4.5042,-4.5038,-4.1096,-4.1105,-4.109,-4.1096,-4.1096,-4.1075,-4.0937,-4.0894,-4.083,-4.0559,-4.0504,-4.0425,-4.0234,-4.0196,-4.0157,-4.0017,-3.9996,-3.9889,-3.9551,-4.0203,-4.0483,-3.9902,-4.0538,-4.087,-4.0474,-4.0383,-4.0474,-4.0787,-4.0347,-4.0085,-4.0085,-3.9971,-3.9932,-3.995,-4.0699,-4.1109,-4.1109,-4.1895,-4.2409,-4.2609,-4.2609,-4.2709,-4.2882,-4.2882,-4.2882,-4.2882,-4.2882,-4.2882,-4.292,-4.3266,-4.3406,-4.3456,-4.4136,-4.4383,-4.4457,-4.4777,-4.4895,-4.4895,-4.4895,-4.4895,-4.4895,-4.4895,-4.4895,-4.4895,-4.4895,-4.4895,-4.4895,-4.4895,-4.4895,-4.4895,-4.4895,-4.4895,-4.4895,-4.4895,-4.4895,-4.4895,-4.4895,-4.4895,-4.4895,-4.4895,-4.4895,-4.4895,-4.4895,-4.4895,-4.4895,-4.4895,-4.4895,-4.4895,-4.4895,-4.4895,-4.4895,-4.4895,-4.4895,-4.4895,-4.4895,-4.4895,-4.4895,-4.4895,-4.4895,-4.4895,-4.4895,-4.4895,-4.4895,-4.4895,-4.5103,-4.5192,-4.5192,-4.5321,-4.5381,-4.5381,-4.5381,-4.5321,-4.1091,-4.1096,-4.11,-4.1096,-4.1106,-4.1064,-4.0929,-4.0896,-4.0819,-4.05,-4.0422,-4.0375,-4.0177,-4.0098,-3.9996,-3.9758,-3.9693,-3.9532,-3.9216,-3.9222,-3.9379,-3.969,-4.0211,-4.0474,-4.0328,-3.9714,-3.939,-3.95,-3.8797,-3.84,-3.84,-3.8363,-3.8808,-3.9878,-4.0164,-4.0289,-4.0289,-4.1171,-4.1683,-4.18,-4.2436,-4.2804,-4.2882,-4.2882,-4.3014,-4.3249,-4.2976,-4.3301,-4.3924,-4.3767,-4.4004,-4.443,-4.4655,-4.4732,-4.4732,-4.487,-4.4895,-4.4895,-4.4895,-4.4895,-4.4895,-4.4895,-4.4895,-4.4895,-4.4895,-4.4895,-4.4895,-4.4895,-4.4895,-4.4895,-4.4895,-4.4895,-4.4895,-4.4895,-4.4895,-4.4895,-4.4895,-4.4895,-4.4895,-4.4895,-4.4895,-4.4895,-4.4895,-4.4895,-4.4895,-4.4895,-4.4895,-4.4895,-4.4895,-4.4895,-4.4895,-4.4895,-4.4895,-4.4895,-4.4895,-4.4895,-4.4895,-4.4895,-4.5014,-4.5103,-4.5103,-4.5197,-4.5241,-4.5241,-4.5301,-4.5341,-4.5341,-4.5381,-4.54,-4.54,-4.54,-4.5381,0.0,-4.11,-4.1106,-4.11,-4.1058,-4.0991,-4.0859,-4.0757,-4.0636,-4.0392,-4.0306,-4.0233,-4.0098,-4.0036,-3.9892,-3.9599,-3.9526,-3.9357,-3.8915,-3.8688,-3.8693,-3.8976,-3.9175,-3.9319,-3.9319,-3.8779,-3.8419,-3.8419,-3.7899,-3.7577,-3.7577,-3.7577,-3.8023,-3.9004,-3.9343,-3.9486,-3.9486,-4.0405,-4.0876,-4.0973,-4.1897,-4.239,-4.2466,-4.2755,-4.3087,-4.3406,-4.3178,-4.3523,0.0,-4.4125,-4.4327,-4.4707,-4.4846,-4.4895,-4.4895,-4.4895,-4.4895,-4.4895,-4.4895,-4.4895,-4.4895,-4.4895,-4.4895,-4.4895,-4.4895,-4.4895,-4.4895,-4.4895,-4.4895,-4.4895,-4.4895,-4.4895,-4.4895,-4.4895,-4.4895,-4.4895,-4.4895,-4.4895,-4.4895,-4.4895,-4.4895,-4.4895,-4.4895,-4.4895,-4.4895,-4.4895,-4.4895,-4.4895,-4.4895,-4.4895,-4.4895,-4.4895,-4.4895,-4.4895,-4.4895,-4.4967,-4.5014,-4.5014,-4.5173,-4.5279,-4.5279,-4.5361,-4.54,-4.54,-4.5438,-4.5475,-4.5475,-4.5528,-4.5545,-4.5545,-4.5493,-4.5475,0.0,-4.1097,-4.1084,-4.1065,-4.098,-4.0849,-4.0706,0.0,0.0,0.0,0.0,-4.0077,-4.0015,-3.9996,-3.987,-3.9508,-3.9458,-3.9234,-3.8628,-3.8491,-3.8318,-3.7934,-3.7757,-3.7703,-3.7703,-3.7649,-3.7577,-3.7577,-3.7577,-3.7577,-3.7577,-3.7577,-3.7577,-3.7577,-3.8326,-3.8719,-3.8719,-3.958,-4.0052,-4.0146,-4.1068,-4.1595,-4.1741,-4.2466,-4.3032,-4.3406,-4.3406,-4.359,-4.3974,-4.427,-4.4411,-4.4457,-4.4777,-4.4895,-4.4895,-4.4895,-4.4895,-4.4895,-4.4895,-4.4895,-4.4895,-4.4895,-4.4895,-4.4895,-4.4895,-4.4895,-4.4895,-4.4895,-4.4895,-4.4895,-4.4895,-4.4895,-4.4895,-4.4895,-4.4895,-4.4895,-4.4895,-4.4895,-4.4895,-4.4895,-4.4895,-4.4895,-4.4895,-4.4895,-4.4895,-4.4895,-4.4895,-4.4895,-4.4895,-4.4895,-4.4895,-4.4895,-4.4895,-4.4895,-4.4895,-4.508,-4.5192,-4.5192,-4.5341,-4.5381,-4.54,-4.5419,-4.5438,-4.5438,-4.5545,-4.5613,-4.5613,-4.5737,-4.58,-4.58,-4.5677,-4.5613,-4.0935,0.0,-4.0915,-4.0829,-4.0768,-4.068,0.0,0.0,0.0,0.0,0.0,0.0,0.0,-3.9933,-3.9739,-3.9216,-3.9136,-3.8868,-3.8234,-3.8,-3.7845,-3.7757,-3.7685,-3.7613,-3.7613,-3.7613,-3.7577,-3.7577,-3.7577,-3.7577,-3.7577,-3.7577,-3.7577,-3.7577,-3.7773,-3.7862,-3.7862,-3.8868,-3.9337,-3.9373,-4.033,-4.1089,-4.1723,-4.1922,-4.2505,-4.3406,-4.3406,-4.3754,-4.4299,-4.4355,-4.4557,-4.4802,-4.487,-4.4895,-4.4895,-4.4895,-4.4895,-4.4895,-4.4895,-4.4895,-4.4895,-4.4895,-4.4895,-4.4895,-4.4895,-4.4895,-4.4895,-4.4895,-4.4895,-4.4895,-4.4895,-4.4895,-4.4895,-4.4895,-4.4895,-4.4895,-4.4895,-4.4895,-4.4895,-4.4895,-4.4895,-4.4895,-4.4895,-4.4895,-4.4895,-4.4895,-4.4895,-4.4895,-4.4895,-4.4895,-4.4895,-4.4895,-4.4895,-4.4895,-4.4895,-4.4943,-4.5033,-4.5192,-4.5341,-4.5457,-4.5545,-4.5645,-4.5708,-4.5708,-4.5737,-4.5752,-4.5752,-4.5766,-4.58,-4.58,-4.5771,-4.5752,-4.063,-4.0703,-4.0779,-4.0715,-4.0597,-4.0472,-4.0332,0.0,0.0,0.0,0.0,0.0,0.0,-3.9889,-3.9693,-3.9063,-3.8952,-3.8693,-3.7966,-3.7774,-3.7703,-3.7649,-3.7613,-3.7577,-3.7577,-3.7577,-3.7577,-3.7577,-3.7577,-3.7577,-3.7577,-3.7577,-3.7577,-3.7577,-3.7577,-3.7577,-3.7577,-3.8205,-3.8546,-3.8564,-3.9517,-4.022,-4.0673,-4.1017,-4.1776,-4.2837,-4.2837,-4.3447,-4.4383,-4.4383,-4.4584,-4.4895,-4.4895,-4.4895,-4.4895,-4.4895,-4.4895,-4.4895,-4.4895,-4.4895,-4.4895,-4.4895,-4.4895,-4.4895,-4.4895,-4.4895,-4.4895,-4.4895,-4.4895,-4.4895,-4.4895,-4.4895,-4.4895,-4.4895,-4.4895,-4.4895,-4.4895,-4.4895,-4.4895,-4.4895,-4.4895,-4.4919,-4.5014,-4.5057,-4.5061,-4.5132,-4.5132,-4.5132,-4.5132,-4.5132,-4.5132,-4.5132,-4.5132,-4.5132,-4.5132,-4.5132,-4.5175,-4.5279,-4.5475,-4.5613,-4.5692,-4.5752,-4.58,-4.58,-4.58,-4.58,-4.58,-4.58,-4.58,-4.58,-4.58,-4.58,-4.03,-4.0457,-4.0597,-4.0597,-4.0442,-4.0266,-4.0248,0.0,0.0,0.0,0.0,0.0,0.0,-3.9826,-3.9604,-3.898,-3.8781,-3.848,-3.7792,-3.7703,-3.7667,-3.7631,-3.7577,-3.7577,-3.7577,-3.7577,-3.7577,-3.7577,-3.7577,-3.7577,-3.7577,-3.7577,-3.7577,-3.7577,-3.7577,-3.7613,-3.7613,-3.7775,-3.7899,-3.7952,-3.8811,-3.9278,-3.9405,-4.0057,-4.0922,-4.1944,-4.2187,-4.2984,-4.4158,-4.4373,-4.4636,-4.4895,-4.4895,-4.4895,-4.4895,-4.4895,-4.4895,-4.4895,-4.4895,-4.4895,-4.4895,-4.4895,-4.4895,-4.4895,-4.4895,-4.4895,-4.4895,-4.4895,-4.4895,-4.4895,-4.4895,-4.4895,-4.4895,-4.4895,-4.4895,-4.4895,-4.4895,-4.4895,-4.4895,-4.4895,-4.4919,-4.4991,-4.517,-4.5213,-4.5258,-4.5381,-4.54,-4.54,-4.54,-4.54,-4.54,-4.54,-4.54,-4.54,-4.54,-4.5419,-4.5419,-4.5419,-4.5645,-4.5786,-4.58,-4.58,-4.58,-4.58,-4.58,-4.58,-4.58,-4.58,-4.58,-4.58,-4.58,-4.58,-4.03,-4.0248,-4.0194,-4.0194,-4.0157,-4.0101,-3.9998,0.0,0.0,0.0,0.0,0.0,0.0,-3.9537,-3.9249,-3.8799,-3.8245,-3.7844,-3.7739,-3.7649,-3.7613,-3.7577,-3.7577,-3.7577,-3.7577,-3.7577,-3.7577,-3.7577,-3.7577,-3.7577,-3.7577,-3.7577,-3.7577,-3.7577,-3.7577,-3.7613,-3.7667,-3.781,-3.7934,-3.8002,-3.8267,-3.8735,-3.9387,-3.9514,-4.0002,-4.0816,-4.2078,-4.2742,-4.3077,-4.4301,-4.4846,-4.4895,-4.4895,-4.4895,-4.4895,-4.4895,-4.4895,-4.4895,-4.4895,-4.4895,-4.4895,-4.4895,-4.4895,-4.4895,-4.4895,-4.4895,-4.4895,-4.4895,-4.4895,-4.4895,-4.4895,-4.4895,-4.4895,-4.4895,-4.4895,-4.4895,-4.4895,-4.4895,-4.4895,-4.4895,-4.5057,-4.517,-4.5192,-4.53,-4.5381,-4.54,-4.54,-4.54,-4.54,-4.54,-4.54,-4.54,-4.54,-4.54,-4.54,-4.551,-4.5563,-4.5563,-4.5613,-4.5677,-4.58,-4.58,-4.58,-4.58,-4.58,-4.58,-4.58,-4.58,-4.58,-4.58,-4.58,-4.58,-4.0081,-4.004,-3.9979,-3.9979,-3.9979,-3.9977,-3.9911,0.0,0.0,0.0,0.0,0.0,0.0,-3.9345,-3.9082,-3.853,-3.7982,-3.7649,-3.7649,-3.7613,-3.7577,-3.7577,-3.7577,-3.7577,-3.7577,-3.7577,-3.7577,-3.7577,-3.7577,-3.7577,-3.7577,-3.7577,-3.7577,-3.7577,-3.7649,-3.7721,-3.781,-3.7916,-3.7967,-3.7984,-3.814,-3.8373,-3.8769,-3.89,-3.9385,-4.0166,-4.0991,-4.1696,-4.2352,-4.3506,-4.409,-4.4289,-4.4724,-4.4895,-4.4895,-4.4895,-4.4895,-4.4895,-4.4895,-4.4895,-4.4895,-4.4895,-4.4895,-4.4895,-4.4895,-4.4895,-4.4895,-4.4895,-4.4895,-4.4895,-4.4895,-4.4895,-4.4895,-4.4895,-4.4895,-4.4895,-4.4895,-4.4895,-4.4919,-4.5057,-4.5148,-4.5256,-4.54,-4.5456,-4.5528,-4.5613,-4.5613,-4.5613,-4.5613,-4.5613,-4.5613,-4.5613,-4.5613,-4.5613,-4.5613,-4.5677,-4.5708,-4.5708,-4.5708,-4.5742,-4.58,-4.58,-4.58,-4.58,-4.58,-4.58,-4.58,-4.58,-4.58,-4.58,-4.58,-4.58,-3.9889,-3.9889,-3.9889,-3.9889,0.0,-3.9889,-3.9867,-3.9848,0.0,0.0,0.0,0.0,0.0,-3.9054,-3.873,-3.8165,-3.7792,-3.7577,-3.7577,-3.7577,-3.7577,-3.7577,-3.7577,-3.7577,-3.7577,-3.7577,-3.7577,-3.7577,-3.7577,-3.7577,-3.7577,-3.7577,-3.7631,-3.7613,-3.7667,-3.7792,-3.7916,-3.7967,-3.8036,-3.8036,-3.814,-3.8192,-3.8225,-3.8401,-3.887,-3.9533,-4.0034,-4.0747,-4.1698,-4.2615,-4.3146,-4.3455,-4.408,-4.444,-4.4649,-4.4838,-4.4895,-4.4895,-4.4895,-4.4895,-4.4895,-4.4895,-4.4895,-4.4895,-4.4895,-4.4895,-4.4895,-4.4895,-4.4919,-4.4943,-4.4895,-4.4895,-4.4895,-4.4895,-4.4938,-4.4967,-4.4967,-4.4991,-4.5042,-4.5216,-4.5279,-4.5361,-4.5563,-4.5629,-4.5677,-4.5766,-4.58,-4.58,-4.58,-4.58,-4.58,-4.58,-4.58,-4.58,-4.58,-4.58,-4.58,-4.58,-4.58,-4.58,-4.58,-4.58,-4.58,-4.58,-4.58,-4.58,-4.58,-4.58,-4.58,-4.58,-4.58,-4.58,-3.9889,-3.9889,-3.9889,-3.9889,-3.9889,0.0,-3.9739,-3.9717,0.0,-3.9532,0.0,0.0,-3.9055,-3.8504,-3.7984,-3.7685,-3.7613,-3.7577,-3.7577,-3.7577,-3.7577,-3.7577,-3.7577,-3.7577,-3.7577,-3.7577,-3.7577,-3.7577,-3.7577,-3.7577,-3.7577,-3.7577,-3.7613,-3.7703,-3.7703,-3.781,-3.7984,-3.7984,-3.807,-3.8192,-3.8192,-3.8192,-3.8192,-3.8225,-3.8423,-3.8744,-3.9841,-4.0485,-4.086,-4.2011,-4.2465,-4.2507,-4.2564,-4.3076,-4.3872,-4.463,-4.4895,-4.4895,-4.4895,-4.4895,-4.4895,-4.4895,-4.4895,-4.4895,-4.4895,-4.4895,-4.4895,-4.4895,-4.5014,-4.5148,-4.4943,-4.4895,-4.4895,-4.4895,-4.5038,-4.517,-4.517,-4.5279,-4.5381,-4.5381,-4.5475,-4.558,-4.5596,-4.5708,-4.58,-4.58,-4.58,-4.58,-4.58,-4.58,-4.58,-4.58,-4.58,-4.58,-4.58,-4.58,-4.58,-4.58,-4.58,-4.58,-4.58,-4.58,-4.58,-4.58,-4.58,-4.58,-4.58,-4.58,-4.58,-4.58,-4.58,-4.58,-3.9889,-3.9826,-3.9804,-3.9889,-3.9781,0.0,0.0,-3.9647,-3.9526,-3.9331,-3.9192,-3.8942,-3.8442,-3.8034,-3.7721,-3.7631,-3.7577,-3.7577,-3.7577,-3.7577,-3.7398,-3.6899,-3.6845,-3.6649,-3.6167,-3.6114,-3.6114,-3.6114,-3.656,-3.6845,-3.6845,-3.7381,-3.7667,-3.7703,-3.781,-3.7915,-3.7984,-3.8088,-3.814,-3.8192,-3.8192,-3.8192,-3.8225,-3.8368,-3.851,-3.8634,-3.9462,-3.9877,-4.0034,-4.1184,-4.1654,-4.1711,-4.2204,-4.2602,-4.2943,-4.3227,-4.336,-4.336,-4.336,-4.3725,-4.4204,-4.418,-4.4521,-4.4943,-4.4895,-4.501,-4.5103,-4.5103,-4.5239,-4.5342,-4.5151,-4.5151,-4.5218,-4.5218,-4.526,-4.5321,-4.5321,-4.5361,-4.5419,-4.551,-4.5563,-4.5629,-4.5708,-4.5771,-4.58,-4.58,-4.58,-4.58,-4.58,-4.58,-4.58,-4.58,-4.58,-4.58,-4.58,-4.58,-4.58,-4.58,-4.58,-4.58,-4.58,-4.58,-4.58,-4.58,-4.58,-4.58,-4.58,-4.58,-4.58,-4.58,-4.58,-4.58,-3.9712,-3.967,-3.967,0.0,0.0,0.0,-3.9458,-3.9427,-3.9298,-3.911,-3.8884,-3.8523,-3.7984,-3.7721,-3.7577,-3.7577,-3.7577,-3.7577,-3.7577,-3.7362,-3.7006,-3.647,-3.6185,-3.581,-3.5257,-3.5204,-3.5204,-3.5204,-3.5721,-3.6131,-3.6434,-3.7023,-3.7488,-3.781,-3.7915,-3.8018,-3.807,-3.814,-3.8192,-3.8192,-3.8192,-3.8192,-3.8225,-3.8478,-3.8646,-3.8778,-3.9261,-3.9551,-3.9703,-4.0469,-4.0802,-4.0877,-4.1711,-4.2014,-4.2075,-4.2341,-4.2458,-4.2458,-4.2458,-4.2879,-4.3418,-4.3373,-4.3776,-4.4235,-4.4189,-4.4497,-4.4857,-4.4857,-4.5207,-4.5558,-4.5419,-4.5419,-4.5419,-4.5419,-4.5419,-4.5456,-4.5456,-4.5493,-4.5545,-4.5645,-4.5661,-4.5692,-4.5766,-4.58,-4.58,-4.58,-4.58,-4.58,-4.58,-4.58,-4.58,-4.58,-4.58,-4.58,-4.58,-4.58,-4.58,-4.58,-4.58,-4.58,-4.58,-4.58,-4.58,-4.58,-4.58,-4.58,-4.58,-4.58,-4.58,-4.58,-4.58,-4.58,-3.9298,-3.9383,-3.9502,0.0,0.0,0.0,-3.9017,-3.8989,-3.896,-3.8803,-3.835,-3.7915,-3.7649,-3.7577,-3.7577,-3.7577,-3.7577,-3.7577,-3.7577,-3.6899,-3.6399,-3.6381,-3.5685,-3.5204,-3.5186,-3.5186,-3.5186,-3.5186,-3.5204,-3.5595,-3.6521,-3.6575,-3.7037,-3.7948,-3.7984,-3.807,-3.8192,-3.8192,-3.8192,-3.8192,-3.8192,-3.8192,-3.8225,-3.8478,-3.873,-3.9008,-3.9338,-3.9647,-3.9889,-3.9889,-3.9889,-3.9984,-4.0858,-4.1244,-4.1383,-4.218,-4.2506,-4.2569,-4.2569,-4.2569,-4.2588,-4.2588,-4.261,-4.261,-4.261,-4.331,-4.4096,-4.4096,-4.4916,-4.5777,-4.5796,-4.565,-4.5491,-4.5419,-4.551,-4.5613,-4.5613,-4.5708,-4.58,-4.58,-4.58,-4.58,-4.58,-4.58,-4.58,-4.58,-4.58,-4.58,-4.58,-4.58,-4.58,-4.58,-4.58,-4.58,-4.58,-4.58,-4.58,-4.58,-4.58,-4.58,-4.58,-4.58,-4.58,-4.58,-4.58,-4.58,-4.58,-4.58,-4.58,-4.58,-4.58,-4.58,-3.8943,-3.9064,0.0,-3.9272,0.0,0.0,0.0,-3.8766,0.0,0.0,-3.7949,-3.7685,-3.7613,-3.7577,-3.7577,-3.7577,-3.7577,-3.7577,-3.7577,-3.6899,-3.6185,-3.5632,-3.49,-3.4204,-3.3633,-3.358,-3.358,-3.358,-3.4163,-3.4625,-3.4909,-3.6067,-3.687,-3.7154,-3.7799,-3.8174,-3.8192,-3.8192,-3.8192,-3.8192,-3.8192,-3.8289,-3.8478,-3.8554,-3.873,-3.9008,-3.9338,-3.9551,-3.9647,-3.987,-3.9975,-3.9994,-4.0321,-4.0437,-4.0496,-4.0703,-4.0819,-4.0838,-4.0838,-4.1241,-4.1758,-4.182,-4.2278,-4.2833,-4.2865,-4.3169,-4.3583,-4.4201,-4.473,-4.523,-4.58,-4.5925,-4.5902,-4.5841,-4.5841,-4.5886,-4.5886,-4.5873,-4.5861,-4.5861,-4.5822,-4.58,-4.58,-4.58,-4.58,-4.58,-4.58,-4.58,-4.58,-4.58,-4.58,-4.58,-4.58,-4.58,-4.58,-4.58,-4.58,-4.58,-4.58,-4.58,-4.58,-4.58,-4.58,-4.58,-4.58,-4.58,-4.58,-4.58,-4.58,-4.58,-4.58,-4.58,-3.853,-3.8658,0.0,-3.8865,-3.8676,-3.8478,-3.8442,0.0,0.0,-3.7898,-3.7721,-3.7577,-3.7577,-3.7577,-3.7577,-3.7577,-3.7577,-3.747,-3.7166,-3.6435,-3.5632,-3.4865,-3.4097,-3.3419,-3.2969,-3.2916,-3.2916,-3.2948,-3.3426,-3.392,-3.4307,-3.5321,-3.6179,-3.6844,-3.7416,-3.7866,-3.8192,-3.8192,-3.8192,-3.8192,-3.8289,-3.851,-3.8759,-3.8759,-3.8915,-3.9216,-3.9556,-3.9693,-3.9717,-3.9954,-4.0036,-4.0057,-4.0077,-4.0117,-4.0137,-4.0137,-4.0157,-4.0176,-4.0176,-4.0559,-4.1052,-4.1102,-4.153,-4.2033,-4.2054,-4.2409,-4.2862,-4.3404,-4.4171,-4.4951,-4.5442,-4.5849,-4.613,-4.6017,-4.5997,-4.5997,-4.5997,-4.5975,-4.5953,-4.5953,-4.5917,-4.5861,-4.5835,-4.5848,-4.5848,-4.5814,-4.58,-4.58,-4.58,-4.58,-4.58,-4.58,-4.58,-4.58,-4.58,-4.58,-4.58,-4.58,-4.58,-4.58,-4.58,-4.58,-4.58,-4.58,-4.58,-4.58,-4.58,-4.58,-4.58,-4.58,-4.58,-4.58,-3.8034,-3.8219,-3.835,-3.835,-3.8186,-3.7915,-3.7649,-3.7792,-3.788,-3.7649,-3.7577,-3.7577,-3.7577,-3.7577,-3.7577,-3.7577,-3.7577,-3.7309,-3.6506,-3.5721,-3.4936,-3.4204,-3.3384,-3.2916,-3.2916,-3.2916,-3.2948,-3.3011,-3.3028,-3.3414,-3.4357,-3.4465,-3.5214,-3.6725,-3.6906,-3.7341,-3.8065,-3.8156,-3.8192,-3.8192,-3.8465,-3.8718,-3.9008,-3.9036,-3.9216,-3.9575,-3.987,-3.9996,-4.0017,-4.0077,-4.0117,-4.0117,-4.0117,-4.0157,-4.0196,-4.0196,-4.0253,-4.031,-4.031,-4.0396,-4.0504,-4.0534,-4.0615,-4.0718,-4.073,-4.1332,-4.2014,-4.2111,-4.3358,-4.4695,-4.4851,-4.5494,-4.6064,-4.6037,-4.6017,-4.6017,-4.6017,-4.6007,-4.6007,-4.6007,-4.6007,-4.5986,-4.5929,-4.5964,-4.5964,-4.5841,-4.5814,-4.5814,-4.5814,-4.5814,-4.58,-4.58,-4.58,-4.58,-4.58,-4.58,-4.58,-4.58,-4.58,-4.58,-4.58,-4.58,-4.58,-4.58,-4.58,-4.58,-4.58,-4.58,-4.58,-4.58,-4.58,-4.58,-3.7721,-3.788,0.0,-3.8086,-3.8052,-3.7915,-3.7649,-3.7649,-3.7649,-3.7613,-3.7577,-3.7577,-3.7577,-3.7577,-3.7577,-3.7577,-3.7577,-3.7309,-3.6506,-3.5721,-3.4936,-3.4204,-3.3384,-3.2916,-3.2979,-3.2979,-3.3011,-3.3055,-3.3183,-3.3334,-3.3563,-3.422,-3.4739,-3.5095,-3.6327,-3.7102,-3.725,-3.7866,-3.8192,-3.8192,-3.8274,-3.8523,-3.9008,-3.9287,-3.958,-3.9892,-3.9975,-4.0036,-4.0077,-4.0157,-4.0176,-4.0176,-4.0234,-4.0273,-4.0291,-4.0291,-4.0291,-4.0329,-4.043,-4.0476,-4.0534,-4.0761,-4.0839,-4.0869,-4.098,-4.1155,-4.1454,-4.2077,-4.2558,-4.3176,-4.454,-4.5046,-4.5338,-4.5998,-4.6154,-4.6154,-4.6154,-4.613,-4.6084,-4.6084,-4.6047,-4.5997,-4.5986,-4.5997,-4.5997,-4.5964,-4.5898,-4.5893,-4.5893,-4.5822,-4.58,-4.58,-4.58,-4.58,-4.58,-4.58,-4.58,-4.58,-4.58,-4.58,-4.58,-4.58,-4.58,-4.58,-4.58,-4.58,-4.58,-4.58,-4.58,-4.58,-4.58,-4.58,-3.7577,0.0,0.0,-3.7828,0.0,-3.7792,-3.7613,-3.7577,-3.7577,-3.7577,-3.7577,-3.7577,-3.7577,-3.7577,-3.7577,-3.7577,-3.7577,-3.7309,-3.6506,-3.5581,-3.4694,-3.388,-3.3151,-3.2687,-3.2719,-3.293,-3.3104,-3.3183,-3.3262,-3.3292,-3.3352,-3.378,-3.4208,-3.4588,-3.5403,-3.6037,-3.6417,-3.7214,-3.7612,-3.7612,-3.814,-3.8688,-3.9313,-3.9604,-3.9848,-3.9996,-4.0077,-4.0137,-4.0157,-4.0234,-4.0253,-4.0253,-4.0291,-4.031,-4.031,-4.031,-4.031,-4.031,-4.0381,-4.0492,-4.0615,-4.0754,-4.0878,-4.1023,-4.1078,-4.111,-4.1188,-4.1617,-4.2007,-4.2513,-4.3429,-4.4267,-4.5007,-4.5475,-4.5903,-4.6196,-4.6196,-4.6162,-4.6146,-4.6146,-4.613,-4.6084,-4.6047,-4.6017,-4.5997,-4.5997,-4.5933,-4.5893,-4.5867,-4.5827,-4.58,-4.58,-4.58,-4.58,-4.58,-4.58,-4.58,-4.58,-4.58,-4.58,-4.58,-4.58,-4.58,-4.58,-4.58,-4.58,-4.58,-4.58,-4.58,-4.58,-4.58,-4.58,-3.7577,0.0,-3.7577,-3.7577,-3.7577,0.0,-3.7577,-3.7577,-3.7577,-3.7577,-3.7577,-3.7577,-3.7577,-3.7577,-3.7577,-3.7577,-3.7577,-3.7309,-3.6506,-3.5474,-3.4499,-3.3723,-3.2947,-3.2537,-3.257,-3.2912,-3.3214,-3.3292,-3.334,-3.3352,-3.3411,-3.3393,-3.3719,-3.4371,-3.4534,-3.4932,-3.5602,-3.6413,-3.6884,-3.7029,-3.8187,-3.899,-3.9532,-3.987,-4.0017,-4.0038,-4.0138,-4.0196,-4.0215,-4.0291,-4.031,-4.031,-4.031,-4.031,-4.031,-4.031,-4.031,-4.031,-4.0345,-4.0504,-4.0706,-4.0742,-4.0917,-4.111,-4.111,-4.111,-4.111,-4.111,-4.1578,-4.2124,-4.226,-4.3371,-4.4481,-4.4637,-4.5222,-4.5825,-4.6137,-4.6196,-4.6196,-4.6196,-4.6196,-4.6189,-4.613,-4.6075,-4.6027,-4.6027,-4.5986,-4.5917,-4.5835,-4.5808,-4.5814,-4.58,-4.58,-4.58,-4.58,-4.58,-4.58,-4.58,-4.58,-4.58,-4.58,-4.58,-4.58,-4.58,-4.58,-4.58,-4.58,-4.58,-4.58,-4.58,-4.58,-4.58,-3.7577,0.0,-3.7577,0.0,-3.7577,-3.7577,0.0,0.0,-3.7577,-3.7577,-3.7577,-3.7577,-3.7577,-3.7577,-3.7577,-3.7577,-3.7577,-3.7309,-3.6506,-3.5686,-3.4902,-3.4202,-3.3398,-3.2979,-3.3152,-3.3232,-3.3292,-3.3382,-3.3382,-3.3411,-3.3393,-3.3393,-3.3447,-3.3556,-3.4244,-3.4661,-3.4769,-3.5628,-3.6386,-3.7108,-3.8524,-3.9181,-3.9178,-3.9873,-4.0176,-4.0176,-4.0196,-4.0215,-4.0291,-4.031,-4.031,-4.031,-4.031,-4.031,-4.031,-4.031,-4.031,-4.0328,-4.0564,-4.0668,-4.073,-4.098,-4.1071,-4.111,-4.111,-4.111,-4.111,-4.111,-4.1188,-4.1422,-4.2124,-4.2474,-4.2844,-4.3585,-4.3858,-4.4364,-4.5864,-4.6196,-4.6196,-4.6196,-4.6196,-4.6196,-4.6189,-4.6189,-4.6162,-4.6162,-4.613,-4.6056,-4.5986,-4.591,-4.5848,-4.5814,-4.58,-4.58,-4.58,-4.58,-4.58,-4.58,-4.58,-4.58,-4.58,-4.58,-4.58,-4.58,-4.58,-4.58,-4.58,-4.58,-4.58,-4.58,-4.58,-4.58,-3.7503,-3.7577,-3.7577,0.0,-3.7577,-3.7577,-3.7577,-3.7577,-3.7577,-3.7577,-3.7577,-3.7577,-3.7577,-3.7577,-3.7577,-3.7577,-3.7577,-3.747,-3.7113,-3.5883,-3.4871,-3.4569,-3.355,-3.2866,-3.2961,-3.3214,-3.3382,-3.3411,-3.3393,-3.3393,-3.3393,-3.3393,-3.3393,-3.3393,-3.3737,-3.3936,-3.3936,-3.4776,-3.5709,-3.6666,-3.7313,-3.8026,-3.8756,-3.911,-3.96,-4.0196,-4.0253,-4.0272,-4.031,-4.031,-4.031,-4.031,-4.031,-4.031,-4.031,-4.031,-4.0364,-4.043,-4.0549,-4.0681,-4.0839,-4.0943,-4.1038,-4.111,-4.111,-4.111,-4.111,-4.111,-4.111,-4.1188,-4.1539,-4.1968,-4.2396,-4.2786,-4.3227,-4.3819,-4.4579,-4.5124,-4.5611,-4.6098,-4.6196,-4.6196,-4.6196,-4.6196,-4.6189,-4.6146,-4.613,-4.6066,-4.5964,-4.5929,-4.5861,-4.5814,-4.58,-4.58,-4.58,-4.58,-4.58,-4.58,-4.58,-4.58,-4.58,-4.58,-4.58,-4.58,-4.58,-4.58,-4.58,-4.58,-4.58,-4.58,-4.58,-4.58,0.0,0.0,-3.7558,-3.7594,-3.7577,-3.7577,0.0,0.0,-3.7577,-3.7577,-3.7577,-3.7577,-3.7577,-3.7577,-3.7577,-3.7577,-3.7577,-3.7631,-3.7613,-3.6274,-3.5173,-3.503,-3.3924,-3.3062,-3.2898,-3.3196,-3.3393,-3.3393,-3.3393,-3.3393,-3.3393,-3.3393,-3.3393,-3.3393,-3.3393,-3.3411,-3.3422,-3.4379,-3.5237,-3.6039,-3.6385,-3.7125,-3.8177,-3.826,-3.8763,-3.9586,-4.0101,-4.031,-4.031,-4.031,-4.031,-4.031,-4.031,-4.031,-4.0291,-4.0346,-4.0413,-4.0504,-4.0593,-4.073,-4.0907,-4.0935,-4.1023,-4.111,-4.111,-4.111,-4.111,-4.111,-4.111,-4.111,-4.111,-4.1559,-4.2007,-4.2007,-4.2494,-4.3078,-4.35,-4.4111,-4.4754,-4.5416,-4.5533,-4.5533,-4.5533,-4.5728,-4.5857,-4.5807,-4.5974,-4.6075,-4.5933,-4.5929,-4.5886,-4.5814,-4.58,-4.58,-4.58,-4.58,-4.58,-4.58,-4.5819,-4.5838,-4.58,-4.5819,-4.5819,-4.58,-4.58,-4.58,-4.58,-4.58,-4.58,-4.58,-4.58,-4.58,0.0,-3.7297,0.0,-3.754,-3.7577,-3.7577,0.0,0.0,-3.7577,-3.7577,-3.7577,-3.7577,-3.7577,-3.7577,-3.7577,-3.7577,-3.7577,-3.7613,-3.7667,-3.7023,-3.6269,-3.5645,-3.4884,-3.4122,-3.3436,-3.3411,-3.3393,-3.3393,-3.3393,-3.3393,-3.3393,-3.3393,-3.3393,-3.3393,-3.3393,-3.3422,-3.3491,-3.4659,-3.5295,-3.5369,-3.6637,-3.7251,-3.7289,-3.7604,-3.7771,-3.7922,-3.9584,-4.031,-4.031,-4.031,-4.031,-4.031,-4.031,-4.031,-4.0329,-4.0444,-4.0489,-4.0534,-4.0776,-4.0898,-4.0926,-4.1045,-4.1085,-4.111,-4.111,-4.111,-4.111,-4.111,-4.111,-4.111,-4.111,-4.113,-4.1169,-4.1169,-4.1208,-4.1675,-4.3247,-4.3637,-4.3682,-4.3741,-4.3741,-4.3741,-4.3741,-4.4423,-4.4968,-4.4968,-4.567,-4.6146,-4.6007,-4.5997,-4.5933,-4.5794,-4.58,-4.58,-4.58,-4.58,-4.58,-4.58,-4.593,-4.593,-4.58,-4.593,-4.593,-4.58,-4.58,-4.58,-4.58,-4.58,-4.58,-4.58,-4.58,-4.58,0.0,0.0,0.0,-3.7558,-3.7577,-3.7577,-3.7577,-3.7577,-3.7577,-3.7577,-3.7577,-3.7577,-3.7577,-3.7577,-3.7577,-3.7577,-3.7649,-3.7667,-3.7703,-3.7145,-3.644,-3.5678,-3.4984,-3.4268,-3.3484,-3.3393,-3.3393,-3.3393,-3.3393,-3.3393,-3.3393,-3.3393,-3.3393,-3.3393,-3.3393,-3.3452,-3.3549,-3.4046,-3.443,-3.4778,-3.5262,-3.5946,-3.6748,-3.6877,-3.7215,-3.7731,-3.8362,-3.8954,-3.9508,-4.0081,-4.031,-4.031,-4.031,-4.0345,-4.0427,-4.0473,-4.0602,-4.0765,-4.0859,-4.0963,-4.1038,-4.1078,-4.111,-4.111,-4.111,-4.111,-4.111,-4.111,-4.111,-4.111,-4.111,-4.111,-4.111,-4.111,-4.111,-4.1266,-4.187,-4.2844,-4.3598,-4.3598,-4.3598,-4.3591,-4.3602,-4.386,-4.4085,-4.4126,-4.4879,-4.5406,-4.5306,-4.5782,-4.6085,-4.6007,-4.599,-4.5988,-4.5988,-4.5988,-4.5988,-4.5988,-4.6046,-4.6048,-4.5979,-4.6041,-4.6046,-4.5988,-4.5988,-4.593,-4.58,-4.58,-4.58,-4.58,-4.58,-4.58,-3.7182,0.0,0.0,0.0,-3.7577,-3.7577,-3.7577,-3.7577,-3.7577,-3.7577,-3.7577,-3.7577,-3.7577,-3.7577,-3.7577,-3.7577,-3.7649,-3.7703,-3.7757,-3.7448,-3.6811,-3.5796,-3.5281,-3.4588,-3.3502,-3.3393,-3.3393,-3.3393,-3.3393,-3.3393,-3.3393,-3.3393,-3.3393,-3.3422,-3.3452,-3.352,-3.3615,-3.385,-3.4141,-3.4508,-3.4655,-3.5192,-3.6069,-3.6069,-3.6356,-3.6871,-3.7177,-3.7789,-3.861,-3.9183,-3.9431,-3.9451,-3.9809,-3.9989,-4.01,-4.0491,-4.0742,-4.0907,-4.0943,-4.103,-4.111,-4.111,-4.111,-4.111,-4.111,-4.111,-4.111,-4.111,-4.111,-4.111,-4.111,-4.111,-4.111,-4.111,-4.111,-4.111,-4.111,-4.1968,-4.2767,-4.2766,-4.2766,-4.2763,-4.276,-4.2998,-4.3219,-4.3251,-4.4008,-4.4543,-4.4469,-4.5214,-4.5743,-4.5679,-4.5939,-4.6096,-4.6096,-4.6096,-4.6096,-4.6096,-4.6119,-4.6123,-4.6091,-4.613,-4.6124,-4.6096,-4.6096,-4.6019,-4.5902,-4.5874,-4.5858,-4.5858,-4.5858,-4.5877,0.0,0.0,0.0,-3.7503,-3.7577,-3.7577,-3.7577,0.0,-3.7577,-3.7577,-3.7577,-3.7577,-3.7577,-3.7577,-3.7577,-3.7613,-3.7685,-3.7757,-3.7864,-3.7967,-3.7458,-3.6005,-3.582,-3.5186,-3.3592,-3.3411,-3.3393,-3.3393,-3.3393,-3.3393,-3.3393,-3.3393,-3.3422,-3.3491,-3.3577,-3.3643,-3.3698,-3.4237,-3.4508,-3.4529,-3.4963,-3.5174,-3.5209,-3.5209,-3.5209,-3.5248,-3.6088,-3.691,-3.7636,-3.7674,-3.7693,-3.7787,-3.8773,-3.9161,-3.9302,-4.0419,-4.083,-4.0848,-4.0986,-4.1033,-4.1052,-4.1052,-4.1091,-4.111,-4.111,-4.111,-4.111,-4.111,-4.111,-4.111,-4.111,-4.111,-4.111,-4.111,-4.111,-4.111,-4.1091,-4.1091,-4.1103,-4.1105,-4.1094,-4.1104,-4.1105,-4.179,-4.2357,-4.2357,-4.3099,-4.3635,-4.3568,-4.4337,-4.4857,-4.4819,-4.556,-4.6086,-4.6105,-4.6105,-4.6105,-4.6105,-4.6169,-4.6166,-4.6098,-4.6178,-4.6161,-4.6112,-4.6105,-4.6118,-4.6118,-4.605,-4.5988,-4.6007,-4.5988,-4.604,-3.7182,0.0,0.0,0.0,0.0,0.0,-3.7577,0.0,-3.7577,-3.7577,-3.7577,-3.7577,-3.7577,-3.7577,-3.7613,-3.7667,-3.7757,-3.7864,-3.7899,-3.8038,-3.7794,-3.6779,-3.6164,-3.5403,-3.4371,-3.3737,-3.3393,-3.3393,-3.3393,-3.3393,-3.3393,-3.3393,-3.3393,-3.3422,-3.3726,-3.3895,-3.3921,-3.4307,-3.4612,-3.4793,-3.4926,-3.5054,-3.5209,-3.5209,-3.5209,-3.5209,-3.5458,-3.5687,-3.5993,-3.7196,-3.7693,-3.7731,-3.801,-3.8185,-3.8306,-3.8709,-3.8947,-3.9041,-3.9176,-3.963,-4.0156,-4.0156,-4.0584,-4.111,-4.111,-4.111,-4.111,-4.111,-4.111,-4.111,-4.111,-4.111,-4.111,-4.111,-4.111,-4.1097,-4.1091,-4.11,-4.11,-4.109,-4.1091,-4.1105,-4.1094,-4.1308,-4.1464,-4.1458,-4.2201,-4.2749,-4.2733,-4.3495,-4.4275,-4.4882,-4.5154,-4.5558,-4.6182,-4.6241,-4.6241,-4.6241,-4.6267,-4.6264,-4.6241,-4.6268,-4.6268,-4.6241,-4.6245,-4.6235,-4.6235,-4.613,-4.6074,-4.6065,-4.6074,-4.6084,-3.7334,-3.7372,-3.7334,-3.7558,0.0,0.0,-3.7577,-3.7577,-3.7577,-3.7577,-3.7577,-3.7577,-3.7577,-3.7577,-3.7613,-3.7703,-3.781,-3.7899,-3.7951,-3.8106,-3.7884,-3.712,-3.629,-3.5494,-3.4679,-3.3882,-3.3393,-3.3393,-3.3393,-3.3393,-3.3393,-3.3393,-3.3481,-3.3661,-3.3868,-3.4055,-3.4208,-3.4508,-3.4753,-3.4908,-3.5001,-3.5089,-3.5209,-3.5209,-3.5209,-3.5209,-3.5209,-3.5209,-3.5286,-3.626,-3.6661,-3.6697,-3.7187,-3.742,-3.7553,-3.8073,-3.8313,-3.8388,-3.8468,-3.8831,-3.9318,-3.9688,-4.0136,-4.0623,-4.0994,-4.111,-4.111,-4.111,-4.111,-4.111,-4.111,-4.111,-4.111,-4.111,-4.111,-4.1103,-4.1105,-4.1104,-4.1094,-4.1101,-4.109,-4.1094,-4.1107,-4.1105,-4.1101,-4.1091,-4.154,-4.1852,-4.1858,-4.2612,-4.3357,-4.3859,-4.4569,-4.5215,-4.5703,-4.6094,-4.6308,-4.6308,-4.6308,-4.6308,-4.6308,-4.6308,-4.6308,-4.6308,-4.6293,-4.6292,-4.6292,-4.6195,-4.6142,-4.6143,-4.6139,-4.6154,-3.7503,-3.7484,-3.7372,-3.7558,-3.7577,0.0,-3.7577,-3.7577,-3.7577,-3.7577,-3.7577,-3.7577,-3.7577,-3.7577,-3.7613,-3.7703,-3.781,-3.7916,-3.7984,-3.8122,-3.792,-3.7229,-3.6345,-3.553,-3.4806,-3.3918,-3.3393,-3.3393,-3.3393,-3.3393,-3.3452,-3.3452,-3.3615,-3.4005,-3.4055,-3.4232,-3.4529,-3.4793,-3.4926,-3.4945,-3.5107,-3.5209,-3.5209,-3.5209,-3.5209,-3.5209,-3.5209,-3.5209,-3.5209,-3.5226,-3.5223,-3.5331,-3.6344,-3.6748,-3.6859,-3.7836,-3.8195,-3.8195,-3.8207,-3.8266,-3.848,-3.926,-3.9649,-3.9941,-4.0721,-4.1013,-4.111,-4.111,-4.111,-4.111,-4.111,-4.111,-4.111,-4.111,-4.111,-4.1103,-4.109,-4.1097,-4.1091,-4.1092,-4.109,-4.1107,-4.1094,-4.1108,-4.1108,-4.1108,-4.1108,-4.1094,-4.1105,-4.1771,-4.2302,-4.2383,-4.3789,-4.4785,-4.498,-4.5703,-4.6191,-4.6289,-4.6308,-4.6308,-4.6308,-4.6308,-4.6308,-4.6308,-4.6308,-4.6308,-4.6308,-4.623,-4.621,-4.6215,-4.6215,-4.6244,-3.754,-3.7594,-3.754,-3.7577,-3.7577,0.0,-3.7577,-3.7577,-3.7577,-3.7577,-3.7577,-3.7577,-3.7577,-3.7577,-3.7613,-3.7703,-3.781,-3.7916,-3.7984,-3.8122,-3.8138,-3.7975,-3.6689,-3.5747,-3.5584,-3.4262,-3.3393,-3.3393,-3.3393,-3.3491,-3.3698,-3.3726,-3.385,-3.4147,-3.442,-3.4612,-3.4753,-3.5,-3.5141,-3.5141,-3.5174,-3.5209,-3.5209,-3.5209,-3.5209,-3.5209,-3.5209,-3.5209,-3.5209,-3.5326,-3.535,-3.5383,-3.5611,-3.5758,-3.5899,-3.6151,-3.625,-3.6258,-3.6378,-3.6863,-3.7487,-3.7642,-3.8656,-3.9825,-4.0,-4.0545,-4.111,-4.111,-4.111,-4.111,-4.111,-4.111,-4.111,-4.111,-4.111,-4.1095,-4.1097,-4.1105,-4.1092,-4.1101,-4.1097,-4.1094,-4.1111,-4.1108,-4.1108,-4.1108,-4.1108,-4.1091,-4.1094,-4.1304,-4.1679,-4.2324,-4.2695,-4.3476,-4.4883,-4.5156,-4.5547,-4.6269,-4.6308,-4.6308,-4.6308,-4.6308,-4.6308,-4.6308,-4.6308,-4.6308,-4.6308,-4.6289,-4.6287,-4.6273,-4.6273,-4.6282,-3.7558,-3.7577,-3.7577,-3.7577,-3.7577,0.0,0.0,-3.7577,-3.7577,-3.7577,-3.7577,-3.7577,-3.7577,-3.7577,-3.7649,-3.7775,-3.7864,-3.7934,-3.8088,-3.8174,-3.8192,-3.8192,-3.6779,-3.582,-3.582,-3.4353,-3.3393,-3.3393,-3.352,-3.3661,-3.3788,-3.3921,-3.4136,-3.4423,-3.4593,-3.4793,-3.5,-3.5124,-3.5209,-3.5209,-3.5209,-3.5209,-3.5209,-3.5209,-3.5209,-3.5209,-3.5209,-3.5209,-3.5207,-3.5336,-3.5445,-3.5507,-3.5546,-3.5581,-3.566,-3.5753,-3.5801,-3.5807,-3.5878,-3.6181,-3.6629,-3.7058,-3.7798,-3.8675,-3.9532,-4.0409,-4.111,-4.111,-4.111,-4.111,-4.111,-4.111,-4.1097,-4.11,-4.1106,-4.1105,-4.1091,-4.1093,-4.1093,-4.1097,-4.1108,-4.1108,-4.1108,-4.1108,-4.1108,-4.1108,-4.1108,-4.1108,-4.1108,-4.1121,-4.1324,-4.1758,-4.2168,-4.2754,-4.3633,-4.4101,-4.4726,-4.5605,-4.5644,-4.5859,-4.6289,-4.6308,-4.6308,-4.6308,-4.6308,-4.6308,-4.6308,-4.6308,-4.6308,-4.6308,-4.6308,-4.6308,-3.7558,-3.7577,-3.7577,-3.7577,-3.7577,-3.7577,0.0,0.0,0.0,-3.7577,-3.7577,-3.7577,-3.7577,-3.7577,-3.7613,-3.7613,-3.7791,-3.7915,-3.7941,-3.8083,-3.8192,-3.8192,-3.6779,-3.582,-3.582,-3.4353,-3.3393,-3.3393,-3.3643,-3.3815,-3.3868,-3.4124,-3.4413,-3.4753,-3.4773,-3.4926,-3.5193,-3.5209,-3.5209,-3.5209,-3.5209,-3.5209,-3.5209,-3.5209,-3.5209,-3.5209,-3.5209,-3.5209,-3.5207,-3.5364,-3.5495,-3.5618,-3.5659,-3.5729,-3.5753,-3.5852,-3.5908,-3.5908,-3.5908,-3.5908,-3.6025,-3.6727,-3.7058,-3.7525,-3.9279,-4.0292,-4.0877,-4.1052,-4.111,-4.111,-4.111,-4.1097,-4.1095,-4.1105,-4.1097,-4.1094,-4.1094,-4.1092,-4.1108,-4.1094,-4.1108,-4.1108,-4.1108,-4.1108,-4.1108,-4.1108,-4.1108,-4.1108,-4.1108,-4.1114,-4.1144,-4.1191,-4.1777,-4.2226,-4.2383,-4.3047,-4.3828,-4.4687,-4.4746,-4.5137,-4.6016,-4.6211,-4.6308,-4.6308,-4.6308,-4.6308,-4.6308,-4.6308,-4.6308,-4.6308,-4.6308,-4.6308,-3.7577,-3.7577,-3.7577,-3.7577,-3.7577,-3.7577,-3.7577,0.0,-3.7577,-3.7577,0.0,-3.7577,-3.7577,0.0,0.0,-3.6772,-3.7344,-3.7682,-3.7063,-3.7688,-3.8192,-3.8192,-3.6779,-3.582,-3.582,-3.4353,-3.3393,-3.3393,-3.3643,-3.3895,-3.4148,-3.4427,-3.4689,-3.4964,-3.502,-3.5092,-3.52,-3.5212,-3.5209,-3.5209,-3.5209,-3.5209,-3.5209,-3.5209,-3.5209,-3.5209,-3.5209,-3.5209,-3.5207,-3.547,-3.5596,-3.5618,-3.5659,-3.576,-3.5878,-3.5889,-3.5908,-3.5908,-3.5908,-3.5908,-3.5928,-3.6025,-3.6571,-3.7525,-3.9279,-3.9864,-4.0117,-4.0877,-4.111,-4.111,-4.111,-4.11,-4.1109,-4.1094,-4.1091,-4.1108,-4.1093,-4.1092,-4.1108,-4.1094,-4.1108,-4.1108,-4.1108,-4.1108,-4.1108,-4.1108,-4.1108,-4.1108,-4.1108,-4.1146,-4.1191,-4.1191,-4.1289,-4.1621,-4.2344,-4.248,-4.293,-4.3789,-4.3848,-4.4238,-4.5117,-4.5898,-4.6308,-4.6308,-4.6308,-4.6308,-4.6308,-4.6308,-4.6308,-4.6308,-4.6308,-4.6308,-3.7594,-3.7577,-3.7577,-3.7577,-3.7577,-3.7577,-3.7577,-3.7577,-3.7577,-3.7577,0.0,0.0,0.0,0.0,0.0,0.0,-3.763,-3.7826,-3.7654,-3.7975,-3.8011,-3.754,-3.6508,-3.5439,-3.4516,-3.381,-3.3393,-3.3393,-3.3788,-3.4074,-3.4197,-3.4607,-3.4908,-3.5057,-3.5129,-3.5181,-3.5196,-3.5193,-3.5209,-3.5209,-3.5209,-3.5209,-3.5209,-3.5209,-3.5209,-3.519,-3.5281,-3.5311,-3.5321,-3.5549,-3.566,-3.5669,-3.5779,-3.5846,-3.5908,-3.5908,-3.5908,-3.5908,-3.5908,-3.5908,-3.5908,-3.5908,-3.6493,-3.7331,-3.8071,-3.8636,-3.924,-4.0097,-4.0351,-4.0454,-4.0969,-4.11,-4.1101,-4.1107,-4.1093,-4.1094,-4.1105,-4.1101,-4.1099,-4.1091,-4.1108,-4.1108,-4.1108,-4.1108,-4.1091,-4.1099,-4.1101,-4.1103,-4.1147,-4.1151,-4.1152,-4.1191,-4.1191,-4.1348,-4.168,-4.1699,-4.2051,-4.2891,-4.3418,-4.3867,-4.4238,-4.5078,-4.5547,-4.5547,-4.6035,-4.6308,-4.6308,-4.6308,-4.6308,-4.6308,-4.6308,-4.6308,-3.754,-3.7577,-3.7577,-3.7577,-3.7577,-3.7577,-3.7577,-3.7577,-3.7577,-3.7577,-3.7577,0.0,0.0,0.0,-3.7596,-3.7576,0.0,-3.7897,-3.7884,-3.7848,-3.7631,-3.7084,-3.6091,-3.4963,-3.3637,-3.3491,-3.3549,-3.3587,-3.4049,-3.4316,-3.4316,-3.4732,-3.5001,-3.5075,-3.5147,-3.5181,-3.5212,-3.5193,-3.5209,-3.5209,-3.5209,-3.5209,-3.5209,-3.5209,-3.5207,-3.527,-3.5369,-3.5418,-3.547,-3.5631,-3.5693,-3.571,-3.5846,-3.5908,-3.5908,-3.5908,-3.5908,-3.5908,-3.5908,-3.5908,-3.5908,-3.5908,-3.6337,-3.6883,-3.7136,-3.7642,-3.8324,-3.9201,-3.9441,-3.9633,-4.0524,-4.0734,-4.0808,-4.1035,-4.111,-4.1105,-4.1094,-4.1108,-4.1108,-4.1108,-4.1108,-4.1108,-4.1108,-4.1108,-4.1094,-4.1101,-4.1107,-4.1111,-4.117,-4.1152,-4.1152,-4.1191,-4.1191,-4.1191,-4.1191,-4.1191,-4.1445,-4.2031,-4.2871,-4.334,-4.334,-4.418,-4.4648,-4.4648,-4.5508,-4.5937,-4.5937,-4.6172,-4.6308,-4.6308,-4.6308,-4.6308,-3.7577,-3.7577,-3.7577,-3.7577,-3.7577,-3.7577,-3.7577,-3.7577,-3.7577,-3.7577,-3.7577,-3.7577,-3.7577,-3.7577,-3.7417,-3.6822,-3.7395,0.0,0.0,-3.7033,-3.7047,-3.7011,-3.5602,-3.4418,-3.3826,-3.3807,-3.3895,-3.4148,-3.4427,-3.4602,-3.4602,-3.4791,-3.4927,-3.5001,-3.5075,-3.5129,-3.52,-3.5212,-3.5209,-3.5209,-3.5209,-3.5209,-3.5209,-3.5209,-3.5266,-3.5391,-3.5391,-3.547,-3.5588,-3.5678,-3.5693,-3.571,-3.5846,-3.5908,-3.5908,-3.5908,-3.5908,-3.5908,-3.5908,-3.5908,-3.5908,-3.5908,-3.5928,-3.6103,-3.6941,-3.7214,-3.7428,-3.8305,-3.8546,-3.8733,-3.9611,-3.9836,-4.0058,-4.0897,-4.1103,-4.1091,-4.1108,-4.1108,-4.1108,-4.1108,-4.1108,-4.1108,-4.1108,-4.1108,-4.1108,-4.1111,-4.1108,-4.1092,-4.1094,-4.1168,-4.1191,-4.1191,-4.1191,-4.1191,-4.1191,-4.1191,-4.1211,-4.123,-4.1992,-4.2441,-4.2441,-4.3281,-4.373,-4.373,-4.4609,-4.5039,-4.5039,-4.5898,-4.6308,-4.6308,-4.6308,-4.6308,-3.7577,-3.7577,-3.7577,-3.7577,-3.7577,-3.7577,-3.7577,-3.7577,-3.7577,-3.7577,-3.7577,-3.7577,-3.7577,-3.7649,-3.7632,-3.7504,-3.7771,-3.7929,0.0,-3.687,-3.6064,-3.5714,-3.4563,-3.38,-3.3798,-3.3807,-3.3895,-3.4173,-3.445,-3.4602,-3.4602,-3.487,-3.5038,-3.5075,-3.5126,-3.5196,-3.5212,-3.5193,-3.5209,-3.5209,-3.5209,-3.5209,-3.5209,-3.5209,-3.5266,-3.5405,-3.5495,-3.5579,-3.5678,-3.5787,-3.5833,-3.584,-3.5883,-3.5908,-3.5908,-3.5908,-3.5908,-3.5908,-3.5908,-3.5908,-3.5908,-3.5908,-3.5908,-3.5967,-3.6259,-3.6338,-3.6512,-3.7386,-3.7643,-3.7841,-3.8708,-3.9375,-3.9861,-4.0164,-4.0684,-4.1108,-4.1108,-4.1108,-4.1108,-4.1108,-4.1108,-4.1108,-4.1108,-4.1108,-4.1108,-4.1108,-4.1097,-4.1105,-4.109,-4.1126,-4.1146,-4.1191,-4.1191,-4.1191,-4.1191,-4.1191,-4.1191,-4.1191,-4.1465,-4.1601,-4.1601,-4.2402,-4.2832,-4.2832,-4.3691,-4.4141,-4.4141,-4.5019,-4.5449,-4.5449,-4.6035,-4.6308,-3.7577,-3.7577,-3.7577,-3.7577,-3.7577,-3.7577,-3.7577,-3.7577,-3.7577,-3.7577,-3.7613,-3.7649,-3.7649,-3.7721,-3.7792,-3.7916,-3.7967,-3.7837,0.0,-3.6218,-3.5151,-3.4632,-3.3876,-3.3577,-3.4049,-3.3998,-3.408,-3.4413,-3.4607,-3.471,-3.471,-3.4946,-3.5075,-3.5092,-3.5162,-3.5193,-3.5209,-3.5209,-3.5209,-3.5209,-3.5209,-3.5209,-3.5209,-3.5254,-3.5336,-3.5483,-3.5599,-3.5687,-3.5787,-3.5852,-3.5908,-3.5908,-3.5908,-3.5908,-3.5908,-3.5908,-3.5908,-3.5908,-3.5908,-3.5908,-3.5908,-3.5908,-3.5908,-3.5908,-3.5908,-3.5895,-3.6075,-3.6941,-3.6992,-3.703,-3.8203,-3.8923,-3.9445,-3.9725,-4.0464,-4.1108,-4.1108,-4.1108,-4.1108,-4.1108,-4.1108,-4.1108,-4.1108,-4.1108,-4.1108,-4.1108,-4.1108,-4.1097,-4.111,-4.1126,-4.1147,-4.1191,-4.1191,-4.1191,-4.1191,-4.1191,-4.1191,-4.1191,-4.1191,-4.1191,-4.1191,-4.1699,-4.1973,-4.1973,-4.2812,-4.3242,-4.3242,-4.4101,-4.4531,-4.4551,-4.543,-4.584]}]]